     2              OBSERVATION DATA    GPS                 RINEX VERSION / TYPE
teqc 1997Sep10 19970910 19:06:41UTC                         PGM / RUN BY / DATE
                                                            COMMENT
BIT 2 OF LLI FLAGS DATA COLLECTED UNDER A-S CONDITION       COMMENT
BIT 2 OF LLI FLAGS DATA COLLECTED UNDER A-S CONDITION       COMMENT
Original Marker Name: unknown                               COMMENT
Campaign Name: STRC 1988 NGS                                COMMENT
4-Character Station Name: WIDE                              COMMENT
6-Character Antenna Code: TI4100                            COMMENT
Vertical Measurement Point: PAE                             COMMENT
Vertical Offset to Rinex Ref. Point: 0.0000                 COMMENT
Radial Measurement Point: RRP                               COMMENT
Radial Offset to Rinex Ref. Point: 0.0000                   COMMENT
Antenna Height from Field Measurement: 1.6590 m             COMMENT
Original XYZ: 0.0000 0.0000 0.0000                          COMMENT
New XYZ position is based on association with SCEC monument COMMENT
E1D0U3V0+0011. Position of that monument is believed to be  COMMENT
valid to within 1 m horizontally; vertical accuracy         COMMENT
should be no worse than 3-times this value.                 COMMENT
                                                            COMMENT
Revised Rinex header created by UCSD GPS archive for        COMMENT
GSAC on 14-Apr-1999 (1999:104) 01:10:04 GMT                 COMMENT
For assistance contact dagnew@ucsd.edu or hjohnson@ucsd.edu COMMENT
                                                            COMMENT
WIDE                                                        MARKER NAME
unknown NATIONAL GEODETIC SURVEY                            OBSERVER / AGENCY
0005 TI 4100 GSI TI 4100                                    REC # / TYPE / VERS
4021 TI 4100                                                ANT # / TYPE
 -2356149.0000 -4745123.0000  3540396.0000                  APPROX POSITION XYZ
        1.6590        0.0000        0.0000                  ANTENNA: DELTA H/E/N
     1     1     0                                          WAVELENGTH FACT L1/2
     6    L1    L2    P1    P2    D1    D2                  # / TYPES OF OBSERV
     0                                                      INTERVAL
  1988     3    30     2    18   20.000000                  TIME OF FIRST OBS
  1988     3    30     7    59   38.000000                  TIME OF LAST OBS
     0                                                      # OF SATELLITES
                                                            END OF HEADER
 88  3 30  2 18 20.1600000  0  3G 6G 9G11
   3961740.911 9  -6341027.057 9  17569643.044    17569644.400        2026.515
      1584.857
    187233.289 8   -105423.408 8  20598194.404    20598201.134        2848.289
      2224.995
    135868.763 9    -57725.865 8  19443963.607    19443969.618        3731.106
      2897.954
 88  3 30  3 20 38.0800000  0  3G 6G 9G11
  -2545895.909 9 -11411909.579 8  16331276.814    16331278.715        1296.933
      1017.402
 -10917598.736 9  -8758527.772 8  18485007.714    18485010.267        3014.897
      2328.087
 -11738997.316 9  -9310858.378 8  17184244.492    17184247.468        2432.266
      1881.987
 88  3 30  3 21  8.0800000  0  3G 6G 9G11
  -2584548.194 9 -11442028.233 8  16323922.366    16323924.191        1282.460
       982.971
 -11007605.234 9  -8828662.668 8  18467879.568    18467882.531        3012.935
      2337.638
 -11811283.530 8  -9367185.258 8  17170489.455    17170492.126        2404.699
      1866.155
 88  3 30  3 21 38.0800000  0  3G 6G 9G11
  -2622895.022 9 -11471908.860 8  16316625.910    16316625.865        1259.263
       988.563
 -11097564.667 9  -8898760.886 9  18450760.006    18450764.356        2975.783
      2336.283
 -11883109.027 9  -9423153.137 8  17156821.074    17156822.687        2390.114
      1853.019
 88  3 30  3 22  8.0800000  0  3G 6G 9G11
  -2660933.087 9 -11501548.913 8  16309387.054    16309388.433        1282.261
       993.012
 -11187474.105 9  -8968820.095 8  18433652.099    18433654.186        2985.192
      2342.659
 -11954471.351 9  -9478760.107 7  17143241.457    17143243.710        2376.877
      1870.523
 88  3 30  3 22 38.0800000  0  3G 6G 9G11
  -2698660.921 8 -11530947.198 9  16302207.651    16302208.776        1259.430
       985.214
 -11277332.219 9  -9038839.362 8  18416551.679    18416554.618        2976.149
      2316.679
 -12025369.094 8  -9534005.077 8  17129749.773    17129752.145        2355.107
      1850.353
 88  3 30  3 23  8.0800000  0  3G 6G 9G11
  -2736076.568 9 -11560102.238 8  16295087.101    16295088.787        1247.110
       980.653
 -11367138.152 9  -9108818.004 8  18399461.898    18399465.683        2993.565
      2329.939
 -12095801.012 9  -9588887.044 8  17116346.987    17116350.867        2333.911
      1813.530
 88  3 30  3 23 38.0800000  0  3G 6G 9G11
  -2773176.945 9 -11589011.599 9  16288027.053    16288028.124        1236.472
       970.376
 -11456888.521 9  -9178753.273 9  18382383.521    18382387.090        2988.103
      2329.846
 -12165764.396 9  -9643403.943 7  17103033.019    17103035.594        2316.519
      1818.408
 88  3 30  3 24  8.0800000  0  3G 6G 9G11
  -2809960.244 9 -11617673.893 9  16281028.243    16281029.422        1206.616
       966.057
 -11546581.880 9  -9248644.142 8  18365315.029    18365318.113        3002.433
      2330.300
 -12235258.003 9  -9697554.772 8  17089808.314    17089811.160        2311.543
      1801.718
 88  3 30  3 24 38.0800000  0  3G 6G 9G11
  -2846425.015 9 -11646087.988 8  16274088.959    16274090.148        1216.273
       946.906
 -11636217.233 8  -9318489.817 8  18348258.179    18348260.525        2983.837
      2330.660
 -12304281.259 9  -9751339.093 8  17076674.127    17076676.278        2303.002
      1776.515
 88  3 30  3 25  8.0800000  0  3G 6G 9G11
  -2882568.193 9 -11674251.481 8  16267210.392    16267211.761        1201.536
       942.600
 -11725791.883 8  -9388288.193 9  18331213.158    18331215.097        2997.202
      2334.258
 -12372831.505 8  -9804754.837 8  17063630.282    17063632.281        2263.936
      1779.858
 88  3 30  3 25 38.0800000  0  3G 6G 9G11
  -2918387.536 9 -11702162.641 8  16260394.556    16260397.602        1178.211
       914.750
 -11815304.020 9  -9458037.855 9  18314179.271    18314182.125        2984.826
      2311.068
 -12440907.012 9  -9857800.663 7  17050674.556    17050677.628        2258.673
      1762.186
 88  3 30  3 26  8.0800000  0  3G 6G 9G11
  -2953880.436 9 -11729819.428 9  16253639.597    16253641.798        1161.967
       916.465
 -11904751.123 9  -9527736.813 8  18297157.496    18297160.787        2987.928
      2329.075
 -12508506.023 9  -9910475.163 8  17037810.606    17037814.593        2247.030
      1742.985
 88  3 30  3 26 38.0800000  0  3G 6G 9G11
  -2989044.411 9 -11757219.907 8  16246948.923    16246950.298        1174.495
       914.588
 -11994131.073 9  -9597383.451 9  18280149.297    18280152.552        3008.589
      2325.714
 -12575626.573 9  -9962776.867 8  17025037.914    17025041.004        2234.486
      1729.222
 88  3 30  3 27  8.0800000  0  3G 6G 9G11
  -3023878.604 9 -11784363.428 9  16240319.569    16240321.555        1171.042
       884.893
 -12083443.090 9  -9666977.163 9  18263153.641    18263156.602        2976.325
      2318.512
 -12642268.494 9 -10014705.581 9  17012355.992    17012360.438        2220.619
      1733.863
 88  3 30  3 27 38.0800000  0  3G 6G 9G11
  -3058379.821 9 -11811247.465 9  16233754.643    16233755.885        1145.795
       900.054
 -12172684.667 9  -9736515.998 9  18246171.080    18246174.808        2969.052
      2326.739
 -12708429.181 8 -10066259.313 8  16999766.416    16999770.240        2193.618
      1695.133
 88  3 30  3 28  8.0800000  0  3G 6G 9G11
  -3092545.813 8 -11837870.308 9  16227252.229    16227254.860        1133.276
       890.814
 -12261853.347 9  -9805997.994 8  18229203.449    18229206.147        2982.306
      2326.298
 -12774107.011 9 -10117436.812 7  16987268.173    16987271.786        2189.710
      1713.780
 88  3 30  3 28 38.0800000  0  3G 6G 9G11
  -3126374.670 9 -11864230.441 8  16220815.020    16220818.270        1111.561
       865.201
 -12350947.538 9  -9875421.937 9  18212249.277    18212252.247        2972.449
      2319.326
 -12839301.445 8 -10168237.630 8  16974862.492    16974866.413        2159.815
      1694.151
 88  3 30  3 29  8.0800000  0  3G 6G 9G11
  -3159863.548 9 -11890325.659 8  16214443.902    16214444.587        1134.847
       868.059
 -12439964.822 8  -9944785.948 8  18195309.670    18195312.152        2973.821
      2319.457
 -12904009.720 8 -10218659.594 8  16962548.145    16962553.266        2172.813
      1669.066
 88  3 30  3 29 38.0800000  0  3G 6G 9G11
  -3193010.676 9 -11916154.573 8  16208134.921    16208137.606        1113.324
       862.827
 -12528903.603 9 -10014088.814 9  18178385.754    18178388.172        2964.914
      2316.064
 -12968230.747 9 -10268701.914 8  16950328.153    16950331.174        2126.426
      1665.555
 88  3 30  3 30  8.0800000  0  3G 6G 9G11
  -3225814.102 9 -11941715.664 9  16201892.148    16201894.976        1082.710
       849.480
 -12617762.105 9 -10083329.107 8  18161476.252    18161478.083        2965.241
      2309.875
 -13031963.556 8 -10318363.799 8  16938200.505    16938204.625        2105.581
      1654.693
 88  3 30  3 30 38.0800000  0  3G 6G 9G11
  -3258270.833 9 -11967006.599 9  16195715.719    16195718.761        1078.795
       843.975
 -12706537.277 9 -10152504.471 9  18144581.962    18144584.809        2970.400
      2297.888
 -13095206.033 9 -10367643.603 8  16926165.064    16926168.154        2108.412
      1630.516
 88  3 30  3 31  8.0800000  0  3G 6G 9G11
  -3290378.418 9 -11992025.475 9  16189607.760    16189609.410        1077.678
       829.149
 -12795227.204 9 -10221613.405 8  18127705.933    18127707.808        2952.920
      2290.929
 -13157956.495 9 -10416540.024 8  16914223.811    16914228.135        2088.197
      1625.861
 88  3 30  3 31 38.0800000  0  3G 6G 9G11
  -3322135.367 9 -12016771.131 8  16183563.264    16183566.170        1062.240
       815.242
 -12883830.214 9 -10290654.604 8  18110844.824    18110847.499        2948.383
      2305.364
 -13220214.362 8 -10465052.595 8  16902377.340    16902380.215        2087.025
      1615.882
 88  3 30  3 32  8.0800000  0  3G 6G 9G11
  -3353540.100 9 -12041242.344 9  16177588.223    16177589.051        1045.869
       811.775
 -12972345.093 9 -10359627.157 9  18094001.591    18094003.228        2943.646
      2289.947
 -13281978.791 9 -10513180.678 8  16890623.871    16890626.917        2037.735
      1596.949
 88  3 30  3 32 38.0800000  0  3G 6G 9G11
  -3384589.370 9 -12065436.569 8  16171679.067    16171680.887        1021.108
       795.569
 -13060768.528 9 -10428528.453 9  18077174.365    18077176.704        2951.493
      2286.405
 -13343247.181 9 -10560922.229 8  16878964.602    16878968.446        2040.670
      1591.213
 88  3 30  3 33  8.0800000  0  3G 6G 9G11
  -3415280.439 9 -12089351.659 8  16165839.020    16165841.310        1039.984
       810.917
 -13149097.988 9 -10497356.519 7  18060365.067    18060368.200        2956.859
      2299.299
 -13404017.911 8 -10608276.006 8  16867399.581    16867404.270        2016.810
      1587.591
 88  3 30  3 33 38.0800000  0  3G 6G 9G11
  -3445611.896 9 -12112986.564 9  16160067.077    16160068.903        1015.774
       787.777
 -13237331.876 9 -10566110.110 8  18043574.905    18043577.394        2952.777
      2295.925
 -13464290.709 9 -10655241.770 7  16855930.566    16855933.699        2011.165
      1566.949
 88  3 30  3 34  8.0800000  0  3G 6G 9G11
  -3475582.226 9 -12136340.040 8  16154363.990    16154366.441         999.187
       781.228
 -13325469.209 9 -10634788.451 9  18026802.616    18026805.734        2957.250
      2292.060
 -13524064.874 8 -10701818.994 8  16844556.225    16844559.951        1971.899
      1543.013
 88  3 30  3 34 38.0800000  0  3G 6G 9G11
  -3505188.755 9 -12159410.043 9  16148729.566    16148731.474         963.199
       766.408
 -13413506.982 9 -10703389.238 9  18010050.387    18010052.568        2931.174
      2286.449
 -13583338.149 9 -10748005.911 8  16833276.801    16833278.102        1952.641
      1535.097
 88  3 30  3 35  8.0800000  0  3G 6G 9G11
  -3534427.938 9 -12182193.807 9  16143165.490    16143168.021         959.164
       769.652
 -13501441.823 9 -10771909.804 8  17993316.374    17993319.106        2925.193
      2274.487
 -13642108.125 9 -10793800.650 8  16822093.062    16822095.691        1957.090
      1515.548
 88  3 30  3 35 38.0800000  0  3G 6G 9G11
  -3563298.392 9 -12204690.238 9  16137671.337    16137674.025         964.929
       748.829
 -13589272.542 9 -10840349.238 9  17976602.846    17976605.278        2935.807
      2275.506
 -13700374.675 9 -10839203.110 7  16811005.091    16811008.274        1946.062
      1509.036
 88  3 30  3 36  8.0800000  0  3G 6G 9G11
  -3591798.139 9 -12226897.806 8  16132247.869    16132250.109         942.122
       740.490
 -13676996.821 9 -10908705.733 9  17959909.120    17959911.811        2911.422
      2268.584
 -13758136.526 8 -10884212.298 7  16800013.491    16800016.155        1906.302
      1507.918
 88  3 30  3 36 38.0800000  0  3G 6G 9G11
  -3619924.425 9 -12248814.387 8  16126896.079    16126898.280         932.394
       711.603
 -13764612.092 9 -10976977.271 9  17943237.155    17943239.544        2917.586
      2281.198
 -13815392.090 9 -10928826.973 8  16789117.228    16789120.890        1893.256
      1474.282
 88  3 30  3 37  8.0800000  0  3G 6G 9G11
  -3647675.995 9 -12270438.958 9  16121615.553    16121617.898         914.754
       717.742
 -13852117.152 9 -11045162.927 8  17926586.168    17926588.236        2914.005
      2273.524
 -13872141.183 6 -10973046.990 3  16778318.520    16778321.594        1878.647
      1468.069
 88  3 30  3 37 38.0800000  0  3G 6G 9G11
  -3675050.683 9 -12291769.871 9  16116406.879    16116407.974         901.365
       707.564
 -13939509.708 9 -11113260.899 8  17909954.081    17909957.291        2914.388
      2278.787
 -13928382.505 9 -11016871.352 7  16767616.928    16767620.378        1856.119
      1465.130
 88  3 30  3 38  8.0800000  0  3G 6G 9G11
  -3702045.898 9 -12312805.081 8  16111268.327    16111270.286         882.235
       690.333
 -14026786.864 9 -11181268.976 9  17893345.932    17893348.824        2913.431
      2263.023
 -13984114.342 9 -11060298.706 7  16757011.158    16757014.258        1857.307
      1444.829
 88  3 30  3 38 38.0800000  0  3G 6G 9G11
  -3728659.244 9 -12333542.730 8  16106204.970    16106207.171         873.064
       679.223
 -14113947.105 9 -11249185.964 9  17876759.908    17876762.210        2895.895
      2270.138
 -14039335.834 8 -11103328.382 8  16746503.165    16746505.332        1818.959
      1450.788
 88  3 30  3 39  8.0800000  0  3G 6G 9G11
  -3754888.559 9 -12353981.133 8  16101212.988    16101214.596         867.562
       676.066
 -14200986.928 9 -11317009.120 8  17860196.887    17860199.362        2899.117
      2256.511
 -14094045.404 9 -11145959.166 7  16736091.312    16736092.876        1794.621
      1433.060
 88  3 30  3 39 38.0800000  0  3G 6G 9G11
  -3780731.506 8 -12374118.481 9  16096295.773    16096298.426         851.558
       669.672
 -14287904.591 8 -11384737.056 9  17843655.790    17843660.291        2874.437
      2257.039
 -14148242.135 8 -11188190.338 7  16725778.395    16725781.148        1803.935
      1393.683
 88  3 30  3 40  8.0800000  0  3G 6G 9G11
  -3806185.409 9 -12393952.674 9  16091451.846    16091452.741         838.320
       663.862
 -14374697.255 9 -11452367.617 9  17827141.227    17827143.145        2896.398
      2251.167
 -14201924.487 8 -11230020.695 8  16715562.628    16715566.128        1780.092
      1384.499
 88  3 30  3 40 38.0800000  0  3G 6G 9G11
  -3831249.553 9 -12413483.157 8  16086682.191    16086684.059         832.587
       655.554
 -14461363.826 9 -11519899.925 9  17810648.639    17810651.365        2863.153
      2234.328
 -14255092.802 8 -11271450.486 7  16705444.489    16705448.474        1778.704
      1380.200
 88  3 30  3 41  8.0800000  0  3G 6G 9G11
  -3855920.954 8 -12432707.599 8  16081988.022    16081989.095         820.960
       643.618
 -14547901.513 9 -11587331.807 9  17794180.870    17794183.747        2887.140
      2241.865
 -14307745.298 9 -11312478.373 7  16695426.312    16695430.087        1732.772
      1355.462
 88  3 30  3 41 38.0800000  0  3G 6G 9G11
  -3880196.928 8 -12451623.925 9  16077368.225    16077369.258         781.176
       621.422
 -14634307.236 9 -11654660.900 8  17777738.830    17777740.748        2872.411
      2245.270
 -14359880.416 8 -11353103.089 8  16685505.443    16685508.930        1739.749
      1356.015
 88  3 30  3 42  8.0800000  0  3G 6G 9G11
  -3904076.106 9 -12470231.047 9  16072823.132    16072824.936         773.895
       617.352
 -14720579.381 9 -11721885.889 8  17761321.981    17761323.654        2877.523
      2240.573
 -14411497.986 8 -11393324.531 7  16675682.285    16675684.410        1718.402
      1334.211
 88  3 30  3 42 38.0800000  0  3G 6G 9G11
  -3927556.583 9 -12488527.514 9  16068355.599    16068356.661         772.005
       616.687
 -14806716.041 9 -11789005.302 8  17744930.038    17744932.409        2866.311
      2234.688
 -14462597.284 9 -11433142.112 8  16665958.170    16665961.513        1688.131
      1311.500
 88  3 30  3 43  8.0800000  0  3G 6G 9G11
  -3950636.305 9 -12506511.676 8  16063964.231    16063966.141         754.079
       592.236
 -14892714.843 9 -11856017.286 9  17728565.229    17728567.852        2866.486
      2239.964
 -14513177.242 9 -11472555.021 8  16656334.443    16656336.555        1678.754
      1303.975
 88  3 30  3 43 38.0800000  0  3G 6G 9G11
  -3973312.239 9 -12524181.223 8  16059648.474    16059649.763         730.587
       578.155
 -14978572.476 9 -11922919.265 8  17712226.556    17712229.121        2860.402
      2234.129
 -14563236.156 9 -11511561.930 8  16646808.440    16646811.043        1655.333
      1298.414
 88  3 30  3 44  8.0800000  0  3G 6G 9G11
  -3995581.951 9 -12541534.216 8  16055411.319    16055411.618         738.752
       578.870
 -15064286.174 9 -11989709.118 8  17695915.668    17695917.914        2869.181
      2233.377
 -14612772.871 8 -11550161.917 8  16637381.364    16637383.295        1646.513
      1292.970
 88  3 30  3 44 38.0800000  0  3G 6G 9G11
  -4017444.231 9 -12558569.739 8  16051250.029    16051252.515         726.791
       558.402
 -15149854.724 9 -12056385.864 9  17679632.892    17679634.476        2845.210
      2231.600
 -14661787.476 8 -11588355.071 7  16628054.898    16628056.935        1636.410
      1262.809
 88  3 30  3 45  8.0800000  0  3G 6G 9G11
  -4038897.930 9 -12575286.895 8  16047169.067    16047170.371         720.276
       549.758
 -15235276.196 9 -12122948.015 8  17663377.399    17663379.968        2840.920
      2229.966
 -14710279.881 9 -11626141.322 7  16618826.360    16618829.485        1616.187
      1247.827
 88  3 30  3 45 38.0800000  0  3G 6G 9G11
  -4059939.246 8 -12591682.705 9  16043165.092    16043164.863         679.311
       558.644
 -15320547.051 9 -12189392.787 9  17647151.625    17647153.036        2847.148
      2220.055
 -14758247.392 8 -11663518.566 7  16609698.136    16609701.825        1574.600
      1231.497
 88  3 30  3 46  8.0800000  0  3G 6G 9G11
  -4080566.429 9 -12607755.813 8  16039237.377    16039240.022         678.761
       531.279
 -15405664.776 9 -12255718.250 8  17630954.020    17630956.313        2833.408
      2212.176
 -14805689.809 8 -11700486.648 9  16600670.348    16600673.412        1577.144
      1205.089
 88  3 30  3 46 38.0800000  0  3G 6G 9G11
  -4100778.080 8 -12623505.128 8  16035391.781    16035394.142         668.259
       529.185
 -15490627.815 9 -12321923.185 8  17614785.814    17614786.780        2828.113
      2207.584
 -14852607.155 9 -11737045.567 8  16591742.212    16591745.718        1579.927
      1201.994
 88  3 30  3 47  8.0800000  0  3G 6G 9G11
  -4120571.717 9 -12638928.744 9  16031626.585    16031627.741         664.376
       486.465
 -15575433.322 9 -12388005.368 9  17598648.096    17598650.441        2836.582
      2206.223
 -14898998.302 9 -11773194.474 8  16582914.055    16582916.242        1540.773
      1208.830
 88  3 30  3 47 38.0800000  0  3G 6G 9G11
  -4139945.474 9 -12654025.153 9  16027938.692    16027941.180         649.192
       482.855
 -15660078.817 9 -12453962.854 9  17582539.824    17582542.460        2807.922
      2210.181
 -14944862.725 8 -11808932.945 8  16574186.568    16574187.750        1523.748
      1184.235
 88  3 30  3 48  8.0800000  0  3G 6G 9G11
  -4158896.966 9 -12668792.545 8  16024331.511    16024334.159         644.998
       489.398
 -15744561.943 9 -12519793.819 9  17566464.633    17566466.044        2811.359
      2189.893
 -14990199.309 9 -11844260.113 8  16565559.042    16565561.806        1488.828
      1182.520
 88  3 30  3 48 38.0800000  0  3G 6G 9G11
  -4177423.957 9 -12683229.149 8  16020806.605    16020809.215         603.204
       470.216
 -15828879.613 8 -12585495.874 9  17550418.683    17550420.317        2794.238
      2187.171
 -15035007.052 8 -11879175.194 8  16557032.311    16557035.510        1492.457
      1160.138
 88  3 30  3 49  8.0800000  0  3G 6G 9G11
  -4195525.177 9 -12697333.970 8  16017363.436    16017364.011         600.756
       482.289
 -15913030.266 9 -12651067.770 8  17534404.812    17534407.110        2815.442
      2178.894
 -15079286.260 9 -11913678.453 8  16548605.270    16548609.545        1465.655
      1148.320
 88  3 30  3 49 38.0800000  0  3G 6G 9G11
  -4213198.473 8 -12711105.360 8  16014000.234    16014000.826         575.254
       450.829
 -15997011.360 9 -12716507.542 8  17518423.848    17518425.793        2796.344
      2190.042
 -15123036.352 9 -11947769.391 7  16540280.922    16540283.263        1460.400
      1134.780
 88  3 30  3 50  8.0800000  0  3G 6G 9G11
  -4230440.874 9 -12724540.977 9  16010718.825    16010719.486         570.398
       437.948
 -16080819.176 9 -12781812.291 8  17502476.117    17502478.728        2788.313
      2173.868
 -15166255.600 9 -11981446.686 7  16532056.100    16532059.404        1417.872
      1118.692
 88  3 30  3 50 38.0800000  0  4G 6G 9G11G13
  -4247251.069 9 -12737639.827 9  16007520.535    16007520.811         552.336
       426.191
 -16164452.327 8 -12846980.943 9  17486561.452    17486562.417        2791.703
      2178.988
 -15208944.090 9 -12014710.414 8  16523932.081    16523935.972        1398.567
      1102.636
 -33220271.288 1                                  42088192.000 1         3.134

 88  3 30  3 51  8.0800000  0  4G 6G 9G11G13
  -4263627.365 8 -12750400.567 9  16004403.081    16004405.689         539.202
       417.069
 -16247908.566 9 -12912011.739 8  17470679.919    17470682.651        2787.779
      2159.911
 -15251101.629 9 -12047560.399 8  16515910.602    16515913.200        1407.809
      1095.142
 -33363626.031 9  42256745.528 7  19513999.403    19514004.223        3713.849
      2893.592
 88  3 30  3 51 38.0800000  0  4G 6G 9G11G13
  -4279567.542 8 -12762821.491 9  16001370.148    16001371.841         516.563
       402.902
 -16331184.884 9 -12976902.342 9  17454832.872    17454835.884        2777.835
      2159.023
 -15292727.208 8 -12079995.893 7  16507989.596    16507992.065        1366.988
      1062.072
 -33474993.980 8  42169964.989 8  19492807.359    19492813.003        3720.851
      2875.690
 88  3 30  3 52  8.0800000  0  4G 6G 9G11G13
  -4295068.875 9 -12774900.441 8  15998419.700    15998421.453         516.443
       409.824
 -16414278.013 9 -13041650.202 8  17439019.787    17439023.004        2766.958
      2160.241
 -15333819.558 9 -12112015.871 8  16500169.878    16500172.481        1357.411
      1074.351
 -33586146.891 8  42083352.521 8  19471655.678    19471661.244        3713.243
      2877.274
 88  3 30  3 52 38.0800000  0  4G 6G 9G11G13
  -4310130.896 9 -12786637.068 8  15995553.647    15995554.968         494.817
       387.367
 -16497187.062 9 -13106254.605 8  17423243.516    17423245.514        2773.298
      2154.878
 -15374379.593 9 -12143621.060 8  16492451.947    16492454.914        1357.068
      1042.151
 -33697084.775 9  41996907.616 8  19450543.864    19450548.817        3711.800
      2888.788
 88  3 30  3 53  8.0800000  0  4G 6G 9G11G13
  -4324751.552 9 -12798029.775 8  15992771.404    15992773.282         481.404
       375.698
 -16579909.328 9 -13170713.486 8  17407502.243    17407503.348        2759.901
      2151.169
 -15414407.046 9 -12174811.251 8  16484834.754    16484836.364        1335.880
      1037.845
 -33807804.674 8  41910632.563 7  19429476.360    19429480.328        3710.013
      2852.873
 88  3 30  3 53 38.0800000  0  4G 6G 9G11G13
  -4338926.524 9 -12809075.203 9  15990074.256    15990076.879         469.833
       365.128
 -16662439.726 9 -13235022.841 9  17391797.210    17391799.653        2760.515
      2148.727
 -15453898.700 9 -12205583.939 8  16477320.749    16477322.119        1284.079
      1023.659
 -33918301.533 8  41824531.302 8  19408449.045    19408452.768        3681.896
      2866.096
 88  3 30  3 54  8.0800000  0  4G 6G 9G11G13
  -4352655.138 9 -12819772.823 8  15987461.961    15987463.785         446.365
       350.389
 -16744777.246 9 -13299181.914 9  17376129.445    17376130.641        2753.705
      2131.247
 -15492855.598 8 -12235939.924 8  16469905.933    16469908.507        1287.707
      1011.039
 -34028574.561 8  41738604.437 8  19387463.093    19387468.496        3677.374
      2857.576
 88  3 30  3 54 38.0800000  0  4G 6G 9G11G13
  -4365936.476 9 -12830121.900 9  15984935.448    15984936.208         443.948
       342.498
 -16826920.271 9 -13363189.412 9  17360496.935    17360499.217        2738.825
      2138.188
 -15531278.754 9 -12265880.011 8  16462595.018    16462598.106        1284.485
       982.412
 -34138622.248 9  41652853.168 8  19366523.239    19366527.535        3659.727
      2864.349
 88  3 30  3 55  8.0800000  0  4G 6G 9G11G13
  -4378767.687 9 -12840120.244 9  15982492.675    15982494.169         417.442
       333.512
 -16908864.934 9 -13427042.356 9  17344903.448    17344905.296        2726.704
      2135.075
 -15569166.370 9 -12295402.811 9  16455384.791    16455388.258        1238.569
       971.357
 -34248441.488 8  41567279.909 9  19345623.721    19345627.862        3660.006
      2845.006
 88  3 30  3 55 38.0800000  0  4G 6G 9G11G13
  -4391146.538 9 -12849766.103 9  15980137.651    15980138.728         409.547
       313.964
 -16990608.477 9 -13490738.590 9  17329348.472    17329350.594        2721.273
      2118.913
 -15606517.506 8 -12324507.556 8  16448277.282    16448279.859        1243.649
       968.853
 -34358029.679 9  41481886.681 8  19324771.669    19324775.053        3641.139
      2859.863
 88  3 30  3 56  8.0800000  0  4G 6G 9G11G13
  -4403072.627 8 -12859059.159 9  15977867.870    15977869.774         402.083
       299.573
 -17072150.191 9 -13554277.548 9  17313831.525    17313833.330        2709.607
      2118.372
 -15643333.826 9 -12353195.570 8  16441270.842    16441274.010        1218.155
       960.135
 -34467385.769 8  41396674.311 8  19303961.301    19303966.049        3636.633
      2836.692
 88  3 30  3 56 38.0800000  0  4G 6G 9G11G13
  -4414543.524 9 -12867997.511 9  15975684.844    15975685.964         388.543
       299.243
 -17153486.306 9 -13617656.279 9  17298354.367    17298356.086        2703.044
      2113.078
 -15679614.593 9 -12381466.272 7  16434368.096    16434370.420        1221.033
       942.010
 -34576507.034 9  41311644.917 8  19283194.379    19283199.347        3632.487
      2828.863
 88  3 30  3 57  8.0800000  0  4G 6G 9G11G13
  -4425556.839 8 -12876579.320 8  15973588.526    15973590.839         347.395
       282.044
 -17234613.801 9 -13680872.449 8  17282915.857    17282917.057        2714.343
      2111.282
 -15715358.473 9 -12409318.614 8  16427565.231    16427568.970        1191.313
       911.301
 -34685390.110 9  41226801.111 8  19262474.786    19262480.838        3637.335
      2819.219
 88  3 30  3 57 38.0800000  0  4G 6G 9G11G13
  -4436110.301 9 -12884802.784 9  15971580.922    15971582.999         354.843
       267.907
 -17315530.344 9 -13743924.248 9  17267517.902    17267519.034        2699.894
      2105.783
 -15750564.855 9 -12436752.130 9  16420865.330    16420868.579        1173.116
       910.723
 -34794032.628 9  41142144.763 8  19241800.915    19241805.103        3614.154
      2823.854
 88  3 30  3 58  8.0800000  0  4G 6G 9G11G13
  -4446202.991 9 -12892667.201 8  15969660.331    15969661.168         322.475
       260.115
 -17396232.735 9 -13806809.178 8  17252160.188    17252162.480        2691.664
      2097.432
 -15785234.584 9 -12463767.473 8  16414268.594    16414271.383        1147.829
       884.340
 -34902433.543 9  41057676.675 7  19221175.883    19221177.560        3616.969
      2815.988
 88  3 30  3 58 38.0800000  0  4G 6G 9G11G13
  -4455832.705 9 -12900170.874 8  15967827.639    15967830.158         320.888
       233.042
 -17476719.498 8 -13869526.084 8  17236843.383    17236846.548        2694.830
      2098.917
 -15819367.262 9 -12490364.355 8  16407773.325    16407776.136        1131.019
       872.434
 -35010589.942 8  40973399.115 8  19200591.729    19200597.933        3610.111
      2805.020
 88  3 30  3 59  8.0800000  0  4G 6G 9G11G13
  -4464998.127 9 -12907312.757 8  15966084.413    15966085.877         307.340
       235.453
 -17556987.473 8 -13932072.515 9  17221569.297    17221571.571        2679.503
      2083.892
 -15852962.950 9 -12516542.786 9  16401380.276    16401382.997        1113.475
       867.736
 -35118499.484 9  40889313.915 7  19180057.265    19180060.139        3588.931
      2815.087
 88  3 30  3 59 38.0800000  0  4G 6G 9G11G13
  -4473697.569 9 -12914091.533 8  15964428.382    15964430.279         283.472
       229.985
 -17637035.047 9 -13994447.221 9  17206337.233    17206339.765        2672.167
      2077.523
 -15886021.738 9 -12542302.845 8  16395089.410    16395092.067        1105.660
       838.097
 -35226160.774 8  40805422.125 8  19159569.952    19159573.815        3580.773
      2789.094
 88  3 30  4  0  8.0800000  0  4G 6G 9G11G13
  -4481928.430 9 -12920505.190 8  15962861.777    15962863.225         272.300
       204.489
 -17716857.603 9 -14056646.602 8  17191147.574    17191150.135        2658.435
      2061.957
 -15918542.561 8 -12567643.737 9  16388900.721    16388903.986        1078.197
       838.215
 -35333570.545 8  40721726.319 7  19139128.889    19139133.675        3574.202
      2809.339
 88  3 30  4  0 38.0800000  0  4G 6G 9G11G13
  -4489688.920 9 -12926552.321 8  15961384.058    15961386.694         253.545
       191.956
 -17796453.182 8 -14118669.113 9  17176001.064    17176002.981        2661.114
      2071.210
 -15950525.314 9 -12592565.352 9  16382814.124    16382817.043        1054.338
       809.886
 -35440726.362 9  40638228.409 8  19118738.623    19118743.847        3573.301
      2782.470
 88  3 30  4  1  8.0800000  0  4G 6G 9G11G13
  -4496977.783 9 -12932231.945 9  15959998.593    15959999.658         247.835
       194.833
 -17875819.626 9 -14180513.065 9  17160898.331    17160899.091        2643.491
      2070.215
 -15981970.281 9 -12617067.891 8  16376831.773    16376834.220        1047.216
       810.352
 -35547626.028 9  40554930.098 8  19098397.303    19098399.951        3556.483
      2783.900
 88  3 30  4  1 38.0800000  0  4G 6G 9G11G13
  -4503792.374 9 -12937542.006 8  15958701.530    15958703.163         216.320
       158.538
 -17954952.976 9 -14242175.387 9  17145839.138    17145841.408        2635.381
      2045.267
 -16012876.710 8 -12641150.801 8  16370949.652    16370951.423        1027.791
       805.437
 -35654266.808 8  40471833.504 8  19078104.139    19078107.359        3555.255
      2784.471
 88  3 30  4  2  8.0800000  0  4G 6G 9G11G13
  -4510131.825 9 -12942481.834 9  15957494.615    15957495.822         210.523
       164.007
 -18033851.747 9 -14303654.915 9  17130826.038    17130827.930        2630.501
      2048.933
 -16043245.006 9 -12664814.376 9  16365170.271    16365173.271        1009.514
       785.099
 -35760647.039 9  40388939.953 8  19057860.614    19057863.839        3539.976
      2766.458
 88  3 30  4  2 38.0800000  0  4G 6G 9G11G13
  -4515994.809 9 -12947050.386 7  15956379.326    15956380.917         190.739
       141.668
 -18112513.518 9 -14364949.786 8  17115856.882    17115858.489        2630.453
      2032.628
 -16073075.814 8 -12688059.143 8  16359494.188    16359496.463         988.414
       762.077
 -35866765.175 9  40306250.589 9  19037665.740    19037670.568        3554.171
      2765.010
 88  3 30  4  3  8.0800000  0  4G 6G 9G11G13
  -4521378.273 9 -12951245.296 9  15955354.523    15955356.359         172.158
       131.627
 -18190933.976 9 -14426056.606 9  17100933.659    17100936.103        2612.583
      2031.081
 -16102367.453 9 -12710883.768 8  16353919.573    16353922.051         969.969
       754.030
 -35972617.712 8  40223768.216 8  19017524.016    19017526.616        3531.539
      2740.645
 88  3 30  4  3 38.0800000  0  4G 6G 9G11G13
  -4526281.400 9 -12955065.905 9  15954421.361    15954423.760         145.373
       129.172
 -18269111.594 9 -14486974.215 9  17086056.396    17086058.999        2598.269
      2022.599
 -16131120.969 9 -12733289.085 8  16348447.562    16348450.412         944.467
       736.029
 -36078203.220 8  40141493.877 8  18997430.326    18997435.566        3524.283
      2728.162
 88  3 30  4  4  8.0800000  0  4G 6G 9G11G13
  -4530702.692 9 -12958511.070 8  15953580.394    15953581.902         139.001
       108.561
 -18347043.716 9 -14547700.514 9  17071226.603    17071228.608        2595.749
      2032.081
 -16159336.495 9 -12755275.184 7  16343078.889    16343082.351         942.314
       722.446
 -36183519.621 9  40059429.248 7  18977389.699    18977393.248        3522.520
      2742.882
 88  3 30  4  4 38.0800000  0  4G 6G 9G11G13
  -4534640.828 8 -12961579.736 8  15952830.436    15952832.141         135.708
        98.880
 -18424727.690 9 -14608233.446 9  17056444.235    17056446.158        2570.980
      2005.051
 -16187014.558 9 -12776842.496 8  16337811.474    16337815.196         915.440
       708.570
 -36288564.293 9  39977576.360 9  18957401.492    18957403.507        3492.784
      2723.502
 88  3 30  4  5  8.0800000  0  4G 6G 9G11G13
  -4538093.632 9 -12964270.221 8  15952174.141    15952175.475         114.376
        81.109
 -18502160.945 9 -14668571.043 9  17041709.650    17041711.621        2565.510
      2004.610
 -16214154.607 8 -12797990.546 8  16332648.110    16332650.709         897.235
       696.596
 -36393335.610 9  39895936.468 8  18937462.742    18937467.715        3498.183
      2716.642
 88  3 30  4  5 38.0800000  0  4G 6G 9G11G13
  -4541059.157 9 -12966581.017 8  15951609.501    15951611.339          88.842
        73.988
 -18579340.227 9 -14728710.732 8  17027021.702    17027024.692        2578.468
      1997.750
 -16240756.712 9 -12818719.444 8  16327583.600    16327587.812         870.864
       683.989
 -36497830.737 9  39814511.776 8  18917576.955    18917580.956        3477.521
      2714.771
 88  3 30  4  6  8.0800000  0  4G 6G 9G11G13
  -4543535.667 8 -12968510.770 9  15951137.840    15951140.237          62.814
        56.738
 -18656261.992 9 -14788649.757 9  17012384.397    17012386.149        2552.966
      1992.730
 -16266820.833 9 -12839029.133 9  16322624.380    16322627.472         877.546
       676.905
 -36602047.310 9  39733304.151 8  18897746.137    18897750.240        3476.126
      2712.888
 88  3 30  4  6 38.0800000  0  4G 6G 9G11G13
  -4545521.041 9 -12970057.807 9  15950759.456    15950762.149          66.498
        46.057
 -18732923.569 8 -14848386.039 9  16997796.676    16997797.524        2564.641
      1980.979
 -16292346.340 9 -12858919.122 8  16317767.917    16317770.005         859.205
       658.015
 -36705982.558 9  39652315.722 8  18877967.627    18877972.225        3471.182
      2700.790
 88  3 30  4  7  8.0800000  0  4G 6G 9G11G13
  -4547014.899 9 -12971221.845 8  15950475.664    15950478.619          42.846
        41.931
 -18809323.422 9 -14907918.372 9  16983257.167    16983260.590        2539.466
      1969.583
 -16317334.702 8 -12878390.542 8  16313012.144    16313015.371         832.658
       639.784
 -36809635.644 9  39571547.151 8  18858244.072    18858247.896        3460.735
      2693.775
 88  3 30  4  7 38.0800000  0  4G 6G 9G11G13
  -4548015.554 9 -12972001.576 8  15950285.553    15950287.660          17.791
        11.241
 -18885458.439 9 -14967244.347 8  16968769.197    16968771.160        2546.603
      1976.257
 -16341785.944 9 -12897443.439 8  16308359.386    16308362.381         813.225
       639.597
 -36913004.550 9  39491000.021 8  18838573.494    18838575.824        3445.887
      2687.965
 88  3 30  4  8  8.0800000  0  4G 6G 9G11G13
  -4548521.119 9 -12972395.527 9  15950188.543    15950191.069          13.134
        19.542
 -18961325.704 9 -15026361.674 8  16954332.063    16954334.206        2551.762
      1956.217
 -16365699.742 8 -12916077.546 7  16303808.088    16303810.691         806.518
       616.426
 -37016085.914 9  39410676.949 8  18818957.029    18818960.908        3441.254
      2683.000
 88  3 30  4  8 38.0800000  0  4G 6G 9G11G13
  -4548530.645 9 -12972402.950 9  15950187.789    15950189.596          -8.413
        -7.960
 -19036922.804 9 -15085268.499 8  16939947.190    16939949.973        2510.040
      1959.324
 -16389077.402 8 -12934293.882 8  16299359.981    16299364.612         769.733
       595.411
 -37118879.064 9  39330578.461 8  18799396.215    18799400.266        3423.439
      2663.247
 88  3 30  4  9  8.0800000  0  4G 6G 9G11G13
  -4548042.615 9 -12972022.658 9  15950279.443    15950282.458         -40.773
       -12.191
 -19112247.009 9 -15143962.673 8  16925613.313    16925615.215        2515.232
      1956.888
 -16411918.895 8 -12952092.439 8  16295013.247    16295016.621         746.121
       590.707
 -37221381.634 9  39250706.396 8  18779890.534    18779893.539        3407.211
      2655.448
 88  3 30  4  9 38.0800000  0  4G 6G 9G11G13
  -4547054.358 9 -12971252.589 9  15950468.608    15950471.041         -22.775
       -32.821
 -19187294.523 9 -15202441.242 8  16911332.593    16911334.882        2513.629
      1945.641
 -16434223.391 9 -12969472.540 8  16290769.186    16290772.816         728.250
       571.078
 -37323589.935 9  39171063.627 9  18760440.944    18760444.178        3406.669
      2654.572
 88  3 30  4 10  8.0800000  0  4G 6G 9G11G13
  -4545564.511 9 -12970091.661 9  15950752.850    15950753.845         -56.945
       -35.419
 -19262062.668 8 -15260702.125 9  16897103.854    16897106.371        2488.996
      1930.318
 -16455991.376 9 -12986434.584 8  16286626.847    16286630.172         701.066
       556.910
 -37425502.013 8  39091651.692 8  18741046.510    18741052.558        3402.299
      2638.205
 88  3 30  4 10 38.0800000  0  4G 6G 9G11G13
  -4543572.041 9 -12968539.084 8  15951131.236    15951133.172         -73.476
       -57.515
 -19336549.123 9 -15318743.494 8  16882929.967    16882931.230        2479.738
      1932.605
 -16477223.337 9 -13002978.956 7  16282587.087    16282589.988         700.045
       549.448
 -37527116.551 9  39012471.586 8  18721710.685    18721713.964        3392.347
      2641.188
 88  3 30  4 11  8.0800000  0  4G 6G 9G11G13
  -4541076.373 9 -12966594.404 9  15951606.314    15951608.172         -82.973
       -85.968
 -19410751.607 9 -15376563.603 8  16868809.645    16868811.961        2464.842
      1916.903
 -16497920.835 8 -13019106.855 8  16278647.373    16278651.312         669.519
       530.191
 -37628432.765 9  38933523.941 8  18702431.673    18702434.761        3373.583
      2631.923
 88  3 30  4 11 38.0800000  0  4G 6G 9G11G13
  -4538075.957 8 -12964256.424 8  15952177.380    15952179.331        -114.552
       -92.604
 -19484667.810 9 -15434160.645 8  16854743.999    16854745.759        2460.998
      1914.013
 -16518084.016 8 -13034818.416 8  16274811.664    16274814.057         654.128
       506.908
 -37729447.597 9  38854811.141 8  18683208.004    18683213.415        3365.210
      2620.117
 88  3 30  4 12  8.0800000  0  4G 6G 9G11G13
  -4534568.661 9 -12961523.466 8  15952844.457    15952847.052        -132.470
      -103.031
 -19558293.772 9 -15491531.503 8  16840734.302    16840735.344        2451.509
      1908.141
 -16537712.389 9 -13050113.228 8  16271075.678    16271079.368         649.623
       494.866
 -37830158.543 8  38776335.138 8  18664043.317    18664047.687        3358.528
      2612.207
 88  3 30  4 12 38.0800000  0  4G 6G 9G11G13
  -4530552.923 9 -12958394.318 8  15953608.625    15953611.133        -142.015
      -114.713
 -19631626.585 9 -15548673.948 9  16826779.277    16826780.144        2450.456
      1894.701
 -16556806.570 8 -13064991.802 9  16267442.408    16267446.544         634.432
       486.521
 -37930563.720 9  38698097.393 8  18644938.913    18644940.413        3342.148
      2605.614
 88  3 30  4 13  8.0800000  0  4G 6G 9G11G13
  -4526027.223 9 -12954867.793 8  15954469.695    15954471.315        -157.414
      -127.600
 -19704663.344 9 -15605585.695 9  16812881.685    16812882.133        2415.959
      1901.368
 -16575366.493 8 -13079454.060 8  16263910.824    16263913.584         601.769
       484.967
 -38030660.849 9  38620099.691 8  18625889.944    18625893.114        3325.578
      2597.672
 88  3 30  4 13 38.0800000  0  4G 6G 9G11G13
  -4520990.061 8 -12950942.739 8  15955428.790    15955431.314        -174.056
      -134.783
 -19777401.155 9 -15662264.500 8  16799038.674    16799041.052        2410.034
      1878.328
 -16593392.494 8 -13093500.279 8  16260479.174    16260483.345         583.300
       447.374
 -38130447.626 9  38542343.809 8  18606900.748    18606904.661        3313.680
      2590.185
 88  3 30  4 14  8.0800000  0  4G 6G 9G11G13
  -4515440.596 9 -12946618.480 8  15956484.640    15956487.991        -180.819
      -151.212
 -19849837.506 9 -15718708.392 9  16785254.953    16785257.041        2412.921
      1877.333
 -16610885.693 8 -13107131.321 8  16257150.928    16257153.531         571.363
       436.754
 -38229922.344 9  38464831.112 8  18587971.024    18587974.810        3313.202
      2588.836
 88  3 30  4 14 38.0800000  0  4G 6G 9G11G13
  -4509377.992 9 -12941894.372 8  15957637.743    15957640.965        -209.502
      -174.297
 -19921970.188 9 -15774915.656 8  16771528.675    16771530.106        2412.035
      1859.941
 -16627847.128 9 -13120348.014 8  16253923.886    16253926.714         557.272
       431.833
 -38329083.664 9  38387562.584 8  18569101.566    18569104.554        3311.040
      2582.983
 88  3 30  4 15  8.0800000  0  4G 6G 9G11G13
  -4502800.649 9 -12936769.176 8  15958890.898    15958891.880        -233.936
      -167.747
 -19993795.952 8 -15830883.770 9  16757860.395    16757862.333        2381.677
      1867.099
 -16644276.803 8 -13133150.341 8  16250797.432    16250800.829         538.173
       412.055
 -38427929.287 9  38310540.072 8  18550290.956    18550295.684        3294.159
      2560.669
 88  3 30  4 15 38.0800000  0  4G 6G 9G11G13
  -4495707.245 9 -12931241.846 9  15960239.906    15960242.095        -232.349
      -195.778
 -20065312.165 9 -15886610.660 9  16744251.294    16744253.719        2379.612
      1855.218
 -16660175.629 9 -13145539.029 8  16247771.354    16247774.610         526.626
       409.296
 -38526457.110 9  38233765.194 9  18531542.822    18531546.105        3282.811
      2553.095
 88  3 30  4 16  8.0800000  0  4G 6G 9G11G13
  -4488096.307 9 -12925311.241 9  15961688.322    15961689.617        -264.374
      -199.083
 -20136516.008 9 -15942094.167 9  16730701.391    16730703.107        2366.821
      1840.740
 -16675543.436 8 -13157513.935 8  16244847.454    16244850.315         505.542
       403.498
 -38624665.178 8  38157239.473 8  18512854.392    18512858.977        3271.831
      2559.998
 88  3 30  4 16 38.0800000  0  4G 6G 9G11G13
  -4479966.360 9 -12918976.227 8  15963235.318    15963236.611        -278.584
      -218.216
 -20207403.950 9 -15997331.510 9  16717210.919    16717213.462        2369.771
      1831.289
 -16690380.996 9 -13169075.651 9  16242023.469    16242026.447         500.518
       384.378
 -38722551.404 9  38080964.549 8  18494227.889    18494229.537        3257.429
      2550.510
 88  3 30  4 17  8.0800000  0  4G 6G 9G11G13
  -4471316.381 9 -12912235.986 8  15964881.238    15964882.968        -292.125
      -243.823
 -20277973.673 9 -16052320.883 9  16703783.314    16703785.045        2334.987
      1846.041
 -16704689.406 8 -13180225.054 9  16239299.250    16239303.511         479.339
       377.767
 -38820113.453 9  38004942.213 8  18475661.703    18475663.989        3261.424
      2543.706
 88  3 30  4 17 38.0800000  0  4G 6G 9G11G13
  -4462145.225 9 -12905089.622 8  15966626.759    15966628.185        -327.347
      -238.901
 -20348222.491 9 -16107060.203 9  16690414.437    16690416.236        2345.314
      1842.281
 -16718468.597 8 -13190962.070 8  16236678.620    16236682.098         461.053
       353.931
 -38917350.022 9  37929173.497 8  18457157.957    18457161.532        3230.029
      2519.714
 88  3 30  4 18  8.0800000  0  4G 6G 9G11G13
  -4452451.543 9 -12897536.120 8  15968471.860    15968472.555        -341.916
      -254.187
 -20418146.794 8 -16161546.657 9  16677108.591    16677110.468        2325.091
      1812.412
 -16731719.380 8 -13201287.348 8  16234157.068    16234159.767         441.779
       341.218
 -39014258.308 9  37853660.581 9  18438716.058    18438719.672        3239.550
      2514.818
 88  3 30  4 18 38.0800000  0  4G 6G 9G11G13
  -4442234.850 9 -12889575.060 9  15970415.395    15970417.318        -363.033
      -280.633
 -20487745.235 9 -16215779.186 9  16663864.263    16663865.482        2309.366
      1801.569
 -16744443.251 9 -13211202.027 8  16231736.333    16231739.828         413.008
       325.577
 -39110837.096 9  37778404.426 9  18420337.676    18420341.111        3227.804
      2514.625
 88  3 30  4 19  8.0800000  0  4G 6G 9G11G13
  -4431493.182 9 -12881204.923 8  15972458.887    15972461.309        -358.256
      -281.354
 -20557013.662 9 -16269754.564 9  16650682.979    16650684.279        2310.267
      1795.970
 -16756640.043 8 -13220706.011 8  16229415.456    16229418.377         409.794
       318.351
 -39207084.272 9  37703406.672 8  18402022.703    18402026.300        3202.063
      2488.875
 88  3 30  4 19 38.0800000  0  4G 6G 9G11G13
  -4420225.010 9 -12872424.537 9  15974603.840    15974605.317        -375.640
      -296.882
 -20625948.893 9 -16323470.322 9  16637565.366    16637567.588        2300.139
      1782.685
 -16768310.141 9 -13229799.592 8  16227194.919    16227197.011         363.678
       283.653
 -39302998.027 8  37628668.733 8  18383770.086    18383774.514        3211.752
      2478.623
 88  3 30  4 20  8.0800000  0  4G 6G 9G11G13
  -4408430.638 9 -12863234.124 9  15976847.381    15976849.806        -411.397
      -315.505
 -20694549.614 9 -16376925.422 8  16624511.661    16624512.226        2274.877
      1785.326
 -16779455.360 8 -13238484.166 9  16225073.446    16225075.965         367.921
       281.099
 -39398577.243 9  37554191.464 8  18365582.866    18365586.971        3184.025
      2497.916
 88  3 30  4 20 38.0800000  0  4G 6G 9G11G13
  -4396107.795 9 -12853631.901 9  15979192.893    15979194.720        -433.837
      -321.004
 -20762811.797 9 -16430116.718 9  16611521.008    16611522.795        2264.566
      1760.781
 -16790075.871 9 -13246759.885 8  16223052.118    16223054.971         342.331
       280.670
 -39493818.651 9  37479977.433 8  18347458.827    18347462.607        3170.732
      2467.531
 88  3 30  4 21  8.0800000  0  4G 6G 9G11G13
  -4383256.297 8 -12843617.761 8  15981638.644    15981640.565        -437.003
      -344.362
 -20830733.364 9 -16483042.587 8  16598596.012    16598597.144        2260.339
      1771.724
 -16800173.041 8 -13254627.785 8  16221131.598    16221133.826         313.903
       248.309
 -39588721.028 9  37406027.558 8  18329399.457    18329403.944        3158.706
      2454.805
 88  3 30  4 21 38.0800000  0  4G 6G 9G11G13
  -4369874.614 9 -12833190.478 8  15984185.642    15984187.176        -457.074
      -360.959
 -20898311.194 9 -16535700.626 8  16585736.321    16585738.030        2237.429
      1756.798
 -16809747.417 8 -13262088.326 9  16219309.053    16219312.008         308.281
       256.356
 -39683282.772 8  37332343.134 9  18311406.262    18311409.195        3147.415
      2453.171
 88  3 30  4 22  8.0800000  0  4G 6G 9G11G13
  -4355961.585 9 -12822349.161 9  15986832.601    15986834.419        -464.339
      -369.745
 -20965542.037 9 -16588088.285 7  16572942.218    16572943.608        2238.529
      1754.860
 -16818799.285 8 -13269141.716 8  16217586.359    16217589.489         317.236
       228.574
 -39777501.770 9  37258925.772 8  18293475.940    18293479.358        3130.023
      2442.595
 88  3 30  4 22 38.0800000  0  4G 6G 9G11G13
  -4341516.395 9 -12811093.179 8  15989581.143    15989583.622        -485.973
      -381.365
 -21032423.365 9 -16640203.587 9  16560215.172    16560217.789        2228.235
      1734.155
 -16827329.622 9 -13275788.737 8  16215963.178    16215966.706         289.134
       216.650
 -39871376.552 9  37185776.631 8  18275612.499    18275616.047        3123.452
      2434.144
 88  3 30  4 23  8.0800000  0  4G 6G 9G11G13
  -4326537.835 9 -12799421.576 9  15992432.241    15992433.280        -511.356
      -387.150
 -21098952.360 9 -16692044.351 9  16547556.374    16547556.929        2209.734
      1725.879
 -16835339.171 8 -13282029.940 9  16214438.795    16214440.840         253.545
       207.888
 -39964904.710 9  37112897.569 9  18257814.066    18257817.580        3128.292
      2429.360
 88  3 30  4 23 38.0800000  0  4G 6G 9G11G13
  -4311025.061 9 -12787333.712 9  15995384.394    15995386.101        -518.453
      -406.605
 -21165125.909 9 -16743608.149 7  16534963.299    16534965.306        2203.570
      1710.226
 -16842828.913 8 -13287866.082 8  16213013.068    16213017.527         233.170
       179.771
 -40058085.251 9  37040289.384 9  18240081.904    18240086.589        3109.353
      2419.194
 88  3 30  4 24  8.0800000  0  4G 6G 9G11G13
  -4294976.613 9 -12774828.441 8  15998438.215    15998439.896        -538.955
      -414.596
 -21230940.943 9 -16794892.574 9  16522438.438    16522441.190        2167.287
      1699.240
 -16849799.487 8 -13293297.685 9  16211687.375    16211690.625         225.491
       174.160
 -40150914.776 9  36967954.725 8  18222417.666    18222421.840        3078.588
      2417.709
 88  3 30  4 24 38.0800000  0  4G 6G 9G11G13
  -4278391.886 9 -12761905.283 8  16001593.459    16001595.392        -556.116
      -446.957
 -21296395.115 8 -16845895.801 8  16509983.231    16509984.820        2171.848
      1700.644
 -16856252.374 8 -13298325.919 9  16210459.854    16210462.245         221.583
       166.399
 -40243392.423 9  36895894.261 9  18204818.459    18204822.793        3080.853
      2400.689
 88  3 30  4 25  8.0800000  0  4G 6G 9G11G13
  -4261270.925 9 -12748564.278 8  16004851.302    16004853.382        -584.074
      -452.103
 -21361486.002 9 -16896615.965 9  16497597.815    16497597.529        2157.677
      1696.382
 -16862188.963 8 -13302951.827 8  16209329.149    16209332.592         200.723
       154.624
 -40335517.413 9  36824108.586 8  18187289.542    18187292.124        3062.416
      2394.246
 88  3 30  4 25 38.0800000  0  4G 6G 9G11G13
  -4243612.718 9 -12734804.651 9  16008212.244    16008213.141        -594.959
      -450.704
 -21426211.165 8 -16947051.146 8  16485280.136    16485281.884        2154.536
      1679.368
 -16867610.260 8 -13307176.204 8  16208297.992    16208300.697         175.221
       131.161
 -40427287.870 8  36752599.175 8  18169824.506    18169828.720        3048.174
      2397.179
 88  3 30  4 26  8.0800000  0  4G 6G 9G11G13
  -4225414.737 9 -12720624.427 9  16011674.877    16011676.374        -618.188
      -470.725
 -21490565.812 9 -16997197.612 9  16473033.594    16473035.533        2147.590
      1667.985
 -16872515.838 8 -13310998.721 8  16207364.022    16207367.991         149.607
       127.861
 -40518700.259 8  36681368.764 8  18152430.386    18152434.327        3036.491
      2375.399
 88  3 30  4 26 38.0800000  0  4G 6G 9G11G13
  -4206677.223 9 -12706023.766 9  16015239.843    16015242.923        -622.151
      -488.727
 -21554548.214 9 -17047054.010 9  16460857.974    16460860.194        2127.088
      1666.034
 -16876906.969 8 -13314420.373 8  16206529.006    16206532.814         141.513
       102.571
 -40609753.980 9  36610417.838 8  18135102.852    18135106.779        3032.672
      2372.274
 88  3 30  4 27  8.0800000  0  4G 6G 9G11G13
  -4187398.981 9 -12691001.758 8  16018909.674    16018911.066        -654.097
      -511.817
 -21618155.189 9 -17096617.877 9  16448755.063    16448756.349        2112.654
      1641.166
 -16880785.017 8 -13317442.221 8  16205790.885    16205794.213         125.158
        94.568
 -40700447.303 9  36539747.749 8  18117845.852    18117849.002        3015.192
      2346.437
 88  3 30  4 27 38.0800000  0  4G 6G 9G11G13
  -4167579.240 9 -12675557.828 8  16022681.126    16022682.094        -674.997
      -516.875
 -21681383.829 8 -17145886.934 9  16436722.091    16436724.966        2107.846
      1638.165
 -16884150.984 8 -13320065.052 8  16205151.065    16205153.002         107.726
        70.191
 -40790778.252 9  36469360.022 8  18100656.026    18100658.252        3015.926
      2342.752
 88  3 30  4 28  8.0800000  0  4G 6G 9G11G13
  -4147218.705 9 -12659692.475 8  16026555.062    16026557.153        -678.929
      -533.851
 -21744232.832 9 -17194860.175 8  16424762.816    16424764.359        2093.061
      1634.828
 -16887007.374 8 -13322290.811 8  16204606.573    16204610.448         107.606
        65.183
 -40880746.713 9  36399254.757 8  18083535.538    18083539.296        2992.768
      2335.227
 88  3 30  4 28 38.0800000  0  4G 6G 9G11G13
  -4126316.161 9 -12643404.789 8  16030532.684    16030534.803        -708.506
      -563.205
 -21806699.016 9 -17243535.114 9  16412876.178    16412877.530        2065.318
      1613.819
 -16889354.975 8 -13324120.103 8  16204160.901    16204163.170          74.257
        53.078
 -40970350.765 9  36329433.441 8  18066483.638    18066487.309        2983.143
      2330.126
 88  3 30  4 29  8.0800000  0  4G 6G 9G11G13
  -4104868.925 9 -12626692.657 8  16034613.885    16034616.064        -717.365
      -558.321
 -21868777.494 9 -17291907.941 9  16401063.088    16401065.253        2063.086
      1590.027
 -16891192.543 8 -13325551.970 9  16203811.473    16203813.043          40.071
        60.448
 -41059586.668 9  36259898.999 8  18049502.764    18049506.658        2982.975
      2321.849
 88  3 30  4 29 38.0800000  0  4G 6G 9G11G13
  -4082876.756 9 -12609555.910 8  16038798.605    16038800.624        -727.580
      -577.348
 -21930465.910 9 -17339976.829 8  16389324.893    16389325.717        2059.808
      1597.912
 -16892521.644 9 -13326587.636 9  16203557.073    16203560.353          44.202
        33.138
 -41148453.088 9  36190652.471 8  18032591.855    18032595.987        2949.005
      2302.543
 88  3 30  4 30  8.0800000  0  4G 6G 9G11G13
  -4060339.707 9 -12591994.585 8  16043088.000    16043089.713        -759.079
      -573.601
 -21991762.206 8 -17387740.168 8  16377659.274    16377661.523        2043.708
      1601.218
 -16893344.510 8 -13327228.824 7  16203400.904    16203403.670          25.430
        26.303
 -41236948.753 9  36121694.845 7  18015751.762    18015755.276        2942.984
      2282.267
 88  3 30  4 30 38.0800000  0  4G 6G 9G11G13
  -4037257.659 9 -12574008.581 8  16047479.722    16047482.499        -770.219
      -609.734
 -22052664.075 9 -17435196.160 9  16366070.170    16366072.024        2024.538
      1564.258
 -16893662.743 9 -13327476.794 9  16203339.947    16203342.766          11.196
         1.609
 -41325073.192 9  36053026.480 8  17998982.639    17998985.603        2943.024
      2289.792
 88  3 30  4 31  8.0800000  0  4G 6G 9G11G13
  -4013629.951 9 -12555597.395 8  16051976.071    16051977.518        -793.807
      -627.083
 -22113168.958 9 -17482342.811 8  16354557.943    16354557.883        2001.237
      1565.370
 -16893477.615 8 -13327332.538 9  16203375.929    16203378.771         -18.628
       -16.982
 -41412824.914 9  35984648.550 7  17982283.809    17982287.076        2925.257
      2273.450
 88  3 30  4 31 38.0800000  0  4G 6G 9G11G13
  -3989455.404 9 -12536760.096 8  16056577.766    16056578.282        -815.769
      -645.774
 -22173273.066 8 -17529177.180 8  16343119.450    16343120.460        1997.066
      1542.709
 -16892789.700 8 -13326796.493 8  16203506.742    16203509.546         -31.379
       -31.398
 -41500201.575 9  35916562.873 8  17965656.759    17965659.969        2913.630
      2263.992
 88  3 30  4 32  8.0800000  0  4G 6G 9G11G13
  -3964732.543 9 -12517495.537 9  16061280.440    16061283.046        -823.249
      -652.255
 -22232972.935 9 -17575696.548 8  16331758.965    16331760.194        1995.232
      1541.982
 -16891599.114 9 -13325868.773 8  16203732.716    16203735.873         -40.661
       -34.232
 -41587200.701 9  35848771.373 8  17949102.430    17949104.663        2889.524
      2252.497
 88  3 30  4 32 38.0800000  0  4G 6G 9G11G13
  -3939461.643 9 -12497803.950 8  16066090.030    16066092.266        -850.258
      -667.945
 -22292266.776 9 -17621899.531 8  16320474.626    16320477.573        1972.577
      1524.092
 -16889907.889 9 -13324550.935 9  16204054.781    16204058.073         -54.975
       -49.574
 -41673821.340 9  35781274.804 8  17932617.258    17932622.170        2892.355
      2234.700
 88  3 30  4 33  8.0800000  0  4G 6G 9G11G13
  -3913643.113 9 -12477685.613 8  16071003.457    16071005.431        -850.656
      -682.336
 -22351152.362 8 -17667784.395 9  16309269.629    16309272.171        1955.448
      1511.174
 -16887718.366 9 -13322844.817 9  16204471.456    16204474.037         -70.964
       -67.500
 -41760062.896 9  35714073.627 8  17916207.069    17916210.142        2889.253
      2226.212
 88  3 30  4 33 38.0800000  0  4G 6G 9G11G13
  -3887274.511 9 -12457138.662 8  16076020.863    16076022.056        -884.731
      -688.375
 -22409625.108 9 -17713347.550 8  16298143.656    16298145.338        1952.657
      1514.759
 -16885029.961 8 -13320749.961 8  16204983.290    16204985.880        -103.188
       -67.215
 -41845922.211 9  35647170.299 8  17899867.363    17899871.475        2864.532
      2224.665
 88  3 30  4 34  8.0800000  0  4G 6G 9G11G13
  -3860356.258 9 -12436163.416 9  16081142.737    16081145.106        -913.981
      -704.643
 -22467683.296 9 -17758587.692 8  16287094.340    16287095.782        1931.541
      1510.503
 -16881844.857 9 -13318268.045 8  16205589.908    16205592.579        -123.730
       -97.351
 -41931399.104 9  35580564.962 8  17883602.387    17883606.165        2863.934
      2214.412
 88  3 30  4 34 38.0800000  0  4G 6G 9G11G13
  -3832888.358 9 -12414759.882 8  16086369.934    16086372.667        -909.786
      -726.410
 -22525324.753 9 -17803503.104 9  16276126.171    16276127.453        1922.011
      1491.700
 -16878165.014 9 -13315400.631 8  16206289.892    16206292.986        -112.430
      -105.616
 -42016492.228 8  35514258.655 9  17867409.570    17867412.457        2828.105
      2223.839
 88  3 30  4 35  8.0800000  0  4G 6G 9G11G13
  -3804869.753 9 -12392927.198 7  16091701.789    16091704.894        -928.901
      -739.670
 -22582545.776 8 -17848090.907 7  16265236.139    16265238.746        1894.683
      1475.376
 -16873991.078 9 -13312148.205 8  16207084.153    16207086.705        -155.931
      -108.542
 -42101199.137 9  35448253.294 8  17851290.010    17851293.383        2826.742
      2188.818
 88  3 30  4 35 38.0800000  0  4G 6G 9G11G13
  -3776299.861 8 -12370664.951 8  16097137.919    16097141.001        -968.565
      -752.011
 -22639343.353 7 -17892348.742 9  16254428.839    16254429.707        1907.482
      1471.934
 -16869324.128 8 -13308511.632 9  16207971.870    16207975.372        -148.490
      -112.855
 -42185518.603 9  35382549.853 8  17835244.517    17835248.529        2812.659
      2172.886
 88  3 30  4 36  8.0800000  0  4G 6G 9G11G13
  -3747178.215 9 -12347972.779 9  16102680.184    16102682.428        -961.189
      -769.764
 -22695715.116 9 -17936274.777 8  16243701.478    16243702.493        1878.838
      1452.385
 -16864165.033 9 -13304491.560 8  16208954.266    16208957.642        -179.750
      -150.200
 -42269449.532 9  35317149.154 8  17819272.837    17819276.402        2799.860
      2178.310
 88  3 30  4 36 38.0800000  0  4G 6G 9G11G13
  -3717504.934 9 -12324850.743 9  16108325.985    16108329.424       -1003.820
      -779.991
 -22751658.573 9 -17979867.074 8  16233055.941    16233057.286        1859.245
      1456.760
 -16858516.145 8 -13300089.819 8  16210028.809    16210031.353        -185.771
      -136.380
 -42352990.670 8  35252052.200 9  17803374.816    17803379.252        2784.382
      2168.126
 88  3 30  4 37  8.0800000  0  4G 6G 9G11G13
  -3687279.199 9 -12301298.234 8  16114078.967    16114081.191       -1012.775
      -790.567
 -22807170.470 8 -18023123.091 8  16222492.910    16222494.583        1848.998
      1428.835
 -16852378.579 8 -13295307.294 8  16211195.588    16211199.308        -199.391
      -167.747
 -42436140.391 8  35187260.240 9  17787552.540    17787555.565        2779.502
      2159.750
 88  3 30  4 37 38.0800000  0  4G 6G 9G11G13
  -3656501.322 9 -12277315.477 8  16119935.775    16119937.053       -1019.633
      -797.048
 -22862248.908 9 -18066041.339 9  16212011.516    16212014.272        1833.432
      1414.145
 -16845754.232 9 -13290145.456 8  16212457.107    16212460.173        -235.451
      -176.310
 -42518897.488 8  35122774.232 9  17771804.918    17771808.740        2760.746
      2135.069
 88  3 30  4 38  8.0800000  0  4G 6G 9G11G13
  -3625171.059 9 -12252902.300 8  16125896.826    16125899.905       -1049.441
      -828.198
 -22916890.899 9 -18108619.515 8  16201613.777    16201615.467        1816.750
      1415.096
 -16838644.855 9 -13284605.681 8  16213810.388    16213812.750        -245.594
      -175.918
 -42601260.768 9  35058595.078 9  17756131.390    17756134.727        2740.818
      2147.322
 88  3 30  4 38 38.0800000  0  4G 6G 9G11G13
  -3593287.420 9 -12228057.917 8  16131964.377    16131967.024       -1066.937
      -844.273
 -22971093.266 9 -18150855.128 8  16191298.879    16191299.865        1801.064
      1409.516
 -16831051.036 8 -13278688.409 8  16215255.491    16215257.468        -260.124
      -202.917
 -42683228.432 9  34994724.204 8  17740533.955    17740536.883        2713.530
      2118.565
 88  3 30  4 39  8.0800000  0  4G 6G 9G11G13
  -3560849.947 9 -12202781.980 8  16138137.533    16138139.657       -1084.560
      -843.540
 -23024852.955 8 -18192745.778 9  16181069.233    16181070.918        1783.138
      1395.249
 -16822973.495 8 -13272394.213 8  16216792.203    16216795.110        -278.624
      -217.072
 -42764798.545 9  34931163.112 9  17725011.085    17725013.918        2725.284
      2123.064
 88  3 30  4 39 38.0800000  0  4G 6G 9G11G13
  -3527859.202 9 -12177074.914 8  16144414.870    16144417.036       -1101.928
      -855.576
 -23078168.065 8 -18234290.022 8  16170923.240    16170925.347        1784.446
      1373.644
 -16814415.164 9 -13265725.371 8  16218420.442    16218423.618        -302.172
      -219.912
 -42845971.144 9  34867911.762 8  17709564.672    17709568.470        2697.645
      2097.550
 88  3 30  4 40  8.0800000  0  4G 6G 9G11G13
  -3494313.970 9 -12150935.774 8  16150798.694    16150801.468       -1116.011
      -889.833
 -23131034.925 8 -18275484.983 9  16160862.813    16160864.429        1749.845
      1368.785
 -16805376.176 8 -13258682.006 9  16220140.517    16220143.686        -310.801
      -228.642
 -42926743.417 9  34804972.348 7  17694195.091    17694197.695        2694.838
      2097.954
 88  3 30  4 40 38.0800000  0  4G 6G 9G11G13
  -3460213.282 9 -12124363.822 8  16157288.083    16157289.961       -1149.535
      -900.290
 -23183450.083 9 -18316327.961 9  16150889.066    16150890.630        1745.292
      1343.339
 -16795857.568 9 -13251264.903 8  16221952.022    16221954.579        -330.665
      -253.982
 -43007113.234 9  34742346.538 9  17678900.698    17678903.233        2678.953
      2083.817
 88  3 30  4 41  8.0800000  0  4G 6G 9G11G13
  -3425559.143 8 -12097360.602 8  16163882.098    16163884.729       -1155.763
      -876.945
 -23235413.044 9 -18356818.580 8  16141000.528    16141001.799        1734.430
      1356.941
 -16785862.851 9 -13243476.808 9  16223854.785    16223856.801        -346.039
      -261.967
 -43087081.711 9  34680033.466 8  17663683.202    17663686.664        2662.773
      2075.659
 88  3 30  4 41 38.0800000  0  4G 6G 9G11G13
  -3390351.253 9 -12069925.881 8  16170582.896    16170583.445       -1174.535
      -915.272
 -23286920.951 8 -18396954.590 8  16131199.594    16131201.238        1699.543
      1322.007
 -16775393.390 9 -13235318.783 9  16225846.307    16225849.166        -352.267
      -285.039
 -43166647.538 9  34618034.158 9  17648541.688    17648545.368        2647.175
      2060.280
 88  3 30  4 42  8.0800000  0  4G 6G 9G11G13
  -3354588.003 9 -12042058.418 9  16177388.167    16177389.946       -1205.491
      -936.318
 -23337969.603 8 -18436732.765 9  16121485.040    16121485.696        1687.477
      1319.783
 -16764449.281 9 -13226790.905 9  16227929.107    16227931.956        -368.479
      -288.313
 -43245807.705 9  34556350.936 9  17633478.706    17633480.876        2627.853
      2053.339
 88  3 30  4 42 38.0800000  0  4G 6G 9G11G13
  -3318270.034 9 -12013758.709 8  16184299.579    16184300.788       -1227.349
      -949.566
 -23388556.966 9 -18476151.482 8  16111858.741    16111860.270        1686.776
      1311.140
 -16753032.720 9 -13217894.872 8  16230100.910    16230104.313        -390.233
      -294.745
 -43324561.466 9  34494984.405 7  17618492.392    17618493.963        2614.233
      2041.887
 88  3 30  4 43  8.0800000  0  4G 6G 9G11G13
  -3281396.818 9 -11985026.351 8  16191316.131    16191317.094       -1231.504
      -962.820
 -23438680.122 9 -18515208.479 8  16102320.430    16102322.051        1668.243
      1291.616
 -16741145.023 8 -13208631.730 8  16232364.042    16232366.089        -395.648
      -314.194
 -43402907.911 8  34433935.247 8  17603583.254    17603586.368        2602.001
      2019.871
 88  3 30  4 43 38.0800000  0  4G 6G 9G11G13
  -3243968.461 9 -11955861.411 8  16198438.920    16198440.373       -1260.738
      -973.135
 -23488336.625 8 -18553901.865 9  16092870.784    16092871.523        1649.153
      1271.427
 -16728787.971 8 -13199002.839 8  16234714.927    16234717.233        -408.734
      -317.847
 -43480845.678 9  34373204.552 8  17588752.175    17588755.242        2619.919
      2020.654
 88  3 30  4 44  8.0800000  0  4G 6G 9G11G13
  -3205986.432 9 -11926265.022 8  16205666.187    16205667.366       -1265.865
      -982.126
 -23537524.915 9 -18592230.375 9  16083511.019    16083512.111        1643.898
      1263.380
 -16715964.716 8 -13189010.695 8  16237154.882    16237158.404        -441.684
      -324.360
 -43558374.938 9  34312792.170 8  17573998.716    17574002.101        2586.658
      2021.387
 88  3 30  4 44 38.0800000  0  4G 6G 9G11G13
  -3167449.197 9 -11896236.027 9  16212998.819    16213001.328       -1300.745
     -1015.084
 -23586241.183 8 -18630191.119 9  16074239.874    16074241.141        1622.821
      1266.052
 -16702675.409 9 -13178655.385 8  16239684.435    16239686.983        -437.633
      -366.359
 -43635493.495 8  34252699.825 9  17559323.694    17559326.387        2560.717
      2007.406
 88  3 30  4 45  8.0800000  0  4G 6G 9G11G13
  -3128356.208 9 -11865773.964 8  16220438.089    16220440.156       -1318.026
     -1020.098
 -23634482.215 9 -18667781.508 8  16065060.109    16065062.735        1602.774
      1235.853
 -16688920.671 9 -13167937.408 8  16242302.565    16242304.654        -488.964
      -367.856
 -43712199.046 9  34192929.291 8  17544726.734    17544730.650        2547.783
      1973.908
 88  3 30  4 45 38.0800000  0  4G 6G 9G11G13
  -3088708.713 9 -11834879.811 8  16227982.663    16227985.270       -1324.493
     -1035.801
 -23682246.533 8 -18705000.441 8  16055970.548    16055971.428        1581.722
      1235.356
 -16674703.617 9 -13156859.174 8  16245006.900    16245009.564        -494.107
      -385.074
 -43788491.586 9  34133480.582 7  17530208.662    17530211.900        2540.064
      1975.393
 88  3 30  4 46  8.0800000  0  4G 6G 9G11G13
  -3048506.282 9 -11803553.257 8  16235633.047    16235634.865       -1337.475
     -1054.821
 -23729530.941 9 -18741845.423 8  16046973.349    16046974.744        1570.725
      1217.933
 -16660025.744 9 -13145421.863 9  16247800.644    16247802.463        -483.198
      -376.344
 -43864370.111 9  34074354.494 8  17515769.627    17515772.677        2528.349
      1967.278
 88  3 30  4 46 38.0800000  0  4G 6G 9G11G13
  -3007747.862 9 -11771793.451 9  16243389.724    16243391.698       -1355.417
     -1072.269
 -23776331.875 9 -18778313.670 8  16038066.460    16038068.625        1569.616
      1213.881
 -16644887.377 8 -13133625.725 8  16250680.848    16250684.174        -495.271
      -392.786
 -43939832.181 8  34015552.907 9  17501409.082    17501412.222        2517.273
      1969.596
 88  3 30  4 47  8.0800000  0  4G 6G 9G11G13
  -2966434.762 9 -11739601.441 8  16251250.319    16251252.357       -1400.273
     -1088.469
 -23822647.890 8 -18814404.046 8  16029252.881    16029255.364        1547.464
      1198.912
 -16629291.235 8 -13121472.885 8  16253648.677    16253651.785        -521.993
      -425.321
 -44014877.917 8  33957075.743 9  17487128.055    17487132.860        2486.795
      1939.627
 88  3 30  4 47 38.0800000  0  4G 6G 9G11G13
  -2924567.688 9 -11706977.753 8  16259217.962    16259218.793       -1384.476
     -1093.657
 -23868476.973 9 -18850115.011 8  16020532.394    16020533.895        1523.581
      1177.083
 -16613239.428 9 -13108964.984 8  16256703.174    16256705.859        -555.677
      -436.301
 -44089507.006 8  33898923.238 8  17472927.143    17472930.226        2479.180
      1955.254
 88  3 30  4 48  8.0800000  0  4G 6G 9G11G13
  -2882146.622 9 -11673922.385 9  16267290.596    16267292.204       -1424.738
     -1105.010
 -23913816.245 9 -18885444.294 9  16011904.167    16011905.893        1526.100
      1174.150
 -16596733.843 8 -13096103.479 8  16259843.894    16259846.534        -565.127
      -423.476
 -44163717.646 9  33841096.800 8  17458805.274    17458808.838        2464.993
      1919.376
 88  3 30  4 48 38.0800000  0  4G 6G 9G11G13
  -2839170.499 9 -11640434.505 8  16275468.759    16275471.497       -1442.354
     -1122.446
 -23958662.284 9 -18920389.236 8  16003369.849    16003371.875        1513.908
      1164.283
 -16579774.751 8 -13082888.596 8  16263070.579    16263074.662        -562.057
      -451.189
 -44237507.881 8  33783597.941 9  17444763.921    17444767.279        2448.749
      1913.827
 88  3 30  4 49  8.0800000  0  4G 6G 9G11G13
  -2795639.897 9 -11606514.572 8  16283751.755    16283754.165       -1466.891
     -1138.086
 -24003012.377 9 -18954947.737 8  15994931.134    15994932.825        1481.508
      1145.903
 -16562364.327 9 -13069322.033 8  16266384.047    16266387.367        -582.527
      -459.286
 -44310876.978 8  33726427.243 8  17430801.334    17430804.721        2461.644
      1905.413
 88  3 30  4 49 38.0800000  0  4G 6G 9G11G13
  -2751555.491 8 -11572163.101 8  16292141.465    16292143.488       -1486.189
     -1159.275
 -24046864.635 9 -18989118.324 8  15986586.695    15986588.394        1447.856
      1152.315
 -16544504.903 8 -13055405.599 8  16269782.501    16269786.066        -610.780
      -476.380
 -44383824.583 9  33669584.986 8  17416920.658    17416922.975        2421.812
      1887.182
 88  3 30  4 50  8.0800000  0  4G 6G 9G11G13
  -2706917.146 8 -11537379.974 8  16300635.929    16300637.651       -1497.353
     -1164.202
 -24090216.579 8 -19022899.039 8  15978337.835    15978338.620        1430.974
      1111.230
 -16526197.819 9 -13041140.340 8  16273266.709    16273268.982        -629.296
      -477.275
 -44456349.242 8  33613072.299 9  17403119.604    17403123.127        2412.689
      1877.134
 88  3 30  4 50 38.0800000  0  4G 6G 9G11G13
  -2661725.902 9 -11502166.033 9  16309235.567    16309237.378       -1528.405
     -1182.545
 -24133065.899 9 -19056288.108 8  15970183.016    15970184.344        1411.748
      1106.228
 -16507445.527 9 -13026528.164 8  16276834.773    16276838.650        -627.622
      -499.818
 -44528450.517 9  33556889.525 9  17389400.352    17389403.512        2394.556
      1866.851
 88  3 30  4 51  8.0800000  0  4G 6G 9G11G13
  -2615981.995 9 -11466521.443 8  16317940.198    16317941.702       -1517.065
     -1195.308
 -24175410.306 9 -19089283.747 9  15962124.409    15962126.718        1415.983
      1085.703
 -16488249.869 8 -13011570.507 9  16280487.646    16280490.132        -642.486
      -497.246
 -44600127.404 8  33501037.436 8  17375759.445    17375763.917        2384.787
      1867.180
 88  3 30  4 51 38.0800000  0  4G 6G 9G11G13
  -2569685.070 9 -11430445.928 9  16326750.142    16326751.776       -1550.980
     -1216.814
 -24217246.565 9 -19121883.413 8  15954164.224    15954165.539        1400.090
      1080.795
 -16468612.054 8 -12996268.306 8  16284224.216    16284227.640        -666.951
      -513.687
 -44671378.546 9  33445517.097 9  17362201.402    17362203.846        2371.255
      1850.459
 88  3 30  4 52  8.0800000  0  4G 6G 9G11G13
  -2522835.541 9 -11393939.810 8  16335664.701    16335666.830       -1588.276
     -1214.205
 -24258572.121 9 -19154085.132 8  15946300.078    15946301.128        1352.299
      1064.918
 -16448533.713 9 -12980622.855 9  16288044.905    16288049.016        -684.064
      -527.010
 -44742203.097 9  33390329.171 8  17348723.688    17348726.615        2359.963
      1844.326
 88  3 30  4 52 38.0800000  0  4G 6G 9G11G13
  -2475433.743 9 -11357003.355 8  16344685.879    16344687.128       -1584.002
     -1237.351
 -24299384.782 8 -19185887.198 8  15938532.292    15938534.903        1346.127
      1044.686
 -16428016.851 9 -12964635.688 8  16291948.983    16291952.899        -696.648
      -547.751
 -44812599.931 9  33335474.515 8  17335326.955    17335332.032        2346.773
      1817.128
 88  3 30  4 53  8.0800000  0  4G 6G 9G11G13
  -2427480.323 9 -11319637.061 9  16353810.567    16353812.260       -1618.723
     -1259.988
 -24339682.118 9 -19217287.712 9  15930865.691    15930866.711        1345.561
      1038.528
 -16407063.468 9 -12948308.374 9  16295936.688    16295939.850        -711.313
      -539.071
 -44882567.996 9  33280953.974 9  17322012.047    17322015.533        2304.358
      1813.903
 88  3 30  4 53 38.0800000  0  4G 6G 9G11G13
  -2378975.594 8 -11281841.181 8  16363040.690    16363042.993       -1615.070
     -1277.666
 -24379461.757 8 -19248284.838 8  15923295.191    15923296.596        1309.557
      1028.425
 -16385675.403 9 -12931642.344 9  16300006.746    16300009.508        -718.569
      -565.989
 -44952107.219 8  33226767.596 7  17308780.003    17308782.688        2310.721
      1807.428
 88  3 30  4 54  8.0800000  0  4G 6G 9G11G13
  -2329920.207 8 -11243616.226 9  16372375.748    16372377.785       -1654.783
     -1287.241
 -24418721.360 8 -19278876.732 8  15915824.708    15915827.054        1304.358
      1004.676
 -16363854.440 8 -12914639.003 9  16304158.228    16304162.021        -752.309
      -567.921
 -45021216.629 9  33172916.128 8  17295628.650    17295631.875        2299.661
      1786.500
 88  3 30  4 54 38.0800000  0  4G 6G 9G11G13
  -2280314.916 9 -11204962.762 8  16381815.058    16381817.890       -1649.041
     -1305.156
 -24457459.032 9 -19309061.923 8  15908453.387    15908454.602        1283.018
       989.539
 -16341602.974 9 -12897300.197 8  16308393.069    16308397.247        -746.432
      -586.718
 -45089895.157 9  33119400.419 8  17282559.891    17282561.420        2287.691
      1785.270
 88  3 30  4 55  8.0800000  0  4G 6G 9G11G13
  -2230159.653 8 -11165880.749 8  16391359.919    16391360.967       -1669.328
     -1303.733
 -24495671.717 9 -19338838.042 8  15901182.114    15901181.302        1244.151
      1005.906
 -16318922.395 9 -12879627.027 8  16312710.033    16312712.838        -753.816
      -572.886
 -45158141.955 9  33066221.117 8  17269572.549    17269575.447        2274.087
      1765.634
 88  3 30  4 55 38.0800000  0  4G 6G 9G11G13
  -2179454.605 9 -11126370.338 7  16401007.981    16401009.211       -1684.519
     -1332.720
 -24533356.464 8 -19368202.770 8  15894009.457    15894010.863        1245.579
       971.948
 -16295813.891 9 -12861620.408 9  16317107.691    16317109.606        -770.594
      -616.476
 -45225955.811 9  33013379.182 8  17256668.296    17256671.868        2259.390
      1751.293
 88  3 30  4 56  8.0800000  0  4G 6G 9G11G13
  -2128200.867 8 -11086432.374 8  16410761.758    16410762.404       -1703.881
     -1337.070
 -24570511.785 9 -19397154.964 9  15886940.285    15886940.978        1221.608
       962.789
 -16272280.267 9 -12843282.518 8  16321585.748    16321588.601        -805.729
      -617.855
 -45293336.533 9  32960874.742 8  17243845.899    17243849.311        2234.981
      1751.597
 88  3 30  4 56 38.0800000  0  4G 6G 9G11G13
  -2076398.906 9 -11046067.221 7  16420619.772    16420621.568       -1727.636
     -1340.699
 -24607135.044 8 -19425692.569 8  15879969.410    15879971.552        1227.253
       941.854
 -16248323.360 9 -12824614.795 8  16326144.362    16326146.682        -809.652
      -629.960
 -45360283.555 9  32908708.264 8  17231106.217    17231108.896        2228.330
      1732.850
 88  3 30  4 57  8.0800000  0  4G 6G 9G11G13
  -2024048.996 8 -11005275.089 8  16430581.509    16430582.990       -1756.408
     -1362.298
 -24643223.779 8 -19453813.660 9  15873102.939    15873104.870        1188.386
       923.828
 -16223944.554 9 -12805618.315 8  16330783.151    16330785.519        -807.818
      -638.267
 -45426795.284 8  32856880.974 9  17218449.683    17218452.785        2213.657
      1711.400
 88  3 30  4 57 38.0800000  0  4G 6G 9G11G13
  -1971151.983 9 -10964056.647 8  16440647.193    16440648.203       -1783.983
     -1377.298
 -24678775.725 8 -19481516.472 9  15866337.335    15866339.040        1181.592
       920.473
 -16199146.316 9 -12786295.021 8  16335502.542    16335505.191        -831.949
      -653.609
 -45492871.800 9  32805392.809 8  17205875.681    17205877.492        2202.868
      1705.522
 88  3 30  4 58  8.0800000  0  4G 6G 9G11G13
  -1917708.776 9 -10922412.609 8  16450817.783    16450817.789       -1789.653
     -1394.212
 -24713788.879 8 -19508799.440 9  15859675.131    15859676.035        1163.459
       899.321
 -16173930.530 9 -12766646.350 8  16340301.294    16340303.473        -850.569
      -659.034
 -45558512.268 9  32754244.408 8  17193384.843    17193388.030        2190.747
      1693.809
 88  3 30  4 58 38.0800000  0  4G 6G 9G11G13
  -1863719.951 8 -10880343.396 8  16461091.103    16461092.945       -1795.123
     -1426.200
 -24748260.946 9 -19535660.806 8  15853115.453    15853116.980        1146.912
       863.927
 -16148299.255 9 -12746673.939 9  16345177.978    16345181.732        -845.035
      -673.388
 -45623716.097 9  32703436.269 9  17180976.500    17180979.889        2158.132
      1686.918
 88  3 30  4 59  8.0800000  0  4G 6G 9G11G13
  -1809185.427 9 -10837848.968 8  16471468.540    16471470.593       -1824.533
     -1415.755
 -24782188.739 8 -19562098.041 8  15846658.362    15846660.720        1125.325
       883.395
 -16122253.693 9 -12726378.696 8  16350134.651    16350137.800        -887.474
      -677.048
 -45688481.576 8  32652969.701 8  17168652.189    17168654.569        2161.792
      1663.536
 88  3 30  4 59 38.0800000  0  4G 6G 9G11G13
  -1754106.058 9 -10794930.002 9  16481950.479    16481951.177       -1844.756
     -1417.712
 -24815570.478 7 -19588109.784 8  15840306.503    15840307.312        1116.633
       862.927
 -16095795.953 8 -12705762.280 8  16355169.537    16355172.894        -881.198
      -689.351
 -45752808.350 9  32602844.974 9  17156412.085    17156413.846        2144.225
      1669.047
 88  3 30  5  0  8.0800000  0  4G 6G 9G11G13
  -1698483.225 9 -10751587.544 7  16492534.572    16492535.725       -1868.535
     -1442.940
 -24848404.215 8 -19613694.505 8  15834058.630    15834060.478        1077.973
       840.135
 -16068928.746 8 -12684826.789 9  16360282.177    16360284.878        -908.120
      -704.861
 -45816696.171 9  32553062.273 8  17144253.713    17144256.306        2120.732
      1665.723
 88  3 30  5  0 38.0800000  0  4G 6G 9G11G13
  -1642317.868 9 -10707822.345 9  16503222.251    16503224.845       -1884.787
     -1472.219
 -24880688.140 9 -19638850.822 7  15827915.397    15827915.448        1053.588
       823.587
 -16041654.274 9 -12663573.961 8  16365473.049    16365475.322        -911.652
      -700.673
 -45880145.096 9  32503621.578 8  17132179.338    17132182.507        2102.407
      1661.516
 88  3 30  5  1  8.0800000  0  4G 6G 9G11G13
  -1585610.445 9 -10663634.748 8  16514013.598    16514015.620       -1901.796
     -1484.436
 -24912419.765 8 -19663576.747 8  15821876.807    15821878.168        1044.346
       820.710
 -16013973.994 8 -12642004.914 9  16370739.921    16370742.218        -941.094
      -716.903
 -45943153.697 9  32454524.002 8  17120189.075    17120192.234        2093.197
      1646.597
 88  3 30  5  1 38.0800000  0  4G 6G 9G11G13
  -1528360.896 9 -10619024.731 9  16524907.734    16524910.543       -1912.450
     -1486.331
 -24943596.093 9 -19687869.993 8  15815942.829    15815945.397        1037.536
       802.603
 -15985889.074 9 -12620120.570 9  16376083.774    16376085.614        -939.945
      -717.096
 -46005720.791 8  32405770.440 8  17108282.830    17108285.637        2072.208
      1627.912
 88  3 30  5  2  8.0800000  0  4G 6G 9G11G13
  -1470570.879 9 -10573993.566 8  16535904.641    16535906.450       -1925.113
     -1497.858
 -24974215.647 9 -19711729.400 8  15810116.913    15810119.496        1005.160
       787.790
 -15957402.366 9 -12597923.132 8  16381504.201    16381508.532        -935.336
      -751.806
 -46067846.833 8  32357360.564 8  17096461.257    17096463.926        2072.910
      1607.612
 88  3 30  5  2 38.0800000  0  4G 6G 9G11G13
  -1412240.827 9 -10528541.583 8  16547004.324    16547006.246       -1949.770
     -1521.737
 -25004275.935 8 -19735152.989 9  15804396.250    15804398.491        1002.201
       775.226
 -15928515.705 9 -12575414.051 9  16387001.471    16387004.007        -963.430
      -750.880
 -46129530.858 9  32309295.109 7  17084724.304    17084725.983        2042.863
      1599.795
 88  3 30  5  3  8.0800000  0  4G 6G 9G11G13
  -1353372.216 9 -10482669.959 8  16558206.314    16558209.295       -1970.384
     -1536.458
 -25033775.396 9 -19758139.580 9  15798783.617    15798785.112         978.166
       756.242
 -15899231.803 8 -12552595.416 9  16392574.548    16392576.776        -970.591
      -753.956
 -46190772.725 8  32261574.204 7  17073069.513    17073072.467        2049.904
      1590.232
 88  3 30  5  3 38.0800000  0  4G 6G 9G11G13
  -1293966.316 8 -10436379.657 8  16569511.708    16569514.027       -1972.282
     -1547.878
 -25062712.192 8 -19780687.735 9  15793276.903    15793278.027         952.585
       745.853
 -15869552.903 9 -12529469.011 9  16398221.949    16398224.781       -1000.614
      -765.333
 -46251572.478 9  32214197.800 7  17061499.020    17061501.501        2028.038
      1574.946
 88  3 30  5  4  8.0800000  0  4G 6G 9G11G13
  -1234023.424 8 -10389670.917 8  16580917.239    16580919.751       -2012.736
     -1559.306
 -25091084.068 9 -19802795.696 8  15787878.372    15787879.611         962.465
       734.625
 -15839480.538 8 -12506036.012 9  16403944.687    16403947.342       -1004.458
      -786.584
 -46311929.033 9  32167166.742 7  17050012.565    17050016.855        1997.648
      1561.468
 88  3 30  5  4 38.0800000  0  4G 6G 9G11G13
  -1173544.039 8 -10342544.162 8  16592425.931    16592428.899       -2028.405
     -1579.351
 -25118888.087 9 -19824461.157 8  15782586.612    15782588.979         926.046
       725.093
 -15809015.883 7 -12482297.323 8  16409741.495    16409744.640       -1018.549
      -789.840
 -46371841.026 9  32120482.088 8  17038612.767    17038616.186        2005.088
      1549.401
 88  3 30  5  5  8.0800000  0  4G 6G 9G11G13
  -1112529.407 8 -10295000.304 8  16604037.767    16604039.337       -2049.537
     -1580.327
 -25146122.577 9 -19845682.841 9  15777403.872    15777406.705         907.131
       686.089
 -15778161.616 9 -12458255.041 8  16415614.050    16415615.443       -1021.643
      -790.779
 -46431308.490 9  32074143.835 8  17027296.913    17027299.178        1962.976
      1525.242
 88  3 30  5  5 38.0800000  0  4G 6G 9G11G13
  -1050981.165 9 -10247040.642 8  16615748.624    16615752.132       -2060.103
     -1610.159
 -25172786.190 8 -19866459.695 9  15772330.160    15772332.495         870.473
       687.151
 -15746920.486 9 -12433911.292 8  16421558.223    16421560.649       -1049.529
      -801.988
 -46490332.109 9  32028151.441 8  17016064.931    17016067.502        1963.366
      1522.849
 88  3 30  5  6  8.0800000  0  4G 6G 9G11G13
   -988899.286 8 -10198665.163 8  16627562.423    16627565.436       -2086.443
     -1616.230
 -25198875.956 8 -19886789.377 8  15767365.739    15767367.469         871.182
       665.447
 -15715293.574 9 -12409266.958 9  16427577.089    16427580.050       -1064.680
      -816.547
 -46548909.783 9  31982506.521 9  17004916.996    17004921.082        1949.778
      1511.559
 88  3 30  5  6 38.0800000  0  4G 6G 9G11G13
   -926284.900 8 -10149874.768 9  16639478.226    16639479.966       -2088.213
     -1619.679
 -25224389.916 9 -19906670.391 7  15762510.188    15762511.635         831.287
       656.990
 -15683283.334 8 -12384323.918 8  16433667.751    16433670.678       -1076.139
      -822.233
 -46607041.677 8  31937208.966 8  16993855.660    16993859.170        1929.475
      1497.708
 88  3 30  5  7  8.0800000  0  4G 6G 9G11G13
   -863138.968 9 -10100670.166 8  16651495.573    16651496.921       -2099.648
     -1640.961
 -25249326.951 8 -19926101.848 9  15757765.330    15757766.902         829.381
       650.739
 -15650892.079 9 -12359083.982 9  16439831.171    16439834.465       -1092.790
      -846.479
 -46664728.153 9  31892258.478 8  16982877.591    16982880.157        1921.294
      1493.856
 88  3 30  5  7 38.0800000  0  4G 6G 9G11G13
   -799463.196 8 -10051052.697 9  16663611.835    16663613.716       -2135.254
     -1658.490
 -25273684.265 8 -19945081.572 8  15753130.213    15753132.166         812.491
       629.873
 -15618121.292 9 -12333548.312 8  16446067.893    16446071.606       -1084.600
      -852.904
 -46721968.073 8  31847655.982 8  16971986.769    16971989.340        1900.760
      1470.306
 88  3 30  5  8  8.0800000  0  4G 6G 9G11G13
   -735259.599 9 -10001023.939 8  16675829.835    16675832.089       -2155.524
     -1670.911
 -25297460.776 8 -19963608.720 8  15748605.158    15748607.376         789.796
       615.034
 -15584973.623 8 -12307718.973 9  16452376.338    16452378.549       -1128.483
      -863.262
 -46778761.887 8  31803401.081 8  16961177.262    16961180.804        1888.168
      1463.147
 88  3 30  5  8 38.0800000  0  4G 6G 9G11G13
   -670527.657 9  -9950583.478 9  16688148.454    16688150.297       -2157.582
     -1706.026
 -25320653.669 8 -19981681.107 9  15744192.641    15744193.726         762.691
       599.158
 -15551450.768 9 -12281597.263 8  16458754.875    16458757.232       -1122.088
      -865.878
 -46835108.308 8  31759494.797 8  16950456.350    16950458.826        1855.138
      1460.886
 88  3 30  5  9  8.0800000  0  4G 6G 9G11G13
   -605270.023 9  -9899733.380 8  16700566.220    16700567.918       -2182.111
     -1685.613
 -25343261.374 8 -19999297.507 8  15739890.034    15739891.411         744.614
       572.084
 -15517555.530 9 -12255185.403 9  16465204.871    16465207.930       -1141.202
      -881.736
 -46891007.490 9  31715937.014 8  16939818.472    16939821.666        1852.299
      1453.659
 88  3 30  5  9 38.0800000  0  4G 6G 9G11G13
   -539486.903 9  -9848473.832 8  16713084.493    16713086.944       -2201.281
     -1718.888
 -25365283.089 7 -20016457.285 8  15735700.114    15735700.617         725.563
       564.000
 -15483290.236 9 -12228485.184 9  16471725.011    16471727.989       -1139.974
      -887.944
 -46946459.640 9  31672727.552 8  16929266.530    16929269.404        1807.763
      1426.275
 88  3 30  5 10  8.0800000  0  4G 6G 9G11G13
   -473178.551 9  -9796804.988 8  16725701.586    16725704.652       -2211.951
     -1723.169
 -25386715.014 8 -20033157.483 8  15731621.591    15731623.382         710.148
       550.939
 -15448655.458 9 -12201497.041 8  16478316.742    16478319.937       -1149.009
      -908.561
 -47001462.924 7  31629867.872 9  16918799.535    16918802.988        1828.057
      1435.695
 88  3 30  5 10 38.0800000  0  4G 6G 9G11G13
   -406346.978 9  -9744728.449 8  16738419.955    16738421.351       -2231.967
     -1729.576
 -25407556.231 8 -20049397.397 8  15727654.908    15727657.960         661.577
       544.626
 -15413654.053 9 -12174223.228 8  16484976.373    16484978.903       -1170.364
      -908.927
 -47056018.184 9  31587357.303 7  16908417.628    16908420.683        1815.721
      1404.110
 88  3 30  5 11  8.0800000  0  4G 6G 9G11G13
   -338994.241 9  -9692245.813 8  16751236.962    16751239.529       -2238.824
     -1741.742
 -25427805.892 8 -20065176.344 8  15723801.347    15723802.970         659.471
       524.456
 -15378289.029 9 -12146666.057 9  16491706.793    16491709.315       -1184.280
      -914.868
 -47110125.654 9  31545195.666 9  16898121.685    16898125.099        1804.063
      1411.915
 88  3 30  5 11 38.0800000  0  4G 6G 9G11G13
   -271120.994 9  -9639357.570 8  16764151.854    16764155.063       -2264.255
     -1769.077
 -25447461.219 7 -20080492.187 9  15720060.863    15720063.793         645.086
       507.380
 -15342561.742 9 -12118826.630 9  16498505.228    16498508.091       -1191.496
      -932.938
 -47163784.589 8  31503383.533 7  16887910.516    16887913.307        1781.782
      1401.451
 88  3 30  5 12  8.0800000  0  4G 6G 9G11G13
   -202727.739 9  -9586064.140 8  16777167.523    16777169.647       -2280.730
     -1772.569
 -25466519.911 8 -20095343.114 7  15716434.297    15716436.752         621.649
       479.785
 -15306473.871 9 -12090706.220 8  16505372.583    16505376.613       -1199.678
      -937.952
 -47216993.754 9  31461921.860 8  16877784.970    16877788.907        1768.393
      1375.570
 88  3 30  5 12 38.0800000  0  4G 6G 9G11G13
   -133816.396 9  -9532367.003 9  16790280.955    16790283.531       -2304.661
     -1805.887
 -25484980.917 8 -20109728.301 8  15712922.189    15712922.400         598.962
       474.068
 -15270027.900 9 -12062306.770 9  16512308.925    16512311.406       -1210.459
      -956.388
 -47269754.412 9  31420809.677 8  16867745.445    16867747.989        1757.476
      1371.966
 88  3 30  5 13  8.0800000  0  4G 6G 9G11G13
    -64388.507 9  -9478267.361 9  16803492.787    16803494.813       -2321.128
     -1796.380
 -25502842.515 8 -20123646.428 8  15709522.817    15709524.415         572.080
       452.059
 -15233226.526 9 -12033630.376 8  16519311.929    16519314.362       -1234.231
      -967.300
 -47322066.189 9  31380047.278 8  16857791.037    16857793.877        1732.812
      1343.743
 88  3 30  5 13 38.0800000  0  4G 6G 9G11G13
      5554.768 9  -9423766.130 9  16816802.377    16816804.609       -2341.167
     -1836.695
 -25520103.065 9 -20137096.206 7  15706239.291    15706239.700         564.943
       450.680
 -15196071.563 9 -12004678.445 8  16526381.433    16526384.589       -1241.512
      -971.612
 -47373928.633 9  31339635.002 7  16847921.023    16847923.751        1710.707
      1334.106
 88  3 30  5 14  8.0800000  0  4G 6G 9G11G13
     76012.164 9  -9368864.270 7  16830210.074    16830211.501       -2352.467
     -1825.647
 -25536760.626 9 -20150076.136 8  15703068.789    15703069.761         553.317
       432.169
 -15158565.307 9 -11975452.804 9  16533518.665    16533521.706       -1244.789
      -987.532
 -47425340.889 8  31299573.534 8  16838138.257    16838139.894        1728.250
      1338.312
 88  3 30  5 14 38.0800000  0  4G 6G 9G11G13
    146981.861 9  -9313563.228 8  16843714.645    16843717.297       -2357.036
     -1861.929
 -25552814.214 9 -20162585.434 8  15700012.566    15700015.928         519.577
       407.177
 -15120710.161 9 -11945955.288 8  16540722.477    16540725.272       -1278.202
      -980.001
 -47476303.843 9  31259862.157 7  16828439.575    16828442.609        1693.761
      1309.362
 88  3 30  5 15  8.0800000  0  4G 6G 9G11G13
    218463.196 9  -9257863.499 9  16857317.424    16857320.564       -2388.846
     -1861.855
 -25568261.399 8 -20174622.191 7  15697073.995    15697076.623         503.357
       397.359
 -15082507.817 9 -11916187.240 9  16547991.641    16547994.655       -1280.753
     -1000.767
 -47526817.424 9  31220500.949 8  16818827.536    16818830.821        1687.996
      1313.414
 88  3 30  5 15 38.0800000  0  4G 6G 9G11G13
    290454.670 9  -9201766.277 7  16871016.640    16871018.557       -2397.729
     -1857.226
 -25583100.686 9 -20186185.273 7  15694250.856    15694252.098         473.302
       392.773
 -15043960.242 9 -11886150.166 9  16555327.770    16555329.645       -1284.517
     -1006.484
 -47576880.875 9  31181490.498 7  16809301.661    16809304.400        1651.752
      1302.509
 88  3 30  5 16  8.0800000  0  4G 6G 9G11G13
    362954.706 9  -9145272.761 9  16884813.320    16884814.889       -2428.319
     -1886.337
 -25597330.363 9 -20197273.341 7  15691542.662    15691543.996         464.331
       380.364
 -15005069.782 9 -11855845.929 8  16562727.510    16562731.163       -1300.937
     -1016.600
 -47626494.110 9  31142830.863 7  16799860.050    16799862.117        1632.064
      1286.949
 88  3 30  5 16 38.0800000  0  4G 6G 9G11G13
    435961.294 9  -9088384.532 7  16898707.093    16898707.871       -2445.592
     -1910.148
 -25610949.607 8 -20207885.747 8  15688950.504    15688953.336         440.862
       343.871
 -14965838.944 9 -11825276.440 9  16570193.539    16570195.939       -1326.805
     -1020.546
 -47675657.922 9  31104521.433 7  16790505.333    16790506.740        1631.968
      1279.977
 88  3 30  5 17  8.0800000  0  4G 6G 9G11G13
    509473.655 9  -9031102.203 8  16912694.623    16912697.478       -2457.545
     -1911.876
 -25623956.329 9 -20218020.835 6  15686475.151    15686477.178         422.027
       313.044
 -14926269.479 9 -11794443.100 7  16577723.206    16577725.460       -1321.558
     -1032.296
 -47724371.950 9  31066562.465 7  16781234.624    16781238.002        1625.724
      1256.570
 88  3 30  5 17 38.0800000  0  4G 6G 9G11G13
    583490.570 9  -8973426.695 8  16926779.235    16926782.116       -2445.839
     -1932.568
 -25636348.611 8 -20227677.178 8  15684117.324    15684118.655         418.422
       299.567
 -14886363.389 9 -11763347.455 8  16585317.419    16585319.167       -1333.607
     -1054.287
 -47772635.933 9  31028954.199 8  16772049.459    16772052.520        1617.295
      1241.974
 88  3 30  5 18  8.0800000  0  4G 6G 9G11G13
    658009.765 8  -8915359.814 8  16940960.447    16940962.664       -2499.299
     -1933.786
 -25648125.723 8 -20236854.149 7  15681877.329    15681877.486         358.463
       304.339
 -14846123.420 9 -11731991.644 8  16592973.977    16592976.895       -1357.124
     -1053.323
 -47820449.832 9  30991696.617 8  16762951.677    16762954.475        1581.100
      1231.317
 88  3 30  5 18 38.0800000  0  4G 6G 9G11G13
    733029.626 9  -8856902.799 8  16955236.913    16955238.061       -2511.524
     -1963.133
 -25659286.321 8 -20245550.719 7  15679751.294    15679754.819         365.202
       276.644
 -14805551.849 9 -11700377.428 8  16600694.192    16600696.713       -1358.168
     -1051.254
 -47867814.051 8  30954789.443 8  16753938.076    16753940.106        1578.795
      1222.463
 88  3 30  5 19  8.0800000  0  4G 6G 9G11G13
    808548.752 9  -8798056.734 8  16969607.897    16969608.920       -2523.150
     -1968.403
 -25669828.938 8 -20253765.748 7  15677747.095    15677748.365         318.934
       253.466
 -14764650.859 9 -11668506.528 8  16608477.622    16608481.175       -1364.995
     -1064.241
 -47914728.609 9  30918232.688 7  16745010.862    16745012.648        1559.314
      1209.339
 88  3 30  5 19 38.0800000  0  4G 6G 9G11G13
    884565.482 9  -8738822.943 8  16984073.458    16984073.900       -2551.746
     -1979.022
 -25679751.798 8 -20261497.854 6  15675857.940    15675860.247         318.918
       240.647
 -14723422.507 9 -11636380.546 8  16616323.927    16616326.121       -1369.883
     -1075.780
 -47961193.106 9  30882026.609 6  16736168.170    16736171.502        1549.234
      1201.889
 88  3 30  5 20  8.0800000  0  4G 6G 9G11G13
    961077.875 9  -8679202.915 8  16998632.631    16998634.030       -2561.626
     -1991.655
 -25689054.230 9 -20268746.495 7  15674087.703    15674089.419         302.699
       258.543
 -14681869.251 8 -11604001.390 9  16624231.015    16624233.851       -1397.386
     -1079.123
 -48007208.405 9  30846170.563 7  16727412.459    16727414.786        1533.126
      1193.450
 88  3 30  5 20 38.0800000  0  4G 6G 9G11G13
   1038084.954 9  -8619197.418 8  17013287.123    17013288.913       -2577.344
     -2017.802
 -25697734.218 8 -20275510.131 7  15672436.470    15672437.790         285.330
       214.208
 -14639992.940 8 -11571370.490 8  16632199.497    16632203.113       -1403.295
     -1082.056
 -48052774.338 9  30810664.677 7  16718741.019    16718743.397        1520.686
      1181.532
 88  3 30  5 21  8.0800000  0  4G 6G 9G11G13
   1115585.522 9  -8558807.381 8  17028034.082    17028035.874       -2578.771
     -2013.887
 -25705789.818 8 -20281787.222 8  15670902.447    15670904.933         267.005
       216.606
 -14597795.294 9 -11538489.215 8  16640228.875    16640232.277       -1416.557
     -1092.215
 -48097890.252 8  30775509.442 7  16710155.899    16710158.718        1501.117
      1150.824
 88  3 30  5 21 38.0800000  0  4G 6G 9G11G13
   1193575.875 9  -8498035.691 8  17042875.843    17042876.929       -2616.849
     -2007.531
 -25713221.980 9 -20287578.509 7  15669489.289    15669490.696         245.881
       182.549
 -14555280.367 9 -11505360.702 8  16648319.061    16648322.887       -1421.868
     -1118.711
 -48142558.122 9  30740703.332 8  16701655.615    16701658.453        1501.635
      1153.204
 88  3 30  5 22  8.0800000  0  4G 6G 9G11G13
   1272055.586 9  -8436882.674 8  17057809.499    17057811.812       -2621.099
     -2039.047
 -25720027.921 8 -20292881.834 7  15668193.466    15668195.553         216.679
       171.351
 -14512449.058 9 -11471985.666 7  16656471.072    16656472.325       -1434.858
     -1120.414
 -48186776.840 8  30706247.197 8  16693241.858    16693243.895        1477.951
      1136.476
 88  3 30  5 22 38.0800000  0  4G 6G 9G11G13
   1351023.893 9  -8375348.945 8  17072837.433    17072838.511       -2647.662
     -2042.166
 -25726205.784 9 -20297695.762 7  15667018.102    15667018.688         204.183
       159.694
 -14469302.948 9 -11438365.320 9  16664681.230    16664683.268       -1447.075
     -1111.534
 -48230545.626 9  30672141.675 7  16684912.223    16684915.783        1460.878
      1131.250
 88  3 30  5 23  8.0800000  0  4G 6G 9G11G13
   1430479.124 9  -8313435.797 7  17087957.117    17087959.073       -2642.104
     -2052.519
 -25731753.977 8 -20302019.026 7  15665962.022    15665963.745         173.012
       148.031
 -14425844.089 8 -11404501.278 8  16672950.271    16672954.049       -1447.505
     -1133.711
 -48273865.118 9  30638386.248 8  16676669.335    16676671.837        1426.477
      1129.355
 88  3 30  5 23 38.0800000  0  4G 6G 9G11G13
   1510418.426 9  -8251145.451 8  17103168.565    17103170.316       -2663.044
     -2078.809
 -25736672.679 9 -20305851.789 8  15665026.660    15665026.660         157.422
       117.416
 -14382075.607 9 -11370395.963 8  16681280.288    16681281.737       -1459.459
     -1139.192
 -48316736.265 9  30604980.179 7  16668510.846    16668513.931        1416.078
      1101.648
 88  3 30  5 24  8.0800000  0  4G 6G 9G11G13
   1590839.471 9  -8188479.716 8  17118471.781    17118474.891       -2681.449
     -2093.032
 -25740961.064 9 -20309193.389 7  15664210.367    15664212.211         142.908
       114.619
 -14338000.324 9 -11336051.591 8  16689666.896    16689668.988       -1465.567
     -1142.075
 -48359160.058 9  30571922.684 7  16660438.463    16660441.921        1420.201
      1090.128
 88  3 30  5 24 38.0800000  0  4G 6G 9G11G13
   1671741.656 8  -8125439.069 7  17133867.961    17133869.844       -2704.184
     -2103.652
 -25744616.920 8 -20312042.117 6  15663515.254    15663515.061         125.357
        86.086
 -14293619.405 9 -11301469.065 8  16698113.292    16698115.060       -1473.015
     -1150.457
 -48401135.541 9  30539214.537 7  16652450.469    16652452.198        1401.485
      1085.629
 88  3 30  5 25  8.0800000  0  4G 6G 9G11G13
   1753122.678 9  -8062025.313 7  17149353.940    17149354.918       -2733.976
     -2111.904
 -25747639.668 8 -20314397.504 7  15662940.611    15662941.088          93.770
        61.970
 -14248935.741 9 -11266650.634 8  16706615.106    16706617.629       -1493.142
     -1163.960
 -48442663.417 9  30506855.193 7  16644547.705    16644550.058        1382.985
      1067.541
 88  3 30  5 25 38.0800000  0  4G 6G 9G11G13
   1834980.882 8  -7998239.725 8  17164930.408    17164931.709       -2730.013
     -2120.907
 -25750028.008 9 -20316258.545 6  15662486.200    15662486.675          70.382
        46.902
 -14203950.950 9 -11231597.553 9  16715175.060    16715178.850       -1501.508
     -1168.664
 -48483743.753 9  30474844.567 7  16636731.104    16636733.546        1360.011
      1068.578
 88  3 30  5 26  8.0800000  0  4G 6G 9G11G13
   1917314.817 8  -7934083.434 8  17180597.805    17180600.050       -2755.778
     -2138.455
 -25751780.434 9 -20317624.078 7  15662152.311    15662153.856          42.440
        32.610
 -14158667.033 9 -11196311.389 8  16723793.080    16723796.087       -1513.166
     -1193.575
 -48524376.533 9  30443182.674 7  16628998.806    16629001.380        1352.674
      1055.007
 88  3 30  5 26 38.0800000  0  4G 6G 9G11G13
   2000122.364 8  -7869558.101 7  17196355.742    17196359.391       -2782.444
     -2156.376
 -25752896.217 9 -20318493.525 7  15661939.374    15661941.477          35.358
         4.207
 -14113086.178 9 -11160793.851 7  16732467.165    16732469.524       -1525.207
     -1185.702
 -48564562.203 9  30411869.180 7  16621351.422    16621354.015        1328.073
      1033.334
 88  3 30  5 27  8.0800000  0  4G 6G 9G11G13
   2083400.900 9  -7804665.758 8  17212203.501    17212205.681       -2776.551
     -2165.429
 -25753375.128 9 -20318866.707 7  15661848.360    15661848.376           4.761
       -22.488
 -14067211.559 9 -11125047.412 9  16741196.523    16741199.760       -1522.743
     -1186.677
 -48604302.263 9  30380902.903 8  16613789.181    16613791.028        1308.672
      1033.930
 88  3 30  5 27 38.0800000  0  4G 6G 9G11G13
   2167149.095 9  -7739407.449 8  17228139.959    17228142.368       -2797.285
     -2185.500
 -25753215.434 9 -20318742.277 7  15661878.538    15661879.348          -2.655
       -15.155
 -14021045.004 9 -11089073.472 7  16749982.214    16749984.341       -1537.408
     -1199.583
 -48643596.179 9  30350284.281 8  16606311.634    16606313.555        1312.691
      1006.751
 88  3 30  5 28  8.0800000  0  4G 6G 9G11G13
   2251365.562 8  -7673784.245 8  17244166.584    17244168.417       -2817.037
     -2182.113
 -25752415.987 9 -20318119.335 7  15662030.415    15662032.675         -48.931
       -19.325
 -13974588.232 9 -11052873.390 8  16758821.968    16758824.699       -1547.974
     -1202.429
 -48682443.435 9  30320013.713 8  16598918.985    16598920.837        1295.450
       999.481
 88  3 30  5 28 38.0800000  0  4G 6G 9G11G13
   2336047.886 9  -7607798.050 8  17260280.766    17260282.026       -2820.307
     -2201.426
 -25750976.360 9 -20316997.553 6  15662304.771    15662306.408         -56.203
       -54.501
 -13927844.000 9 -11016449.319 8  16767717.677    16767720.216       -1563.054
     -1212.222
 -48720845.240 9  30290090.247 7  16591611.761    16591613.852        1286.304
       995.138
 88  3 30  5 29  8.0800000  0  4G 6G 9G11G13
   2421194.071 9  -7541450.386 8  17276483.946    17276485.221       -2842.220
     -2215.929
 -25748895.379 8 -20315376.013 8  15662700.456    15662701.068         -53.436
       -59.112
 -13880814.280 9 -10979802.793 8  16776666.505    16776669.531       -1564.680
     -1237.046
 -48758802.039 9  30260513.528 7  16584387.999    16584389.677        1247.062
       988.744
 88  3 30  5 29 38.0800000  0  4G 6G 9G11G13
   2506801.928 9  -7474742.987 8  17292774.573    17292775.631       -2854.939
     -2237.764
 -25746172.507 9 -20313254.297 8  15663218.539    15663219.715         -90.334
       -78.741
 -13833501.492 9 -10942935.702 7  16785670.237    16785673.351       -1578.013
     -1232.094
 -48796314.566 9  30231282.995 7  16577250.364    16577251.477        1239.685
       946.334
 88  3 30  5 30  8.0800000  0  4G 6G 9G11G13
   2592869.659 9  -7407677.245 7  17309151.821    17309154.946       -2882.770
     -2231.556
 -25742806.942 9 -20310631.790 8  15663859.818    15663861.500        -123.140
       -86.782
 -13785907.900 9 -10905849.789 8  16794726.538    16794729.963       -1587.184
     -1245.522
 -48833383.099 8  30202398.417 8  16570196.443    16570199.034        1221.958
       944.352
 88  3 30  5 30 38.0800000  0  4G 6G 9G11G13
   2679395.013 9  -7340254.913 8  17325617.550    17325618.356       -2878.934
     -2252.919
 -25738797.984 9 -20307507.926 7  15664622.450    15664624.104        -139.360
      -127.675
 -13738035.673 9 -10868546.771 8  16803837.128    16803839.250       -1600.182
     -1247.846
 -48870008.254 9  30173859.356 7  16563227.097    16563228.080        1198.299
       936.927
 88  3 30  5 31  8.0800000  0  4G 6G 9G11G13
   2766375.849 9  -7272477.657 8  17342170.105    17342171.460       -2899.157
     -2266.422
 -25734144.869 8 -20303882.131 7  15665507.797    15665508.681        -174.048
      -132.621
 -13689887.228 9 -10831028.501 9  16812998.682    16813001.415       -1607.096
     -1259.217
 -48906190.233 9  30145665.612 8  16556342.194    16556343.067        1197.055
       941.109
 88  3 30  5 31 38.0800000  0  4G 6G 9G11G13
   2853810.869 9  -7204346.490 8  17358808.077    17358809.303       -2929.101
     -2266.907
 -25728846.392 8 -20299753.443 7  15666516.209    15666515.771        -173.482
      -125.363
 -13641464.328 8 -10793296.377 9  16822212.972    16822215.765       -1631.689
     -1245.590
 -48941928.868 8  30117817.342 8  16549540.776    16549542.925        1189.487
       919.218
 88  3 30  5 32  8.0800000  0  4G 6G 9G11G13
   2941699.100 9  -7135862.161 8  17375533.528    17375533.345       -2933.606
     -2280.453
 -25722900.462 8 -20295120.274 7  15667648.118    15667648.234        -198.761
      -155.842
 -13592767.871 9 -10755351.095 8  16831479.401    16831482.570       -1628.706
     -1264.170
 -48977224.187 9  30090314.522 7  16542824.281    16542827.694        1164.663
       907.790
 88  3 30  5 32 38.0800000  0  4G 6G 9G11G13
   3030037.090 9  -7067027.383 7  17392343.172    17392344.374       -2962.593
     -2286.548
 -25716307.919 8 -20289983.225 7  15668902.333    15668902.547        -229.430
      -180.057
 -13543801.717 8 -10717195.673 7  16840797.634    16840800.394       -1638.132
     -1272.707
 -49012077.506 9  30063156.112 8  16536190.671    16536194.207        1156.226
       913.333
 88  3 30  5 33  8.0800000  0  4G 6G 9G11G13
   3118821.834 9  -6997844.490 8  17409238.199    17409239.899       -2973.590
     -2312.870
 -25709068.829 8 -20284342.372 6  15670280.208    15670280.516        -249.470
      -187.178
 -13494568.944 9 -10678832.487 9  16850166.457    16850169.146       -1639.304
     -1275.342
 -49046490.462 9  30036340.845 7  16529643.403    16529644.704        1135.524
       895.748
 88  3 30  5 33 38.0800000  0  4G 6G 9G11G13
   3208051.974 8  -6928314.550 9  17426218.045    17426218.894       -2990.774
     -2315.703
 -25701182.075 9 -20278196.870 7  15671780.805    15671781.859        -272.595
      -205.720
 -13445070.846 9 -10640262.534 8  16859585.784    16859589.133       -1657.295
     -1295.207
 -49080463.138 9  30009868.652 8  16523179.392    16523180.723        1130.365
       869.893
 88  3 30  5 34  8.0800000  0  4G 6G 9G11G13
   3297725.955 9  -6858438.746 8  17443281.923    17443283.266       -2990.910
     -2327.541
 -25692646.356 8 -20271545.671 7  15673405.281    15673405.147        -308.297
      -229.108
 -13395309.166 9 -10601487.207 9  16869055.294    16869057.401       -1665.309
     -1295.599
 -49113994.884 9  29983740.050 8  16516797.242    16516799.597        1107.861
       884.830
 88  3 30  5 34 38.0800000  0  4G 6G 9G11G13
   3387841.015 9  -6788219.248 7  17460430.538    17460431.577       -3024.043
     -2338.819
 -25683461.715 8 -20264388.807 7  15675152.924    15675151.950        -302.196
      -236.633
 -13345286.512 8 -10562508.527 7  16878573.178    16878577.017       -1676.864
     -1285.122
 -49147087.488 9  29957953.623 7  16510499.865    16510502.743        1086.737
       859.646
 88  3 30  5 35  8.0800000  0  4G 6G 9G11G13
   3478395.054 9  -6717657.675 8  17477662.610    17477665.108       -3029.976
     -2351.576
 -25673627.537 9 -20256725.820 7  15677023.766    15677024.638        -340.449
      -242.903
 -13295005.146 8 -10523328.266 8  16888141.869    16888145.259       -1681.098
     -1306.902
 -49179741.655 9  29932508.828 7  16504286.630    16504288.840        1071.897
       855.508
 88  3 30  5 35 38.0800000  0  4G 6G 9G11G13
   3569386.303 9  -6646755.440 8  17494978.325    17494979.369       -3049.896
     -2365.550
 -25663142.942 8 -20248556.027 8  15679019.029    15679020.339        -366.039
      -299.517
 -13244466.726 9 -10483947.677 8  16897760.073    16897762.044       -1685.332
     -1302.148
 -49211957.486 9  29907405.569 8  16498155.875    16498156.983        1064.130
       826.638
 88  3 30  5 36  8.0800000  0  4G 6G 9G11G13
   3660812.404 8  -6575514.350 8  17512375.516    17512377.569       -3050.439
     -2377.046
 -25652007.756 8 -20239879.260 6  15681136.659    15681138.603        -367.721
      -307.495
 -13193673.930 9 -10444368.889 8  16907425.200    16907428.257       -1686.138
     -1341.755
 -49243735.175 9  29882643.741 8  16492108.167    16492110.461        1051.004
       813.335
 88  3 30  5 36 38.0800000  0  4G 6G 9G11G13
   3752671.222 9  -6503936.083 8  17529855.735    17529856.679       -3078.883
     -2387.609
 -25640221.362 9 -20230695.059 7  15683380.581    15683381.935        -385.807
      -315.343
 -13142628.817 8 -10404593.478 8  16917138.254    16917140.728       -1698.283
     -1320.976
 -49275075.911 9  29858222.362 7  16486144.799    16486148.016        1039.433
       792.898
 88  3 30  5 37  8.0800000  0  4G 6G 9G11G13
   3844961.118 9  -6432021.905 7  17547417.698    17547419.590       -3096.267
     -2407.394
 -25627782.699 8 -20221002.604 6  15685748.791    15685749.790        -431.461
      -332.350
 -13091332.887 9 -10364622.639 8  16926900.255    16926903.208       -1715.571
     -1323.729
 -49305979.342 8  29834141.782 8  16480263.541    16480266.888        1040.016
       796.234
 88  3 30  5 37 38.0800000  0  4G 6G 9G11G13
   3937678.993 9  -6359774.239 8  17565061.834    17565063.550       -3105.797
     -2410.824
 -25614692.163 8 -20210802.193 7  15688239.231    15688239.561        -450.918
      -354.204
 -13039789.379 9 -10324458.881 9  16936708.103    16936710.184       -1720.667
     -1325.823
 -49336447.495 9  29810400.365 8  16474465.710    16474468.042         993.804
       783.707
 88  3 30  5 38  8.0800000  0  4G 6G 9G11G13
   4030822.550 9  -6287194.880 7  17582786.732    17582787.300       -3108.205
     -2427.676
 -25600949.533 8 -20200093.665 7  15690853.472    15690854.276        -461.755
      -364.395
 -12988000.383 9 -10284103.829 8  16946564.260    16946564.878       -1722.262
     -1335.280
 -49366480.726 9  29786997.860 8  16468750.478    16468754.093        1003.740
       785.112
 88  3 30  5 38 38.0800000  0  4G 6G 9G11G13
   4124390.231 9  -6214285.018 8  17600591.336    17600593.095       -3132.550
     -2430.646
 -25586553.949 9 -20188876.327 7  15693592.878    15693594.844        -491.499
      -415.304
 -12935967.370 8 -10243558.636 9  16956465.706    16956468.214       -1739.893
     -1355.928
 -49396078.971 9  29763934.288 7  16463118.041    16463121.629         981.221
       766.918
 88  3 30  5 39  8.0800000  0  4G 6G 9G11G13
   4218379.681 9  -6141046.509 8  17618477.426    17618478.718       -3130.804
     -2457.688
 -25571504.988 9 -20177149.873 7  15696456.458    15696458.751        -505.534
      -400.565
 -12883692.631 9 -10202825.086 8  16966412.372    16966414.943       -1754.614
     -1346.241
 -49425243.141 9  29741208.981 7  16457568.702    16457570.803         972.553
       766.358
 88  3 30  5 39 38.0800000  0  4G 6G 9G11G13
   4312787.739 9  -6067481.821 7  17636442.337    17636443.279       -3164.528
     -2462.603
 -25555803.323 8 -20164914.825 7  15699443.313    15699447.793        -545.119
      -451.860
 -12831179.067 9 -10161905.430 9  16976406.241    16976408.330       -1737.804
     -1360.253
 -49453975.099 9  29718820.438 9  16452100.677    16452103.756         947.776
       753.421
 88  3 30  5 40  8.0800000  0  4G 6G 9G11G13
   4407611.800 9  -5993592.969 7  17654487.279    17654488.071       -3169.033
     -2477.952
 -25539448.988 8 -20152171.186 7  15702556.985    15702558.860        -549.888
      -409.358
 -12778429.247 9 -10120801.687 8  16986444.150    16986446.402       -1765.945
     -1360.048
 -49482276.035 8  29696767.755 8  16446716.368    16446717.608         940.472
       738.266
 88  3 30  5 40 38.0800000  0  4G 6G 9G11G13
   4502850.512 9  -5919381.005 8  17672611.185    17672613.260       -3187.007
     -2470.277
 -25522440.670 9 -20138917.964 7  15705793.109    15705795.186        -577.415
      -456.769
 -12725444.184 8 -10079514.632 8  16996526.206    16996529.098       -1779.262
     -1377.795
 -49510145.337 9  29675051.437 7  16441413.360    16441413.681         913.351
       708.663
 88  3 30  5 41  8.0800000  0  4G 6G 9G11G13
   4598501.882 9  -5844847.499 9  17690812.891    17690814.920       -3186.792
     -2478.784
 -25504777.844 8 -20125154.734 7  15709153.820    15709155.780        -592.263
      -464.629
 -12672226.232 9 -10038046.106 9  17006653.397    17006656.304       -1777.006
     -1385.307
 -49537583.729 9  29653670.876 7  16436190.977    16436194.075         912.370
       708.465
 88  3 30  5 41 38.0800000  0  4G 6G 9G11G13
   4694563.365 9  -5769994.430 8  17709092.281    17709094.556       -3199.248
     -2502.819
 -25486460.795 8 -20110881.719 7  15712639.961    15712640.515        -606.091
      -466.612
 -12618777.472 8  -9996397.721 9  17016824.940    17016827.084       -1796.989
     -1371.612
 -49564591.821 9  29632625.624 7  16431051.878    16431053.754         910.520
       698.914
 88  3 30  5 42  8.0800000  0  4G 6G 9G11G13
   4791031.956 9  -5694824.130 8  17727449.832    17727451.659       -3207.119
     -2516.595
 -25467489.835 8 -20096099.162 7  15716249.143    15716251.358        -636.059
      -492.840
 -12565100.773 9  -9954571.737 8  17027038.751    17027041.545       -1792.149
     -1395.417
 -49591171.415 9  29611914.263 7  16425994.464    16425996.745         872.211
       674.836
 88  3 30  5 42 38.0800000  0  4G 6G 9G11G13
   4887905.353 9  -5619338.400 9  17745883.896    17745886.344       -3225.547
     -2515.539
 -25447864.889 8 -20080807.018 7  15719985.103    15719986.821        -673.219
      -503.466
 -12511198.250 9  -9912569.785 8  17037296.643    17037299.049       -1777.341
     -1397.816
 -49617323.326 9  29591536.166 8  16421017.435    16421019.635         874.659
       687.810
 88  3 30  5 43  8.0800000  0  4G 6G 9G11G13
   4985182.632 9  -5543537.958 8  17764395.112    17764396.680       -3265.587
     -2534.578
 -25427584.480 8 -20065004.090 7  15723843.028    15723846.565        -681.457
      -536.535
 -12457070.228 9  -9870392.109 7  17047596.002    17047600.073       -1798.154
     -1395.082
 -49643046.795 9  29571491.892 8  16416122.011    16416123.723         870.887
       654.131
 88  3 30  5 43 38.0800000  0  4G 6G 9G11G13
   5082860.437 9  -5467425.425 9  17782983.026    17782984.513       -3260.419
     -2538.374
 -25406649.328 8 -20048691.007 7  15727828.414    15727828.927        -709.526
      -549.721
 -12402720.007 9  -9828041.294 8  17057938.731    17057940.621       -1811.040
     -1401.681
 -49668343.404 9  29551780.269 7  16411308.349    16411309.795         850.792
       651.422
 88  3 30  5 44  8.0800000  0  4G 6G 9G11G13
   5180936.093 9  -5391002.862 8  17801645.405    17801647.623       -3278.067
     -2540.543
 -25385059.782 9 -20031867.987 7  15731935.950    15731938.326        -722.501
      -565.896
 -12348149.735 9  -9785519.007 9  17068323.134    17068325.166       -1827.459
     -1431.345
 -49693214.056 9  29532400.553 8  16406574.359    16406578.404         828.073
       649.825
 88  3 30  5 44 38.0800000  0  4G 6G 9G11G13
   5279407.126 8  -5314272.221 7  17820383.527    17820385.830       -3292.229
     -2552.753
 -25362816.022 8 -20014535.197 7  15736168.868    15736169.775        -729.382
      -575.875
 -12293361.806 9  -9742827.122 9  17078749.308    17078752.041       -1817.898
     -1423.615
 -49717660.680 9  29513351.240 8  16401923.828    16401925.975         816.136
       624.784
 88  3 30  5 45  8.0800000  0  4G 6G 9G11G13
   5378271.214 9  -5237235.312 8  17839197.746    17839199.705       -3296.695
     -2565.783
 -25339917.783 9 -19996692.428 7  15740526.823    15740527.874        -791.104
      -606.316
 -12238358.506 9  -9699967.417 9  17089215.124    17089218.713       -1833.416
     -1424.181
 -49741683.824 9  29494631.923 8  16397351.524    16397354.535         792.699
       613.201
 88  3 30  5 45 38.0800000  0  4G 6G 9G11G13
   5477525.551 9  -5159894.311 8  17858084.355    17858087.286       -3307.923
     -2571.767
 -25316365.682 9 -19978340.154 7  15745009.657    15745011.031        -800.849
      -614.960
 -12183142.112 9  -9656941.670 8  17099723.054    17099726.529       -1840.944
     -1430.494
 -49765284.647 9  29476241.686 7  16392860.686    16392863.363         792.795
       604.446
 88  3 30  5 46  8.0800000  0  4G 6G 9G11G13
   5577167.761 9  -5082251.057 7  17877046.030    17877048.103       -3324.406
     -2613.045
 -25292159.541 9 -19959478.237 7  15749615.214    15749616.810        -808.145
      -642.325
 -12127714.733 9  -9613751.515 8  17110271.370    17110274.073       -1855.848
     -1442.424
 -49788463.593 9  29458180.183 7  16388449.970    16388453.284         765.913
       598.443
 88  3 30  5 46 38.0800000  0  4G 6G 9G11G13
   5677196.019 9  -5004306.997 8  17896080.336    17896083.147       -3336.670
     -2589.818
 -25267299.191 9 -19940106.544 7  15754345.095    15754346.892        -862.618
      -662.886
 -12072077.757 9  -9570398.040 7  17120858.553    17120860.689       -1846.829
     -1462.284
 -49811221.329 9  29440446.887 7  16384119.840    16384122.918         761.216
       580.622
 88  3 30  5 47  8.0800000  0  4G 6G 9G11G13
   5777608.232 8  -4926063.747 8  17915189.366    17915191.632       -3361.726
     -2628.692
 -25241784.185 9 -19920224.729 7  15759199.755    15759202.316        -849.022
      -673.071
 -12016233.109 8  -9526882.744 9  17131484.757    17131486.801       -1870.122
     -1455.933
 -49833558.567 8  29423041.261 6  16379868.571    16379871.212         723.896
       588.731
 88  3 30  5 47 38.0800000  0  4G 6G 9G11G13
   5878400.116 9  -4847524.652 9  17934369.137    17934371.500       -3354.485
     -2641.927
 -25215616.268 9 -19899834.156 8  15764181.182    15764182.630        -874.619
      -699.753
 -11960184.527 9  -9483208.534 8  17142149.665    17142153.459       -1848.783
     -1454.050
 -49855477.299 9  29405961.751 7  16375697.958    16375700.268         741.663
       555.699
 88  3 30  5 48  8.0800000  0  4G 6G 9G11G13
   5979569.441 9  -4768691.446 8  17953620.852    17953623.499       -3376.095
     -2629.692
 -25188795.768 8 -19878935.075 8  15769283.511    15769285.624        -897.793
      -728.392
 -11903933.815 9  -9439376.822 9  17152854.746    17152857.830       -1878.112
     -1456.840
 -49876978.763 9  29389207.369 9  16371605.640    16371609.474         724.056
       548.901
 88  3 30  5 48 38.0800000  0  4G 6G 9G11G13
   6081114.745 9  -4689565.278 8  17972945.052    17972947.091       -3378.950
     -2643.729
 -25161321.660 9 -19857526.691 7  15774512.446    15774513.886        -919.076
      -722.135
 -11847481.755 8  -9395388.217 9  17163596.207    17163600.572       -1892.498
     -1480.223
 -49898062.719 9  29372778.329 7  16367593.911    16367596.408         692.342
       536.535
 88  3 30  5 49  8.0800000  0  4G 6G 9G11G13
   6183033.642 9  -4610147.993 7  17992338.455    17992342.049       -3424.587
     -2649.234
 -25133194.352 8 -19835609.319 8  15779864.139    15779866.978        -948.749
      -747.754
 -11790830.569 9  -9351244.445 9  17174377.390    17174380.519       -1889.372
     -1476.420
 -49918730.408 9  29356673.637 8  16363660.896    16363662.878         682.804
       531.167
 88  3 30  5 49 38.0800000  0  4G 6G 9G11G13
   6285323.079 9  -4530441.967 8  18011804.497    18011805.143       -3424.109
     -2650.073
 -25104414.424 8 -19813183.423 7  15785341.158    15785344.077        -966.380
      -743.914
 -11733982.763 9  -9306947.460 9  17185195.387    17185197.733       -1887.650
     -1479.372
 -49938983.395 8  29340892.103 7  16359807.265    16359809.770         680.388
       516.838
 88  3 30  5 50  8.0800000  0  4G 6G 9G11G13
   6387980.375 9  -4450449.300 7  18031338.743    18031340.913       -3410.345
     -2676.469
 -25074982.435 9 -19790249.422 8  15790942.065    15790944.290        -988.079
      -770.186
 -11676940.653 9  -9262499.060 9  17196050.130    17196052.802       -1915.050
     -1481.261
 -49958822.373 9  29325433.169 8  16356031.729    16356034.786         664.112
       495.201
 88  3 30  5 50 38.0800000  0  4G 6G 9G11G13
   6491003.220 9  -4370171.804 8  18050944.004    18050946.326       -3439.021
     -2687.834
 -25044898.542 8 -19766807.433 8  15796667.128    15796668.707       -1021.395
      -781.166
 -11619705.899 9  -9217900.572 8  17206941.803    17206944.493       -1911.222
     -1496.043
 -49978247.984 9  29310296.335 8  16352335.429    16352337.655         633.323
       494.406
 88  3 30  5 51  8.0800000  0  4G 6G 9G11G13
   6594388.551 9  -4289611.833 7  18070617.402    18070619.357       -3455.592
     -2684.286
 -25014163.481 8 -19742858.048 8  15802515.655    15802517.901       -1021.890
      -808.364
 -11562280.943 9  -9173153.853 8  17217869.048    17217872.425       -1905.999
     -1489.780
 -49997262.012 9  29295480.230 7  16348717.210    16348720.089         621.761
       476.168
 88  3 30  5 51 38.0800000  0  4G 6G 9G11G13
   6698133.787 9  -4208771.435 8  18090358.660    18090361.450       -3458.670
     -2693.004
 -24982777.846 9 -19718401.725 7  15808487.886    15808489.323       -1054.824
      -830.099
 -11504668.078 9  -9128260.724 9  17228832.056    17228835.558       -1911.302
     -1501.343
 -50015865.189 9  29280984.244 7  16345177.435    16345178.554         618.690
       473.503
 88  3 30  5 52  8.0800000  0  4G 6G 9G11G13
   6802237.144 9  -4127651.969 8  18110169.645    18110171.266       -3479.586
     -2721.035
 -24950741.352 9 -19693438.228 8  15814584.232    15814587.232       -1079.401
      -848.728
 -11446868.502 9  -9083222.104 8  17239830.764    17239834.209       -1931.573
     -1492.153
 -50034058.342 9  29266807.782 7  16341715.440    16341718.558         590.597
       470.321
 88  3 30  5 52 38.0800000  0  4G 6G 9G11G13
   6906695.571 8  -4046255.826 8  18130047.213    18130049.680       -3496.333
     -2707.998
 -24918054.754 9 -19667968.174 8  15820804.170    15820807.221       -1094.879
      -846.864
 -11388884.687 9  -9038039.919 9  17250865.170    17250868.720       -1954.076
     -1513.150
 -50051843.032 9  29252949.591 8  16338329.317    16338333.462         590.645
       463.200
 88  3 30  5 53  8.0800000  0  4G 6G 9G11G13
   7011505.844 9  -3964585.518 7  18149992.084    18149993.872       -3488.079
     -2717.878
 -24884719.431 8 -19641992.599 8  15827148.473    15827150.213       -1120.102
      -861.802
 -11330719.256 9  -8992716.204 8  17261934.165    17261936.184       -1934.962
     -1499.809
 -50069220.840 9  29239408.453 8  16335024.464    16335025.527         573.173
       464.331
 88  3 30  5 53 38.0800000  0  4G 6G 9G11G13
   7116666.885 9  -3882641.888 7  18170003.920    18170005.615       -3504.355
     -2744.597
 -24850734.171 9 -19615510.589 7  15833615.844    15833616.840       -1130.229
      -895.363
 -11272372.653 9  -8947251.327 8  17273037.307    17273039.755       -1957.122
     -1515.032
 -50086191.617 9  29226184.478 7  16331793.969    16331797.765         565.868
       435.338
 88  3 30  5 54  8.0800000  0  4G 6G 9G11G13
   7222175.156 9  -3800427.685 8  18190081.791    18190083.937       -3521.906
     -2744.312
 -24816100.461 8 -19588523.299 7  15840205.864    15840207.584       -1175.747
      -910.357
 -11213847.819 8  -8901647.561 8  17284173.514    17284176.728       -1950.575
     -1523.036
 -50102756.415 9  29213276.853 7  16328642.507    16328644.240         544.936
       438.202
 88  3 30  5 54 38.0800000  0  4G 6G 9G11G13
   7328027.916 9  -3717945.055 8  18210224.491    18210227.254       -3538.350
     -2761.076
 -24780819.171 9 -19561031.388 8  15846919.677    15846921.448       -1188.163
      -922.983
 -11155146.871 9  -8855906.561 9  17295343.550    17295348.240       -1962.816
     -1520.358
 -50118917.098 9  29200684.113 7  16325566.370    16325569.156         533.516
       395.054
 88  3 30  5 55  8.0800000  0  4G 6G 9G11G13
   7434222.077 8  -3635196.387 7  18230432.456    18230434.905       -3548.573
     -2769.931
 -24744891.365 9 -19533035.719 7  15853755.897    15853758.417       -1202.166
      -939.027
 -11096272.445 9  -8810030.389 8  17306547.285    17306550.298       -1973.661
     -1531.735
 -50134675.262 9  29188405.034 7  16322567.560    16322570.020         516.371
       410.489
 88  3 30  5 55 38.0800000  0  4G 6G 9G11G13
   7540754.894 9  -3552183.841 7  18250704.598    18250707.596       -3547.177
     -2776.754
 -24708317.602 9 -19504536.681 7  15860715.482    15860719.050       -1205.204
      -970.922
 -11037226.494 9  -8764020.559 8  17317782.615    17317786.578       -1972.529
     -1517.686
 -50150032.481 9  29176438.387 8  16319645.517    16319648.552         521.036
       397.160
 88  3 30  5 56  8.0800000  0  4G 6G 9G11G13
   7647624.392 9  -3468908.945 7  18271042.258    18271044.962       -3562.831
     -2775.467
 -24671098.157 8 -19475534.536 7  15867798.120    15867800.369       -1252.668
      -971.214
 -10978010.155 9  -8717877.961 9  17329052.892    17329055.616       -1985.694
     -1534.668
 -50164989.521 9  29164783.563 8  16316799.775    16316801.077         487.839
       389.983
 88  3 30  5 56 38.0800000  0  4G 6G 9G11G13
   7754827.136 9  -3385374.392 8  18291441.466    18291444.606       -3564.019
     -2783.962
 -24633234.413 9 -19446030.344 6  15875003.916    15875005.681       -1288.624
      -989.999
 -10918626.078 9  -8671604.654 8  17340352.206    17340355.463       -1985.399
     -1527.740
 -50179547.700 9  29153439.530 7  16314029.117    16314032.032         483.358
       383.216
 88  3 30  5 57  8.0800000  0  4G 6G 9G11G13
   7862361.143 9  -3301581.690 8  18311904.007    18311907.124       -3590.039
     -2794.917
 -24594726.270 8 -19416024.003 8  15882332.230    15882333.572       -1293.688
     -1005.751
 -10859075.650 9  -8625201.713 8  17351684.785    17351687.309       -1994.945
     -1547.102
 -50193707.443 9  29142405.976 7  16311335.031    16311337.471         464.961
       360.747
 88  3 30  5 57 38.0800000  0  4G 6G 9G11G13
   7970223.786 9  -3217532.916 8  18332430.204    18332432.854       -3603.675
     -2789.728
 -24555574.722 8 -19385516.321 7  15889781.900    15889784.085       -1308.711
     -1026.933
 -10799360.982 9  -8578670.822 9  17363048.157    17363051.471       -1990.902
     -1553.166
 -50207469.863 9  29131682.017 7  16308715.756    16308717.478         457.385
       350.799
 88  3 30  5 58  8.0800000  0  4G 6G 9G11G13
   8078412.062 9  -3133230.394 7  18353016.890    18353020.603       -3612.774
     -2802.765
 -24515780.612 8 -19354507.936 7  15897354.763    15897356.541       -1347.547
     -1043.102
 -10739484.579 9  -8532013.887 9  17374441.221    17374445.728       -1991.795
     -1558.436
 -50220836.232 9  29121266.673 8  16306172.570    16306174.842         428.271
       338.297
 88  3 30  5 58 38.0800000  0  4G 6G 9G11G13
   8186923.206 9  -3048676.294 8  18373665.941    18373669.629       -3625.007
     -2819.318
 -24475344.914 9 -19322999.602 7  15905050.062    15905050.802       -1347.076
     -1079.421
 -10679447.990 8  -8485232.126 8  17385866.998    17385869.968       -1999.642
     -1550.811
 -50233808.104 9  29111158.728 7  16303703.261    16303705.657         425.312
       330.505
 88  3 30  5 59  8.0800000  0  4G 6G 9G11G13
   8295754.181 9  -2963872.976 7  18394376.787    18394379.257       -3636.641
     -2825.066
 -24434268.898 8 -19290992.335 8  15912865.699    15912866.959       -1385.018
     -1059.320
 -10619253.289 8  -8438327.179 8  17397321.485    17397324.121       -2005.128
     -1563.419
 -50246387.596 9  29101356.539 7  16301308.977    16301310.591         399.874
       342.317
 88  3 30  5 59 38.0800000  0  4G 6G 9G11G13
   8404902.747 9  -2878822.183 8  18415147.030    18415148.300       -3645.533
     -2835.058
 -24392552.792 9 -19258486.281 7  15920803.135    15920805.365       -1372.865
     -1092.582
 -10558901.912 9  -8391300.130 8  17408806.327    17408809.130       -2007.807
     -1562.400
 -50258575.148 8  29091859.744 7  16298990.248    16298992.509         396.517
       319.270
 88  3 30  6  0  8.0800000  0  4G 6G 9G11G13
   8514365.902 8  -2793526.261 8  18435976.194    18435979.299       -3670.421
     -2837.810
 -24350198.117 8 -19225482.658 7  15928864.041    15928865.250       -1432.091
     -1092.613
 -10498396.293 9  -8344152.899 8  17420320.249    17420323.000       -2035.670
     -1585.807
 -50270371.778 9  29082667.577 7  16296745.934    16296748.547         387.538
       302.736
 88  3 30  6  0 38.0800000  0  4G 6G 9G11G13
   8624141.282 9  -2707987.049 8  18456867.395    18456869.537       -3672.510
     -2850.710
 -24307205.188 9 -19191981.670 8  15937045.358    15937047.912       -1460.344
     -1130.244
 -10437738.124 8  -8296886.797 9  17431862.098    17431865.353       -2019.362
     -1567.837
 -50281778.744 9  29073779.045 7  16294575.041    16294577.531         368.320
       293.614
 88  3 30  6  1  8.0800000  0  4G 6G 9G11G13
   8734225.252 9  -2622207.367 8  18477814.535    18477817.844       -3667.813
     -2864.356
 -24263575.911 9 -19157984.853 8  15945347.200    15945349.930       -1460.591
     -1143.268
 -10376930.299 9  -8249504.081 9  17443433.374    17443436.424       -2013.334
     -1584.310
 -50292798.288 9  29065192.408 8  16292478.746    16292480.734         366.422
       270.157
 88  3 30  6  1 38.0800000  0  4G 6G 9G11G13
   8844615.307 9  -2536189.176 9  18498821.580    18498823.904       -3688.012
     -2882.177
 -24219311.054 9 -19123492.771 8  15953770.995    15953772.257       -1492.249
     -1155.248
 -10315973.990 9  -8202005.671 8  17455034.730    17455037.073       -2030.152
     -1584.677
 -50303431.225 9  29056906.999 7  16290454.952    16290456.439         335.976
       270.399
 88  3 30  6  2  8.0800000  0  4G 6G 9G11G13
   8955309.989 9  -2449933.622 8  18519886.649    18519889.474       -3692.454
     -2865.760
 -24174410.519 9 -19088505.346 8  15962315.746    15962317.368       -1504.322
     -1173.150
 -10254870.337 9  -8154392.436 9  17466660.833    17466664.152       -2050.558
     -1580.029
 -50313677.939 9  29048922.556 7  16288504.058    16288506.967         331.039
       253.995
 88  3 30  6  2 38.0800000  0  4G 6G 9G11G13
   9066305.550 8  -2363443.614 8  18541007.798    18541011.410       -3702.613
     -2894.909
 -24128876.192 9 -19053024.059 7  15970980.470    15970981.965       -1535.335
     -1188.542
 -10193621.904 9  -8106666.391 8  17478316.414    17478319.340       -2038.804
     -1584.540
 -50323540.252 9  29041237.641 8  16286628.362    16286631.347         312.371
       243.437
 88  3 30  6  3  8.0800000  0  4G 6G 9G11G13
   9177598.801 9  -2276721.645 8  18562185.276    18562189.887       -3722.701
     -2907.399
 -24082709.654 9 -19017050.157 8  15979765.763    15979766.894       -1544.226
     -1205.021
 -10132230.928 9  -8058829.269 8  17489997.726    17490001.229       -2049.154
     -1596.477
 -50333020.118 9  29033850.757 7  16284823.884    16284826.630         313.934
       253.709
 88  3 30  6  3 38.0800000  0  4G 6G 9G11G13
   9289187.072 8  -2189769.787 7  18583420.641    18583423.631       -3730.181
     -2885.706
 -24035911.892 9 -18980584.377 7  15988671.221    15988672.466       -1583.348
     -1213.248
 -10070698.973 9  -8010882.313 9  17501707.219    17501710.017       -2037.831
     -1605.561
 -50342118.763 9  29026760.908 7  16283092.475    16283095.294         286.686
       233.042
 88  3 30  6  4  8.0800000  0  4G 6G 9G11G13
   9401067.767 9  -2102590.063 8  18604711.082    18604713.668       -3735.125
     -2904.901
 -23988483.862 8 -18943627.493 8  15997696.053    15997698.314       -1592.838
     -1245.093
 -10009028.199 9  -7962827.164 9  17513442.651    17513446.568       -2056.331
     -1588.131
 -50350837.368 8  29019967.206 7  16281433.636    16281435.896         289.629
       234.999
 88  3 30  6  4 38.0800000  0  4G 6G 9G11G13
   9513237.334 9  -2015185.239 8  18626055.895    18626058.790       -3738.841
     -2923.791
 -23940427.503 9 -18906180.993 7  16006841.140    16006842.052       -1613.045
     -1264.027
  -9947220.804 9  -7914665.559 9  17525204.674    17525207.622       -2074.888
     -1598.682
 -50359177.754 9  29013468.197 7  16279846.867    16279849.317         266.551
       220.770
 88  3 30  6  5  8.0800000  0  4G 6G 9G11G13
   9625693.942 8  -1927556.756 8  18647455.696    18647458.684       -3745.515
     -2939.847
 -23891743.299 9 -18868245.272 8  16016105.554    16016106.721       -1628.220
     -1260.466
  -9885277.792 9  -7866398.293 9  17536991.836    17536994.668       -2060.789
     -1604.971
 -50367140.856 8  29007263.199 8  16278331.168    16278334.301         257.923
       210.424
 88  3 30  6  5 38.0800000  0  4G 6G 9G11G13
   9738434.556 9  -1839706.960 8  18668909.604    18668912.846       -3756.305
     -2918.925
 -23842432.377 8 -18829821.175 7  16025488.074    16025491.278       -1643.858
     -1270.626
  -9823201.380 8  -7818027.062 8  17548805.138    17548807.931       -2079.058
     -1618.132
 -50374727.560 9  29001351.487 7  16276887.818    16276890.009         245.929
       182.946
 88  3 30  6  6  8.0800000  0  4G 6G 9G11G13
   9851456.319 9  -1751638.095 8  18690417.415    18690420.428       -3773.011
     -2932.310
 -23792496.230 9 -18790909.885 7  16034990.998    16034992.026       -1652.063
     -1308.691
  -9760993.162 9  -7769553.134 9  17560641.961    17560645.111       -2074.784
     -1608.227
 -50381939.376 8  28995731.912 7  16275515.348    16275516.676         237.333
       191.546
 88  3 30  6  6 38.0800000  0  4G 6G 9G11G13
   9964755.609 9  -1663352.955 7  18711976.973    18711979.571       -3777.803
     -2933.447
 -23741936.595 9 -18751512.799 8  16044613.444    16044614.961       -1690.859
     -1304.472
  -9698655.849 9  -7720978.601 8  17572505.120    17572508.377       -2072.591
     -1617.305
 -50388778.617 9  28990402.632 8  16274213.886    16274217.741         232.524
       177.447
 88  3 30  6  7  8.0800000  0  4G 6G 9G11G13
  10078330.748 9  -1574852.877 7  18733590.112    18733593.072       -3801.176
     -2960.147
 -23690754.138 9 -18711630.373 7  16054352.524    16054354.498       -1721.121
     -1329.570
  -9636190.201 8  -7672304.068 8  17584392.100    17584394.156       -2059.808
     -1614.484
 -50395245.627 9  28985363.419 8  16272983.300    16272986.040         216.400
       166.237
 88  3 30  6  7 38.0800000  0  4G 6G 9G11G13
  10192178.617 9  -1486140.283 9  18755254.435    18755257.076       -3785.419
     -2962.459
 -23638950.365 9 -18671263.813 7  16064210.490    16064211.815       -1726.847
     -1360.626
  -9573598.262 9  -7623531.133 8  17596303.050    17596305.227       -2080.286
     -1612.446
 -50401341.944 8  28980613.057 7  16271822.972    16271826.032         191.464
       153.313
 88  3 30  6  8  8.0800000  0  4G 6G 9G11G13
  10306296.031 9  -1397217.657 8  18776970.171    18776972.929       -3817.572
     -2968.561
 -23586526.922 9 -18630414.381 7  16074185.776    16074187.497       -1775.514
     -1347.391
  -9510882.181 9  -7574661.462 9  17608237.417    17608240.813       -2088.907
     -1611.905
 -50407069.194 9  28976150.266 7  16270733.945    16270735.375         187.270
       154.506
 88  3 30  6  8 38.0800000  0  4G 6G 9G11G13
  10420679.596 9  -1308087.633 8  18798736.753    18798740.667       -3829.039
     -2976.011
 -23533485.455 9 -18589083.369 8  16084279.701    16084280.976       -1762.524
     -1390.701
  -9448043.878 9  -7525696.567 8  17620194.908    17620198.144       -2094.584
     -1625.899
 -50412429.709 9  28971973.256 7  16269713.075    16269715.376         172.589
       139.506
 88  3 30  6  9  8.0800000  0  4G 6G 9G11G13
  10535327.181 9  -1218751.892 8  18820553.802    18820556.591       -3818.218
     -2972.090
 -23479827.223 8 -18547271.791 8  16094490.659    16094492.079       -1791.240
     -1414.916
  -9385085.234 8  -7476637.873 8  17632175.768    17632177.587       -2110.852
     -1622.525
 -50417424.166 9  28968081.466 8  16268762.863    16268764.305         161.194
       128.358
 88  3 30  6  9 38.0800000  0  4G 6G 9G11G13
  10650236.306 8  -1129212.329 7  18842420.294    18842423.301       -3829.924
     -2991.092
 -23425552.964 9 -18504980.156 8  16104819.429    16104820.148       -1799.693
     -1411.399
  -9322007.278 9  -7427486.228 8  17644178.912    17644182.162       -2108.300
     -1634.480
 -50422053.463 9  28964474.241 8  16267882.835    16267883.847         150.372
       120.448
 88  3 30  6 10  8.0800000  0  4G 6G 9G11G13
  10765403.041 8  -1039472.056 7  18864336.524    18864338.273       -3836.311
     -2996.448
 -23370664.982 9 -18462210.308 7  16115263.081    16115264.335       -1839.971
     -1424.808
  -9258812.729 9  -7378243.725 8  17656204.954    17656207.991       -2104.353
     -1638.960
 -50426320.236 9  28961149.489 7  16267070.503    16267071.565         134.216
       119.466
 88  3 30  6 10 38.0800000  0  4G 6G 9G11G13
  10880825.052 9   -949532.866 8  18886300.411    18886302.702       -3853.440
     -3005.309
 -23315164.975 9 -18418963.574 8  16125824.828    16125826.159       -1859.245
     -1451.851
  -9195502.681 8  -7328911.222 8  17668252.118    17668254.294       -2122.000
     -1659.683
 -50430225.470 9  28958106.447 8  16266327.068    16266329.584         140.644
        91.877
 88  3 30  6 11  8.0800000  0  4G 6G 9G11G13
  10996498.975 9   -859397.356 8  18908311.668    18908314.879       -3842.053
     -3026.977
 -23259054.365 9 -18375241.029 8  16136502.035    16136502.919       -1888.846
     -1454.523
  -9132079.260 9  -7279490.369 9  17680321.526    17680323.364       -2122.622
     -1649.269
 -50433770.730 9  28955343.919 7  16265652.445    16265654.944         108.212
        86.055
 88  3 30  6 11 38.0800000  0  4G 6G 9G11G13
  11112422.562 8   -769067.323 9  18930371.652    18930373.065       -3864.636
     -3005.763
 -23202334.353 9 -18331043.638 7  16147295.654    16147298.182       -1888.694
     -1477.501
  -9068543.817 9  -7229982.245 9  17692412.029    17692414.524       -2111.618
     -1653.078
 -50436956.843 9  28952861.241 8  16265045.938    16265048.754         101.530
        60.833
 88  3 30  6 12  8.0800000  0  4G 6G 9G11G13
  11228592.851 8   -678545.044 8  18952477.137    18952480.869       -3868.887
     -3012.014
 -23145006.675 9 -18286372.730 7  16158204.627    16158207.891       -1922.139
     -1500.020
  -9004898.119 9  -7180388.202 8  17704523.501    17704525.622       -2110.397
     -1644.845
 -50439785.911 9  28950656.778 7  16264507.858    16264509.405          86.434
        78.225
 88  3 30  6 12 38.0800000  0  4G 6G 9G11G13
  11345006.760 8   -587832.950 7  18974629.726    18974633.980       -3884.381
     -3033.582
 -23087072.942 9 -18241229.574 8  16169229.583    16169231.126       -1941.214
     -1511.093
  -8941144.225 8  -7130709.837 9  17716654.710    17716657.187       -2123.579
     -1653.544
 -50442259.105 9  28948729.623 8  16264036.804    16264039.205          70.031
        61.429
 88  3 30  6 13  8.0800000  0  4G 6G 9G11G13
  11461661.095 9   -496933.492 9  18996829.669    18996832.001       -3879.046
     -3020.601
 -23028535.007 9 -18195615.611 8  16180369.098    16180369.168       -1951.213
     -1507.682
  -8877284.129 9  -7080948.734 8  17728806.785    17728809.338       -2126.984
     -1666.854
 -50444377.623 9  28947078.836 8  16263633.634    16263635.434          68.340
        61.243
 88  3 30  6 13 38.0800000  0  4G 6G 9G11G13
  11578553.391 9   -405848.610 8  19019073.120    19019075.570       -3894.357
     -3039.528
 -22969394.390 9 -18149532.027 7  16191622.266    16191624.089       -1972.664
     -1538.048
  -8813318.752 9  -7031105.592 9  17740979.440    17740983.192       -2126.538
     -1657.421
 -50446143.443 9  28945702.876 7  16263297.623    16263299.911          45.047
        42.279
 88  3 30  6 14  8.0800000  0  4G 6G 9G11G13
  11695680.777 8   -314580.553 8  19041360.983    19041364.375       -3908.950
     -3046.277
 -22909652.693 9 -18102980.073 7  16202991.016    16202991.934       -1972.058
     -1564.215
  -8749250.109 9  -6981181.980 8  17753171.257    17753173.778       -2118.188
     -1652.028
 -50447557.580 9  28944600.955 9  16263029.472    16263030.448          43.835
        49.052
 88  3 30  6 14 38.0800000  0  4G 6G 9G11G13
  11813039.852 9   -223131.952 8  19063693.442    19063697.747       -3904.596
     -3061.768
 -22849311.946 9 -18055961.326 7  16214474.452    16214474.152       -2031.930
     -1586.317
  -8685079.759 8  -6931179.114 9  17765382.693    17765385.104       -2146.282
     -1665.692
 -50448622.260 9  28943771.347 7  16262825.966    16262828.277          26.148
        20.307
 88  3 30  6 15  8.0800000  0  4G 6G 9G11G13
  11930627.780 9   -131505.018 8  19086070.349    19086073.578       -3908.415
     -3064.104
 -22788374.187 9 -18008477.390 7  16226069.696    16226072.047       -2047.225
     -1587.976
  -8620810.137 9  -6881098.891 9  17777612.623    17777615.549       -2151.713
     -1671.607
 -50449339.176 9  28943212.713 8  16262689.628    16262692.500          24.003
        22.829
 88  3 30  6 15 38.0800000  0  4G 6G 9G11G13
  12048441.741 8    -39701.962 8  19108489.444    19108492.703       -3907.674
     -3064.073
 -22726840.740 9 -17960529.244 8  16237779.564    16237781.434       -2072.814
     -1598.564
  -8556442.267 9  -6830942.116 8  17789862.141    17789864.381       -2132.917
     -1679.182
 -50449709.327 9  28942924.291 7  16262619.195    16262621.588          13.971
         0.615
 88  3 30  6 16  8.0800000  0  4G 6G 9G11G13
  12166479.428 9     52275.433 8  19130952.576    19130954.438       -3920.425
     -3056.076
 -22664712.868 9 -17912117.928 8  16249602.057    16249602.177       -2072.958
     -1602.156
  -8491977.356 9  -6780709.723 8  17802129.278    17802130.984       -2144.217
     -1672.477
 -50449733.409 9  28942905.530 7  16262614.184    16262616.997          -1.627
        -0.124
 88  3 30  6 16 38.0800000  0  4G 6G 9G11G13
  12284736.523 8    144423.790 7  19153456.702    19153458.678       -3960.783
     -3066.552
 -22601993.836 9 -17863245.963 6  16261537.100    16261537.431       -2094.010
     -1633.169
  -8427418.448 9  -6730404.081 9  17814413.921    17814416.743       -2153.475
     -1676.342
 -50449414.491 9  28943154.052 7  16262674.936    16262677.835         -18.126
       -12.359
 88  3 30  6 17  8.0800000  0  4G 6G 9G11G13
  12403210.416 9    236741.081 8  19176000.696    19176003.404       -3956.022
     -3065.179
 -22538685.174 9 -17813914.554 7  16273583.712    16273585.126       -2117.726
     -1648.268
  -8362766.941 9  -6680026.282 8  17826716.617    17826718.958       -2156.505
     -1683.345
 -50448754.136 9  28943668.620 8  16262801.201    16262803.171         -25.797
       -16.311
 88  3 30  6 17 38.0800000  0  4G 6G 9G11G13
  12521898.424 9    329225.211 9  19198585.670    19198588.673       -3971.349
     -3092.625
 -22474788.485 9 -17764124.937 7  16285743.589    16285745.335       -2140.437
     -1671.738
  -8298023.982 9  -6629577.228 8  17839037.068    17839040.256       -2153.323
     -1689.087
 -50447753.347 9  28944448.456 8  16262991.220    16262993.989         -42.902
       -34.679
 88  3 30  6 18  8.0800000  0  4G 6G 9G11G13
  12640797.855 9    421874.079 9  19221212.367    19221214.992       -3960.544
     -3098.789
 -22410305.278 9 -17713878.301 7  16298013.670    16298016.486       -2151.170
     -1699.203
  -8233190.992 9  -6579058.019 9  17851373.751    17851376.652       -2172.765
     -1671.806
 -50446414.214 9  28945491.946 8  16263246.338    16263247.017         -66.498
       -30.497
 88  3 30  6 18 38.0800000  0  4G 6G 9G11G13
  12759906.489 9    514685.974 7  19243876.705    19243880.868       -3966.030
     -3111.832
 -22345237.099 9 -17663175.849 7  16310396.197    16310397.455       -2177.286
     -1719.193
  -8168269.000 8  -6528469.465 9  17863729.076    17863731.436       -2157.813
     -1678.082
 -50444736.413 9  28946799.332 8  16263564.835    16263567.950         -66.195
       -24.271
 88  3 30  6 19  8.0800000  0  4G 6G 9G11G13
  12879220.510 9    607657.914 8  19266582.433    19266584.849       -3991.181
     -3106.712
 -22279586.443 9 -17612019.499 8  16322889.186    16322890.252       -2196.417
     -1703.621
  -8103260.130 9  -6477813.197 9  17876098.902    17876101.437       -2175.022
     -1686.694
 -50442722.615 9  28948368.535 8  16263948.713    16263950.627         -71.179
       -50.164
 88  3 30  6 19 38.0800000  0  4G 6G 9G11G13
  12998735.365 9    700786.326 7  19289325.764    19289327.715       -3990.918
     -3095.950
 -22213357.072 9 -17560412.213 7  16335492.235    16335493.349       -2220.332
     -1726.873
  -8038167.807 8  -6427091.914 8  17888485.212    17888488.650       -2177.135
     -1696.929
 -50440376.457 9  28950196.722 7  16264394.819    16264397.362         -78.228
       -31.951
 88  3 30  6 20  8.0800000  0  4G 6G 9G11G13
  13118449.727 8    794070.200 8  19312105.857    19312107.920       -4003.039
     -3121.880
 -22146549.370 9 -17508354.274 7  16348205.533    16348207.291       -2233.298
     -1749.876
  -7972992.091 9  -6376305.636 9  17900887.169    17900891.855       -2171.991
     -1685.570
 -50437697.274 9  28952284.392 8  16264904.874    16264907.400         -87.630
       -91.834
 88  3 30  6 20 38.0800000  0  4G 6G 9G11G13
  13238362.301 8    887508.539 7  19334925.770    19334927.583       -3995.814
     -3129.572
 -22079163.707 8 -17455845.977 7  16361028.437    16361029.857       -2268.497
     -1761.670
  -7907732.897 9  -6325454.326 8  17913306.553    17913310.186       -2190.811
     -1702.751
 -50434685.287 9  28954631.402 7  16265478.054    16265480.768        -102.781
       -79.449
 88  3 30  6 21  8.0800000  0  4G 6G 9G11G13
  13358467.936 9    981097.311 8  19357780.969    19357782.564       -4000.647
     -3107.296
 -22011204.407 9 -17402890.707 8  16373960.188    16373962.850       -2265.834
     -1777.733
  -7842393.814 9  -6274540.743 9  17925740.575    17925743.347       -2172.741
     -1703.907
 -50431344.331 9  28957234.749 7  16266113.201    16266115.778        -116.665
       -81.444
 88  3 30  6 21 38.0800000  0  4G 6G 9G11G13
  13478763.000 8   1074833.692 8  19380672.293    19380673.909       -3998.653
     -3115.554
 -21942673.888 9 -17349490.312 8  16387000.787    16387003.010       -2287.947
     -1767.318
  -7776977.028 8  -6223566.630 8  17938188.354    17938191.398       -2173.467
     -1706.628
 -50427676.775 9  28960092.596 8  16266811.164    16266813.572        -128.515
      -105.951
 88  3 30  6 22  8.0800000  0  4G 6G 9G11G13
  13599246.253 8   1168716.717 8  19403599.547    19403600.825       -4031.404
     -3125.869
 -21873572.579 8 -17295645.162 7  16400151.450    16400152.648       -2300.259
     -1798.195
  -7711482.624 9  -6172532.027 8  17950652.140    17950654.464       -2186.186
     -1713.308
 -50423682.395 9  28963205.096 7  16267571.862    16267573.843        -134.671
      -107.660
 88  3 30  6 22 38.0800000  0  4G 6G 9G11G13
  13719914.211 9   1262743.654 7  19426561.145    19426564.610       -4018.238
     -3135.401
 -21803903.390 9 -17241357.501 7  16413408.760    16413409.774       -2328.042
     -1810.983
  -7645912.507 9  -6121438.429 9  17963129.476    17963131.801       -2181.983
     -1694.934
 -50419363.443 9  28966570.529 8  16268393.254    16268396.496        -144.152
      -113.414
 88  3 30  6 23  8.0800000  0  4G 6G 9G11G13
  13840763.464 8   1356911.861 8  19449558.098    19449559.769       -4034.251
     -3140.403
 -21733668.652 9 -17186629.144 8  16426774.654    16426774.116       -2347.076
     -1805.800
  -7580268.418 9  -6070287.197 9  17975621.557    17975624.131       -2189.551
     -1694.039
 -50414721.378 9  28970187.715 8  16269277.369    16269278.474        -162.581
      -113.370
 88  3 30  6 23 38.0800000  0  4G 6G 9G11G13
  13961790.741 9   1451218.787 7  19472588.656    19472592.542       -4030.216
     -3150.581
 -21662870.845 9 -17131462.034 8  16440245.840    16440247.538       -2371.031
     -1854.280
  -7514552.650 9  -6019080.095 9  17988126.231    17988129.733       -2208.745
     -1708.225
 -50409758.756 9  28974054.698 8  16270221.738    16270223.624        -169.543
      -127.470
 88  3 30  6 24  8.0800000  0  4G 6G 9G11G13
  14082994.944 9   1545663.590 7  19495654.272    19495655.824       -4040.447
     -3159.218
 -21591510.329 9 -17075856.454 7  16453825.756    16453826.953       -2395.010
     -1874.612
  -7448764.570 9  -5967816.652 8  18000645.825    18000648.669       -2218.362
     -1694.337
 -50404474.949 9  28978171.950 8  16271226.919    16271228.780        -176.345
      -149.205
 88  3 30  6 24 38.0800000  0  4G 6G 9G11G13
  14204372.030 8   1640243.095 8  19518750.096    19518753.309       -4037.584
     -3135.426
 -21519590.462 9 -17019815.032 8  16467510.645    16467512.516       -2392.953
     -1869.889
  -7382906.452 9  -5916498.643 9  18013178.292    18013180.943       -2207.150
     -1697.960
 -50398872.939 9  28982537.153 8  16272292.592    16272295.422        -181.034
      -140.233
 88  3 30  6 25  8.0800000  0  4G 6G 9G11G13
  14325917.691 8   1734953.962 7  19541879.869    19541882.617       -4053.038
     -3163.686
 -21447114.669 9 -16963340.400 8  16481302.443    16481304.969       -2418.551
     -1884.255
  -7316981.343 9  -5865128.438 9  18025723.285    18025725.981       -2193.690
     -1717.782
 -50392955.781 9  28987147.928 8  16273418.274    16273420.456        -209.016
      -164.603
 88  3 30  6 25 38.0800000  0  4G 6G 9G11G13
  14447630.043 9   1829794.711 8  19565040.964    19565043.779       -4052.209
     -3151.290
 -21374084.182 9 -16906433.547 7  16495200.115    16495201.385       -2434.388
     -1893.203
  -7250989.671 9  -5813706.348 9  18038280.564    18038284.257       -2202.453
     -1707.821
 -50386723.687 9  28992004.109 7  16274604.326    16274606.880        -211.831
      -164.336
 88  3 30  6 26  8.0800000  0  4G 6G 9G11G13
  14569506.237 9   1924763.130 8  19588233.746    19588236.862       -4081.435
     -3154.049
 -21300501.239 9 -16849096.203 8  16509202.321    16509204.314       -2452.354
     -1929.958
  -7184932.625 9  -5762233.320 9  18050850.161    18050854.026       -2203.506
     -1723.362
 -50380177.734 9  28997104.854 8  16275850.807    16275851.715        -218.609
      -174.042
 88  3 30  6 26 38.0800000  0  4G 6G 9G11G13
  14691542.757 8   2019856.472 7  19611456.089    19611459.050       -4073.724
     -3171.174
 -21226368.617 9 -16791330.527 8  16523309.253    16523311.600       -2488.254
     -1924.931
  -7118811.893 9  -5710710.682 9  18063432.686    18063437.284       -2197.517
     -1712.376
 -50373320.499 9  29002448.152 7  16277154.759    16277157.595        -226.671
      -163.646
 88  3 30  6 27  8.0800000  0  4G 6G 9G11G13
  14813737.012 9   2115072.741 7  19634708.668    19634712.080       -4073.995
     -3162.369
 -21151688.017 9 -16733137.869 8  16537520.067    16537522.415       -2494.977
     -1946.642
  -7052629.039 9  -5659139.633 8  18076027.380    18076030.408       -2192.996
     -1713.352
 -50366153.333 9  29008032.955 7  16278519.634    16278522.128        -243.138
      -194.578
 88  3 30  6 27 38.0800000  0  4G 6G 9G11G13
  14936086.258 8   2210409.776 8  19657991.715    19657993.653       -4092.408
     -3178.643
 -21076461.808 9 -16674520.059 8  16551835.696    16551838.442       -2532.042
     -1960.965
  -6986385.333 9  -5607521.159 9  18088632.805    18088635.712       -2210.842
     -1714.420
 -50358677.491 9  29013858.291 8  16279941.656    16279944.498        -257.707
      -199.313
 88  3 30  6 28  8.0800000  0  4G 6G 9G11G13
  15058587.029 8   2305864.869 8  19681302.090    19681305.181       -4093.755
     -3189.573
 -21000692.595 8 -16615479.136 7  16566254.942    16566255.633       -2531.938
     -1959.374
  -6920082.314 8  -5555856.461 9  18101249.875    18101253.572       -2229.295
     -1721.193
 -50350895.016 9  29019922.564 9  16281423.269    16281426.306        -262.364
      -211.977
 88  3 30  6 28 38.0800000  0  4G 6G 9G11G13
  15181236.604 9   2401435.928 8  19704641.482    19704646.617       -4078.445
     -3197.359
 -20924382.709 9 -16556016.889 7  16580775.629    16580776.626       -2540.758
     -1983.421
  -6853721.563 8  -5504146.782 8  18113878.683    18113881.503       -2207.382
     -1736.032
 -50342807.520 9  29026224.506 8  16282961.855    16282963.502        -277.372
      -225.958
 88  3 30  6 29  8.0800000  0  4G 6G 9G11G13
  15304031.526 8   2497120.237 8  19728009.363    19728012.513       -4099.401
     -3196.321
 -20847534.833 9 -16496135.449 8  16595399.851    16595401.653       -2570.765
     -1991.984
  -6787304.518 9  -5452393.235 8  18126516.542    18126519.918       -2212.637
     -1731.086
 -50334417.140 9  29032762.455 7  16284557.677    16284560.007        -289.110
      -217.209
 88  3 30  6 29 38.0800000  0  4G 6G 9G11G13
  15426969.340 9   2592915.902 8  19751403.206    19751405.467       -4102.280
     -3174.187
 -20770150.886 9 -16435836.284 7  16610125.338    16610126.450       -2592.750
     -2027.278
  -6720832.290 8  -5400596.698 9  18139166.407    18139168.631       -2232.094
     -1733.037
 -50325724.591 9  29039535.879 8  16286212.714    16286214.368        -305.490
      -213.226
 88  3 30  6 30  8.0800000  0  4G 6G 9G11G13
  15550047.668 9   2688821.054 7  19774823.995    19774827.586       -4110.749
     -3202.603
 -20692232.747 9 -16375120.876 8  16624952.827    16624953.902       -2595.470
     -2025.687
  -6654305.748 9  -5348757.832 8  18151826.385    18151827.861       -2219.550
     -1720.982
 -50316731.193 9  29046543.732 8  16287923.672    16287926.137        -305.394
      -221.782
 88  3 30  6 30 38.0800000  0  3G 9G11G13
 -20613783.730 9 -16313991.772 8  16639880.886    16639882.527       -2611.729
     -2039.215
  -6587726.813 8  -5296878.138 9  18164495.479    18164497.896       -2209.160
     -1728.942
 -50307439.521 9  29053783.992 8  16289691.840    16289694.265        -308.049
      -253.106
 88  3 30  6 31  8.0800000  0  4G 3G 9G11G13
 -90948485.855 9 115258580.166 7  18648921.550    18648884.943        2122.463
      1653.898
 -20534807.098 9 -16252451.557 7  16654909.825    16654911.781       -2628.467
     -2066.009
  -6521097.685 9  -5244959.335 8  18177174.446    18177176.830       -2216.536
     -1731.030
 -50297852.031 9  29061254.772 8  16291516.559    16291518.351        -333.288
      -243.208
 88  3 30  6 31 38.0800000  0  4G 3G 9G11G13
 -91011717.258 9 115209309.094 8  18636890.028    18636891.734        2120.246
      1645.429
 -20455304.348 9 -16190501.382 7  16670038.502    16670040.045       -2652.989
     -2059.335
  -6454418.739 9  -5193001.707 9  18189863.794    18189865.524       -2208.777
     -1742.594
 -50287968.549 9  29068956.194 8  16293397.425    16293398.695        -335.298
      -250.279
 88  3 30  6 32  8.0800000  0  4G 3G 9G11G13
 -91074713.316 8 115160221.290 8  18624901.480    18624903.842        2104.480
      1637.755
 -20375277.207 8 -16128142.603 7  16685266.962    16685270.081       -2688.666
     -2085.296
  -6387690.757 9  -5141005.870 8  18202561.211    18202563.894       -2220.627
     -1724.543
 -50277790.716 9  29076886.966 8  16295334.550    16295336.387        -332.260
      -260.389
 88  3 30  6 32 38.0800000  0  4G 3G 9G11G13
 -91137474.954 9 115111316.158 8  18612957.155    18612960.523        2091.578
      1620.990
 -20294729.647 8 -16065378.285 8  16700594.600    16700597.205       -2671.027
     -2089.795
  -6320916.138 9  -5088973.693 9  18215267.272    18215269.684       -2232.724
     -1742.258
 -50267321.839 9  29085044.541 8  16297325.918    16297328.312        -365.034
      -285.710
 88  3 30  6 33  8.0800000  0  4G 3G 9G11G13
 -91200003.402 9 115062592.727 8  18601059.534    18601062.590        2073.524
      1623.239
 -20213664.981 9 -16002211.030 8  16716020.707    16716022.018       -2713.323
     -2109.835
  -6254097.040 9  -5036906.870 8  18227982.346    18227986.081       -2246.998
     -1732.950
 -50256564.026 9  29093427.257 8  16299373.539    16299375.091        -365.903
      -299.859
 88  3 30  6 33 38.0800000  0  4G 3G 9G11G13
 -91262296.616 9 115014052.597 9  18589204.943    18589207.221        2073.979
      1610.824
 -20132083.721 9 -15938641.229 7  16731544.998    16731547.778       -2751.871
     -2122.175
  -6187233.057 9  -4984805.068 9  18240706.975    18240709.599       -2216.919
     -1734.534
 -50245516.946 9  29102035.375 8  16301475.689    16301477.626        -381.701
      -288.953
 88  3 30  6 34  8.0800000  0  4G 3G 9G11G13
 -91324355.122 9 114965695.363 9  18577396.203    18577398.865        2072.360
      1612.564
 -20049988.487 9 -15874670.929 8  16747167.717    16747169.348       -2743.617
     -2125.953
  -6120325.661 9  -4932669.435 9  18253438.552    18253441.271       -2225.635
     -1737.318
 -50234182.012 9  29110867.790 8  16303632.203    16303634.225        -377.187
      -317.338
 88  3 30  6 34 38.0800000  0  4G 3G 9G11G13
 -91386179.756 9 114917520.350 7  18565630.643    18565634.237        2066.578
      1584.558
 -19967383.149 9 -15810303.139 8  16762887.220    16762888.126       -2758.968
     -2151.840
  -6053376.829 9  -4880501.500 9  18266179.547    18266181.740       -2232.525
     -1739.760
 -50222562.427 9  29119922.023 8  16305843.503    16305845.830        -387.474
      -299.486
 88  3 30  6 35  8.0800000  0  4G 3G 9G11G13
 -91447771.184 8 114869527.061 8  18553910.509    18553912.856        2054.824
      1601.112
 -19884269.852 9 -15745539.557 7  16778702.460    16778704.674       -2768.888
     -2152.287
  -5986387.870 9  -4828302.306 8  18278926.836    18278929.532       -2219.335
     -1737.386
 -50210659.613 9  29129196.944 7  16308109.010    16308109.936        -394.029
      -326.777
 88  3 30  6 35 38.0800000  0  4G 3G 9G11G13
 -91509128.993 8 114821715.810 8  18542234.423    18542236.750        2040.510
      1598.223
 -19800651.496 9 -15680382.389 7  16794615.090    16794616.339       -2788.728
     -2175.365
  -5919359.631 9  -4776072.509 8  18291680.895    18291684.206       -2239.454
     -1754.450
 -50198474.552 9  29138691.803 8  16310426.893    16310428.895        -399.356
      -338.844
 88  3 30  6 36  8.0800000  0  4G 3G 9G11G13
 -91570253.226 9 114774086.578 9  18530602.579    18530606.020        2022.066
      1587.000
 -19716529.972 9 -15614833.153 8  16810623.462    16810623.821       -2823.177
     -2183.126
  -5852293.182 9  -4723812.939 9  18304443.958    18304447.010       -2231.161
     -1739.996
 -50186009.205 9  29148405.067 8  16312799.948    16312800.460        -421.229
      -327.255
 88  3 30  6 36 38.0800000  0  4G 3G 9G11G13
 -91631145.594 9 114726638.003 8  18519014.851    18519018.615        2029.474
      1580.575
 -19631909.802 9 -15548895.368 8  16826726.071    16826727.429       -2811.886
     -2202.066
  -5785191.137 9  -4671525.620 8  18317212.740    18317215.798       -2242.381
     -1749.590
 -50173266.687 9  29158334.294 8  16315224.126    16315225.384        -422.481
      -354.832
 88  3 30  6 37  8.0800000  0  4G 3G 9G11G13
 -91691804.904 8 114679371.046 9  18507471.898    18507475.570        2010.790
      1575.809
 -19546792.272 9 -15482570.035 8  16842922.664    16842924.277       -2850.832
     -2216.432
  -5718053.512 9  -4619210.583 9  18329989.593    18329991.911       -2248.904
     -1734.777
 -50160247.228 9  29168479.341 9  16317701.673    16317702.872        -444.570
      -336.626
 88  3 30  6 37 38.0800000  0  4G 3G 9G11G13
 -91752229.982 8 114632286.607 8  18495973.770    18495977.739        2026.372
      1569.683
 -19461178.107 9 -15415857.709 7  16859214.659    16859217.249       -2854.915
     -2235.167
  -5650879.820 8  -4566867.442 8  18342771.043    18342774.438       -2233.027
     -1740.201
 -50146950.693 9  29178840.274 8  16320231.755    16320233.605        -429.212
      -358.616
 88  3 30  6 38  8.0800000  0  4G 3G 9G11G13
 -91812424.066 9 114585382.159 8  18484519.530    18484522.326        2004.059
      1578.419
 -19375073.135 9 -15348762.938 7  16875599.410    16875602.648       -2869.126
     -2217.495
  -5583674.034 9  -4514499.302 8  18355559.715    18355563.451       -2247.923
     -1731.664
 -50133381.319 9  29189413.812 7  16322814.484    16322815.918        -458.733
      -368.999
 88  3 30  6 38 38.0800000  0  4G 3G 9G11G13
 -91872387.121 9 114538657.746 9  18473108.598    18473111.400        1984.235
      1548.929
 -19288479.772 9 -15281287.601 7  16892076.997    16892079.850       -2910.066
     -2249.725
  -5516437.323 9  -4462107.056 9  18368354.840    18368358.165       -2243.976
     -1754.971
 -50119541.147 9  29200198.366 7  16325447.975    16325449.578        -457.672
      -359.822
 88  3 30  6 39  8.0800000  0  4G 3G 9G11G13
 -91932118.377 8 114492113.957 8  18461741.971    18461745.503        1994.227
      1558.001
 -19201399.626 9 -15213432.960 7  16908648.936    16908650.482       -2915.002
     -2256.418
  -5449169.532 8  -4409690.604 9  18381155.877    18381158.519       -2238.553
     -1748.752
 -50105430.502 9  29211193.679 8  16328133.131    16328134.842        -488.557
      -363.034
 88  3 30  6 39 38.0800000  0  4G 3G 9G11G13
 -91991618.966 9 114445749.890 9  18450419.340    18450422.399        1986.739
      1554.372
 -19113836.014 8 -15145201.587 8  16925311.821    16925313.166       -2919.500
     -2283.715
  -5381872.218 8  -4357251.145 8  18393961.574    18393965.079       -2229.941
     -1758.022
 -50091051.413 9  29222398.171 9  16330869.759    16330870.055        -486.236
      -375.766
 88  3 30  6 40  8.0800000  0  4G 3G 9G11G13
 -92050888.662 9 114399565.760 9  18439140.409    18439143.652        1986.229
      1558.280
 -19025791.853 9 -15076595.779 7  16942066.148    16942067.257       -2947.410
     -2295.459
  -5314546.712 9  -4304789.697 9  18406773.651    18406776.267       -2216.911
     -1746.614
 -50076405.254 9  29233810.771 8  16333656.098    16333658.205        -485.678
      -378.028
 88  3 30  6 40 38.0800000  0  4G 3G 9G11G13
 -92109928.221 9 114353560.944 9  18427906.327    18427908.776        1971.261
      1533.494
 -18937270.009 9 -15007617.730 8  16958911.314    16958913.251       -2960.607
     -2307.402
  -5247194.399 8  -4252307.369 8  18419590.061    18419593.041       -2235.403
     -1740.630
 -50061494.160 9  29245429.797 8  16336493.380    16336496.006        -501.372
      -374.337
 88  3 30  6 41  8.0800000  0  4G 3G 9G11G13
 -92168738.018 8 114307735.158 8  18416715.741    18416717.669        1972.154
      1519.314
 -18848273.602 8 -14938269.892 8  16975845.901    16975848.732       -2973.996
     -2310.708
  -5179816.789 8  -4199805.338 9  18432411.807    18432414.318       -2241.600
     -1740.810
 -50046320.233 9  29257253.643 8  16339381.043    16339384.138        -507.145
      -394.358
 88  3 30  6 41 38.0800000  0  4G 3G 9G11G13
 -92227317.647 9 114262088.732 8  18405566.596    18405570.474        1964.363
      1506.868
 -18758805.106 9 -14868554.203 7  16992871.413    16992873.208       -2984.196
     -2325.018
  -5112414.557 9  -4147284.108 8  18445238.474    18445240.715       -2246.001
     -1752.206
 -50030884.778 9  29269281.267 7  16342318.658    16342320.051        -519.147
      -381.837
 88  3 30  6 42  8.0800000  0  4G 3G 9G11G13
 -92285667.214 9 114216621.573 8  18394462.816    18394465.693        1945.520
      1514.840
 -18668866.663 9 -14798472.310 9  17009986.689    17009987.306       -3014.913
     -2356.789
  -5044988.004 9  -4094743.930 8  18458068.703    18458072.022       -2246.137
     -1747.583
 -50015188.417 9  29281512.203 7  16345304.994    16345307.697        -509.904
      -421.928
 88  3 30  6 42 38.0800000  0  4G 3G 9G11G13
 -92343787.035 9 114171333.440 8  18383403.823    18383405.514        1928.247
      1521.358
 -18578460.856 9 -14728026.240 7  17027190.141    17027191.914       -3008.414
     -2357.702
  -4977538.482 9  -4042185.849 9  18470904.047    18470906.445       -2240.164
     -1763.515
 -49999232.966 9  29293945.026 7  16348341.699    16348343.862        -534.968
      -403.840
 88  3 30  6 43  8.0800000  0  4G 3G 9G11G13
 -92401677.731 9 114126223.847 9  18372388.149    18372390.014        1945.416
      1506.016
 -18487591.690 9 -14657219.115 7  17044483.116    17044483.863       -3041.802
     -2353.514
  -4910067.481 9  -3989611.034 8  18483741.941    18483744.721       -2246.424
     -1736.647
 -49983020.168 9  29306578.381 8  16351427.454    16351427.953        -561.594
      -418.834
 88  3 30  6 43 38.0800000  0  4G 3G 9G11G13
 -92459341.228 9 114081291.278 8  18361413.981    18361417.265        1912.219
      1502.232
 -18396262.799 9 -14586053.761 7  17061861.729    17061863.597       -3055.558
     -2376.679
  -4842577.167 9  -3937021.195 8  18496586.235    18496589.224       -2258.545
     -1756.339
 -49966553.547 9  29319409.510 7  16354560.154    16354563.287        -559.481
      -439.352
 88  3 30  6 44  8.0800000  0  4G 3G 9G11G13
 -92516776.365 9 114036536.663 8  18350484.311    18350487.611        1912.944
      1498.373
 -18304475.546 9 -14514531.234 7  17079327.711    17079329.131       -3064.441
     -2395.693
  -4775067.336 9  -3884416.140 8  18509433.070    18509435.074       -2240.204
     -1750.392
 -49949833.141 9  29332438.411 8  16357742.642    16357744.281        -562.870
      -444.832
 88  3 30  6 44 38.0800000  0  4G 3G 9G11G13
 -92573983.701 9 113991959.546 8  18339599.086    18339601.928        1896.103
      1487.468
 -18212233.391 8 -14442654.227 7  17096880.999    17096883.137       -3075.271
     -2395.818
  -4707539.334 8  -3831796.905 8  18522284.136    18522285.070       -2237.301
     -1744.570
 -49932860.748 9  29345663.661 8  16360972.392    16360974.922        -575.884
      -437.811
 88  3 30  6 45  8.0800000  0  4G 3G 9G11G13
 -92630963.458 9 113947559.784 8  18328756.101    18328758.185        1891.462
      1482.497
 -18119539.320 9 -14370425.095 7  17114520.149    17114522.219       -3084.760
     -2397.123
  -4639994.424 9  -3779164.506 9  18535135.997    18535139.964       -2253.107
     -1756.090
 -49915638.269 9  29359083.783 8  16364248.993    16364252.238        -565.701
      -451.214
 88  3 30  6 45 38.0800000  0  4G 3G 9G11G13
 -92687716.648 9 113903336.551 8  18317955.551    18317959.860        1887.530
      1469.740
 -18026396.309 9 -14297846.129 7  17132244.776    17132246.562       -3103.978
     -2433.566
  -4572433.531 9  -3726519.661 9  18547993.249    18547995.608       -2257.301
     -1757.525
 -49898167.512 9  29372697.360 7  16367575.160    16367576.502        -578.452
      -461.796
 88  3 30  6 46  8.0800000  0  4G 3G 9G11G13
 -92744243.599 9 113859289.619 9  18307199.241    18307202.078        1899.651
      1452.074
 -17932807.439 9 -14224919.731 7  17150053.848    17150056.406       -3112.264
     -2440.395
  -4504857.960 9  -3673863.365 8  18560852.153    18560854.519       -2258.417
     -1746.067
 -49880450.137 9  29386503.116 7  16370945.170    16370947.244        -589.337
      -461.927
 88  3 30  6 46 38.0800000  0  4G 3G 9G11G13
 -92800544.344 9 113815418.941 8  18296485.728    18296488.125        1877.092
      1450.266
 -17838775.223 9 -14151647.895 7  17167948.407    17167949.629       -3128.691
     -2461.497
  -4437268.396 9  -3621196.164 8  18573713.921    18573717.060       -2237.461
     -1754.760
 -49862487.453 9  29400500.021 8  16374363.284    16374366.308        -599.640
      -467.544
 88  3 30  6 47  8.0800000  0  4G 3G 9G11G13
 -92856619.330 8 113771724.192 8  18285815.424    18285817.649        1873.336
      1470.790
 -17744303.118 9 -14078033.271 7  17185925.129    17185926.861       -3149.368
     -2463.666
  -4369665.766 9  -3568518.793 8  18586578.963    18586580.992       -2264.701
     -1737.411
 -49844281.220 9  29414686.693 8  16377827.612    16377830.297        -614.305
      -460.274
 88  3 30  6 47 38.0800000  0  4G 3G 9G11G13
 -92912468.116 9 113728205.690 9  18275187.339    18275190.178        1855.689
      1436.801
 -17649392.978 9 -14004077.330 8  17203985.867    17203988.859       -3190.827
     -2468.339
  -4302050.578 9  -3515831.608 8  18599444.874    18599448.143       -2261.934
     -1756.214
 -49825832.323 9  29429062.477 8  16381338.775    16381340.315        -622.630
      -457.465
 88  3 30  6 48  8.0800000  0  4G 3G 9G11G13
 -92968092.786 9 113684861.821 8  18264601.636    18264605.801        1844.182
      1435.105
 -17554049.847 9 -13929783.995 7  17222129.459    17222131.182       -3175.668
     -2472.751
  -4234425.087 9  -3463136.415 8  18612312.804    18612316.678       -2272.676
     -1758.252
 -49807143.932 9  29443624.864 8  16384895.752    16384897.203        -628.347
      -480.767
 88  3 30  6 48 38.0800000  0  4G 3G 9G11G13
 -93023492.908 9 113641692.932 8  18254060.109    18254062.865        1839.461
      1420.589
 -17458275.643 9 -13855154.761 8  17240354.528    17240355.518       -3194.264
     -2493.542
  -4166789.291 9  -3410433.207 8  18625184.749    18625187.047       -2245.340
     -1752.213
 -49788216.700 9  29458373.365 9  16388495.891    16388498.102        -628.611
      -496.258
 88  3 30  6 49  8.0800000  0  4G 3G 9G11G13
 -93078668.559 9 113598698.937 8  18243560.144    18243562.385        1833.161
      1412.896
 -17362072.679 9 -13780191.417 8  17258661.459    17258663.091       -3217.693
     -2492.666
  -4099143.948 9  -3357722.553 8  18638057.208    18638060.480       -2260.850
     -1763.745
 -49769051.712 9  29473307.115 8  16392143.679    16392145.451        -631.274
      -501.937
 88  3 30  6 49 38.0800000  0  4G 3G 9G11G13
 -93133620.337 8 113555879.408 9  18233103.466    18233106.306        1836.925
      1419.166
 -17265444.401 9 -13704896.665 8  17277048.935    17277051.248       -3220.715
     -2505.708
  -4031490.471 8  -3305005.550 9  18650930.527    18650933.633       -2254.510
     -1748.609
 -49749651.153 9  29488424.442 7  16395834.924    16395837.619        -649.168
      -482.345
 88  3 30  6 50  8.0800000  0  4G 3G 9G11G13
 -93188349.756 9 113513233.146 9  18222689.376    18222690.911        1842.228
      1428.735
 -17168394.763 8 -13629273.582 8  17295516.360    17295519.570       -3242.389
     -2517.024
  -3963830.347 8  -3252283.369 8  18663806.881    18663808.866       -2271.089
     -1758.041
 -49730017.721 9  29503723.218 9  16399571.057    16399573.272        -654.176
      -496.351
 88  3 30  6 50 38.0800000  0  4G 3G 9G11G13
 -93242856.460 9 113470760.434 9  18212316.346    18212318.535        1803.720
      1404.377
 -17070926.250 8 -13553324.100 8  17314064.208    17314066.282       -3254.040
     -2531.092
  -3896164.089 9  -3199556.410 9  18676682.966    18676685.386       -2259.757
     -1752.623
 -49710151.864 9  29519203.119 8  16403351.693    16403354.311        -664.998
      -523.039
 88  3 30  6 51  8.0800000  0  4G 3G 9G11G13
 -93297141.320 9 113428460.562 8  18201986.365    18201988.652        1812.165
      1414.276
 -16973042.170 8 -13477050.795 8  17332690.466    17332693.204       -3270.531
     -2537.411
  -3828493.264 8  -3146825.896 9  18689559.757    18689563.081       -2263.824
     -1764.410
 -49690055.453 9  29534862.655 8  16407176.284    16407178.346        -652.247
      -514.483
 88  3 30  6 51 38.0800000  0  4G 3G 9G11G13
 -93351204.456 9 113386333.487 8  18191697.804    18191700.957        1792.643
      1410.187
 -16874746.197 8 -13400456.552 8  17351395.991    17351397.656       -3290.905
     -2531.402
  -3760818.573 9  -3094092.374 9  18702438.980    18702441.489       -2246.895
     -1759.737
 -49669730.826 8  29550700.033 8  16411043.014    16411045.490        -684.519
      -539.201
 88  3 30  6 52  8.0800000  0  4G 3G 9G11G13
 -93405046.141 9 113344378.961 8  18181452.365    18181454.762        1776.304
      1396.461
 -16776039.825 8 -13323542.499 8  17370180.549    17370181.892       -3271.448
     -2575.688
  -3693140.125 9  -3041355.921 8  18715316.877    18715319.343       -2260.937
     -1748.074
 -49649178.144 9  29566715.111 8  16414954.435    16414957.186        -683.235
      -532.080
 88  3 30  6 52 38.0800000  0  4G 3G 9G11G13
 -93458666.798 8 113302596.693 8  18171249.598    18171251.415        1780.921
      1387.768
 -16676926.624 8 -13246311.446 7  17389040.405    17389042.880       -3307.061
     -2570.922
  -3625458.777 9  -2988617.207 9  18728196.850    18728198.839       -2270.028
     -1751.827
 -49628399.525 9  29582906.244 9  16418909.039    16418911.511        -725.858
      -533.329
 88  3 30  6 53  8.0800000  0  4G 3G 9G11G13
 -93512067.924 9 113260985.452 8  18161087.462    18161089.599        1776.726
      1374.035
 -16577410.842 9 -13168766.688 8  17407977.913    17407979.574       -3327.938
     -2593.286
  -3557776.608 9  -2935877.849 9  18741076.021    18741078.886       -2257.142
     -1758.022
 -49607398.006 9  29599271.078 8  16422905.671    16422907.879        -698.139
      -543.594
 88  3 30  6 53 38.0800000  0  4G 3G 9G11G13
 -93565249.422 8 113219545.341 8  18150967.358    18150969.869        1740.467
      1367.014
 -16477494.879 9 -13090910.112 9  17426991.226    17426992.669       -3331.925
     -2600.357
  -3490093.695 8  -2883137.928 9  18753955.245    18753958.244       -2265.427
     -1760.259
 -49586174.264 9  29615809.055 9  16426944.052    16426946.012        -716.807
      -544.116
 88  3 30  6 54  8.0800000  0  4G 3G 9G11G13
 -93618211.250 9 113178276.417 8  18140887.979    18140890.897        1759.893
      1373.538
 -16377181.558 9 -13012743.908 9  17446079.405    17446082.130       -3346.981
     -2598.785
  -3422410.547 8  -2830397.810 9  18766834.859    18766838.820       -2259.606
     -1756.233
 -49564729.361 9  29632519.367 8  16431025.267    16431027.522        -707.453
      -545.092
 88  3 30  6 54 38.0800000  0  4G 3G 9G11G13
 -93670955.306 9 113137177.187 8  18130850.986    18130854.251        1764.893
      1373.781
 -16276475.220 9 -12934271.431 8  17465244.250    17465245.393       -3360.769
     -2621.689
  -3354729.501 8  -2777659.341 9  18779713.352    18779717.674       -2253.370
     -1763.634
 -49543066.100 9  29649399.845 8  16435148.306    16435149.699        -733.314
      -568.953
 88  3 30  6 55  8.0800000  0  4G 3G 9G11G13
 -93723481.603 9 113096247.626 8  18120856.650    18120858.115        1748.944
      1354.530
 -16175378.738 9 -12855494.980 8  17484480.811    17484483.571       -3369.947
     -2629.506
  -3287050.786 8  -2724922.687 9  18792592.815    18792595.647       -2247.150
     -1748.143
 -49521185.618 9  29666449.581 9  16439311.536    16439313.409        -722.556
      -548.752
 88  3 30  6 55 38.0800000  0  4G 3G 9G11G13
 -93775789.277 8 113055488.437 9  18110903.073    18110905.369        1728.553
      1358.899
 -16073893.936 8 -12776415.915 8  17503793.648    17503795.472       -3384.149
     -2634.408
  -3219374.252 9  -2672187.727 9  18805470.941    18805474.556       -2248.218
     -1752.592
 -49499088.743 9  29683667.918 9  16443515.737    16443518.438        -721.065
      -577.068
 88  3 30  6 56  8.0800000  0  4G 3G 9G11G13
 -93827878.778 8 113014899.238 9  18100989.744    18100993.243        1726.504
      1356.687
 -15972024.025 9 -12697036.791 9  17523179.038    17523181.168       -3409.308
     -2657.430
  -3151700.805 8  -2619455.174 9  18818348.923    18818352.723       -2265.363
     -1760.191
 -49476776.815 9  29701053.850 8  16447761.036    16447764.124        -742.700
      -589.415
 88  3 30  6 56 38.0800000  0  4G 3G 9G11G13
 -93879751.889 9 112974478.652 9  18091118.393    18091121.385        1739.048
      1353.306
 -15869773.328 9 -12617360.921 8  17542635.896    17542638.881       -3420.831
     -2660.338
  -3084031.956 9  -2566726.205 9  18831226.730    18831230.001       -2240.100
     -1747.291
 -49454251.956 8  29718605.681 9  16452047.833    16452050.341        -746.073
      -582.039
 88  3 30  6 57  8.0800000  0  4G 3G 9G11G13
 -93931409.072 8 112934226.334 8  18081288.379    18081291.293        1727.357
      1354.195
 -15767144.558 7 -12537390.471 9  17562165.425    17562168.529       -3433.008
     -2671.169
  -3016368.201 9  -2514001.208 9  18844101.733    18844105.474       -2257.118
     -1744.091
 -49431515.498 8  29736322.407 9  16456374.454    16456376.561        -766.742
      -599.593
 88  3 30  6 57 38.0800000  0  4G 3G 9G11G13
 -93982851.321 9 112894141.489 9  18071499.232    18071501.264        1717.812
      1336.144
 -15664141.176 8 -12457128.105 8  17581766.484    17581768.836       -3432.586
     -2679.396
  -2948710.656 8  -2461281.045 9  18856977.825    18856980.551       -2253.936
     -1751.324
 -49408570.388 8  29754201.717 8  16460741.163    16460743.582        -748.162
      -588.818
 88  3 30  6 58  8.0800000  0  4G 3G 9G11G13
 -94034077.943 9 112854224.654 9  18061751.263    18061753.946        1705.906
      1316.639
 -15560765.923 9 -12376575.988 8  17601437.900    17601440.645       -3447.968
     -2690.879
  -2881059.404 9  -2408565.766 9  18869850.963    18869853.921       -2247.883
     -1762.745
 -49385416.821 9  29772243.462 8  16465147.201    16465149.815        -770.889
      -616.538
 88  3 30  6 58 38.0800000  0  4G 3G 9G11G13
 -94085089.811 9 112814475.181 9  18052045.283    18052047.354        1697.804
      1328.787
 -15457022.293 9 -12295736.806 8  17621179.647    17621182.408       -3483.789
     -2683.957
  -2813415.946 9  -2355856.574 8  18882723.434    18882725.743       -2253.625
     -1764.280
 -49362056.490 9  29790446.323 8  16469592.194    16469594.000        -776.599
      -606.826
 88  3 30  6 59  8.0800000  0  4G 3G 9G11G13
 -94135888.494 8 112774891.813 8  18042377.160    18042380.045        1691.377
      1326.040
 -15352914.290 9 -12214613.693 9  17640990.825    17640993.261       -3483.175
     -2706.439
  -2745781.636 8  -2303154.521 9  18895592.869    18895595.928       -2242.955
     -1759.116
 -49338492.110 8  29808808.182 8  16474075.182    16474078.690        -804.876
      -609.286
 88  3 30  6 59 38.0800000  0  4G 3G 9G11G13
 -94186473.295 8 112735475.106 8  18032751.703    18032754.255        1698.028
      1314.601
 -15248444.159 9 -12133208.412 9  17660871.139    17660873.692       -3483.095
     -2720.587
  -2678155.880 8  -2250459.130 9  18908461.478    18908464.434       -2253.481
     -1751.622
 -49314723.513 9  29827329.159 8  16478599.342    16478600.622        -794.373
      -617.228
 88  3 30  7  0  8.0800000  0  4G 3G 9G11G13
 -94236845.055 9 112696224.410 8  18023166.283    18023169.076        1685.922
      1312.202
 -15143615.052 8 -12051523.417 9  17680819.831    17680822.180       -3487.449
     -2716.269
  -2610539.527 8  -2197771.071 9  18921329.722    18921331.483       -2249.343
     -1759.160
 -49290752.736 9  29846007.685 8  16483159.667    16483163.448        -791.870
      -618.899
 88  3 30  7  0 38.0800000  0  3G 3G 9G13
 -94287004.719 9 112657138.981 8  18013620.963    18013622.844        1681.967
      1300.439
 -15038430.756 8 -11969561.646 8  17700835.453    17700838.315       -3514.403
     -2731.064
 -49266582.380 8  29864841.726 8  16487760.053    16487762.090        -810.713
      -631.184
 88  3 30  7  1  8.0800000  0  3G 3G 9G13
 -94336952.703 9 112618218.507 8  18004116.710    18004118.226        1671.146
      1301.968
 -14932894.498 8 -11887325.610 8  17720918.450    17720921.023       -3518.916
     -2744.802
 -49242213.949 9  29883830.107 8  16492397.677    16492399.262        -803.448
      -639.175
 88  3 30  7  1 38.0800000  0  3G 3G 9G13
-101925218.580 1 129154079.027 2  17994650.096    17994651.936        1647.590
      1294.779
 -14827009.588 9 -11804817.907 8  17741068.048    17741070.286       -3536.810
     -2761.020
-101912375.203 1  30049153.257 5                                      -829.947
      -625.567
 88  3 30  7  2  8.0800000  0  3G 3G 9G13
-101974738.558 1 129212480.879 1  17985222.860    17985232.061        1667.358
      1313.886
 -14720778.566 8 -11722040.508 7  17761282.960    17761284.763       -3534.370
     -2764.053
-101887613.434 1 129204165.902 1  16501787.027    16501789.344        -831.351
      -634.390
 88  3 30  7  2 38.0800000  0  3G 3G 9G13
-102292787.297 1 129625032.193 1  17975838.265    17975816.170        1655.644
      1335.392
 -14614204.885 9 -11638996.098 8  17781562.979    17781565.646       -3550.885
     -2757.957
-102244988.440 1 129611367.887 1  16506523.792    16506544.465        -661.632
      -634.558
 88  3 30  7  3  8.0800000  0  3G 3G 9G13
-102341893.251 1 129586767.686 1  17966494.359    17966497.599        1661.066
      1239.109
 -14507292.041 8 -11555687.390 8  17801909.150    17801911.148       -3579.290
     -2776.661
-102219838.571 1 129630965.232 1  16511316.104    16511322.590        -839.197
      -630.917
 88  3 30  7  3 38.0800000  0  3G 3G 9G13
-102390790.779 1 129548665.740 1  17957189.533    17957194.023        1686.297
      1220.319
 -14400043.639 9 -11472117.234 8  17822316.932    17822319.108       -3574.521
     -2794.494
-102194498.086 1 129650711.076 1  16516136.968    16516143.810        -789.533
      -653.957
 88  3 30  7  4  8.0800000  0  3G 3G 9G13
-102439480.850 1 129510725.451 1  17947925.327    17947927.988        1642.159
      1194.140
 -14292463.731 9 -11388288.752 8  17842789.055    17842791.438       -3594.928
     -2805.542
-102789572.663 1 130322337.012 1  16521000.855    16521110.721        -863.926
      -673.158
